[[{"header":{"parameterUnit":"m.s-1","parameterCategory":1,"la1":31.0,"la2":29.5877,"lo1":-88.7671,"lo2":-86.6584,"dy":0.0162,"dx":0.0185,"nx":115,"ny":88,"refTime":"2023-10-23T12:00:00:Z","depth":0,"parameterNumber":2,"parameterNumberName":"U-component_of_WINDS"},"data":[0.0,0.0,0.0,0.0,0.0,0.0,0.0,0.0,0.0,0.0,0.0,0.0,0.0,0.0,0.0,0.0,0.0,0.0,0.0,0.0,0.0,0.0,0.0,0.0,0.0,0.0,0.0,0.0,0.0,0.0,0.0,0.0,0.0,0.0,0.0,0.0,0.0,0.0,0.0,0.0,0.0,0.0,0.0,0.0,0.0,0.0,0.0,0.0,0.0,0.0,0.0,0.0,0.0,0.0,0.0,0.0,0.0,0.0,0.0,0.0,0.0,0.0,0.0,0.0,0.0,0.0,0.0,0.0,0.0,0.0,0.0,0.0,0.0,0.0,0.0,0.0,0.0,0.0,0.0,0.0,0.0,0.0,0.0,0.0,0.0,0.0,0.0,0.0,0.0,0.0,0.0,0.0,0.0,0.0,0.0,0.0,0.0,0.0,0.0,0.0,0.0,0.0,0.0,0.0,0.0,0.0,0.0,0.0,0.0,0.0,0.0,0.0,0.0,0.0,0.0,0.0,0.0,0.0,0.0,0.0,0.0,0.0,0.0,0.0,0.0,0.0,0.0,0.0,0.0,0.0,0.0,0.0,0.0,0.0,0.0,0.0,0.0,0.0,0.0,0.0,0.0,0.0,0.0,0.0,0.0,0.0,0.0,0.0,0.0,0.0,0.0,0.0,0.0,0.0,0.0,0.0,0.0,0.0,0.0,0.0,0.0,0.0,0.0,0.0,0.0,0.0,0.0,0.0,0.0,0.0,0.0,0.0,0.0,0.0,0.0,0.0,0.0,0.0,0.0,0.0,0.0,0.0,0.0,0.0,0.0,0.0,0.0,0.0,0.0,0.0,0.0,0.0,0.0,0.0,0.0,0.0,0.0,0.0,0.0,0.0,0.0,0.0,0.0,0.0,0.0,0.0,0.0,0.0,0.0,0.0,0.0,0.0,0.0,0.0,0.0,0.0,0.0,0.0,0.0,0.0,0.0,0.0,0.0,0.0,0.0,0.0,0.0,0.0,0.0,0.0,0.0,0.0,0.0,0.0,0.0,0.0,0.0,0.0,0.0,0.0,0.0,0.0,0.0,0.0,0.0,0.0,0.0,0.0,0.0,0.0,0.0,0.0,0.0,0.0,0.0,0.0,0.0,0.0,0.0,0.0,0.0,0.0,0.0,0.0,0.0,0.0,0.0,0.0,0.0,0.0,0.0,0.0,0.0,0.0,0.0,0.0,0.0,0.0,0.0,0.0,0.0,0.0,0.0,0.0,0.0,0.0,0.0,0.0,0.0,0.0,0.0,0.0,0.0,0.0,0.0,0.0,0.0,0.0,0.0,0.0,0.0,0.0,0.0,0.0,0.0,0.0,0.0,0.0,0.0,0.0,0.0,0.0,0.0,0.0,0.0,0.0,0.0,0.0,0.0,0.0,0.0,0.0,0.0,0.0,0.0,0.0,0.0,0.0,0.0,0.0,0.0,0.0,0.0,0.0,0.0,0.0,0.0,0.0,0.0,0.0,0.0,0.0,0.0,0.0,0.0,0.0,0.0,0.0,0.0,0.0,0.0,0.0,0.0,0.0,0.0,0.0,0.0,0.0,0.0,0.0,0.0,0.0,0.0,0.0,0.0,0.0,0.0,0.0,0.0,0.0,0.0,0.0,0.0,0.0,0.0,0.0,0.0,0.0,0.0,0.0,0.0,0.0,0.0,0.0,0.0,0.0,0.0,0.0,0.0,0.0,0.0,0.0,0.0,0.0,0.0,0.0,0.0,0.0,0.0,0.0,0.0,0.0,0.0,0.0,0.0,0.0,0.0,0.0,0.0,0.0,0.0,0.0,0.0,0.0,0.0,0.0,0.0,0.0,0.0,0.0,0.0,0.0,0.0,0.0,0.0,0.0,0.0,0.0,0.0,0.0,0.0,0.0,0.0,0.0,0.0,0.0,0.0,0.0,0.0,0.0,0.0,0.0,0.0,0.0,0.0,0.0,0.0,0.0,0.0,0.0,0.0,0.0,0.0,0.0,0.0,0.0,0.0,0.0,0.0,0.0,0.0,0.0,0.0,0.0,0.0,0.0,0.0,0.0,0.0,0.0,0.0,0.0,0.0,0.0,0.0,0.0,0.0,0.0,0.0,0.0,0.0,0.0,0.0,0.0,0.0,0.0,0.0,0.0,0.0,0.0,0.0,0.0,0.0,0.0,0.0,0.0,0.0,0.0,0.0,0.0,0.0,0.0,0.0,0.0,0.0,0.0,0.0,0.0,0.0,0.0,0.0,0.0,0.0,0.0,0.0,0.0,0.0,0.0,0.0,0.0,0.0,0.0,0.0,0.0,0.0,0.0,0.0,0.0,0.0,0.0,0.0,0.0,0.0,0.0,0.0,0.0,0.0,0.0,0.0,0.0,0.0,0.0,0.0,0.0,0.0,0.0,0.0,0.0,0.0,0.0,0.0,0.0,0.0,0.0,0.0,0.0,0.0,0.0,0.0,0.0,0.0,0.0,0.0,0.0,0.0,0.0,0.0,0.0,0.0,0.0,0.0,0.0,0.0,0.0,0.0,0.0,0.0,0.0,0.0,0.0,0.0,0.0,0.0,0.0,0.0,0.0,0.0,0.0,0.0,0.0,0.0,0.0,0.0,0.0,0.0,0.0,0.0,0.0,0.0,0.0,0.0,0.0,0.0,0.0,0.0,0.0,0.0,0.0,0.0,0.0,0.0,0.0,0.0,0.0,0.0,0.0,0.0,0.0,0.0,0.0,0.0,0.0,0.0,0.0,0.0,0.0,0.0,0.0,0.0,0.0,0.0,0.0,0.0,0.0,0.0,0.0,0.0,0.0,0.0,0.0,0.0,0.0,0.0,0.0,0.0,0.0,0.0,0.0,0.0,0.0,0.0,0.0,0.0,0.0,0.0,0.0,0.0,0.0,0.0,0.0,0.0,0.0,0.0,0.0,0.0,0.0,0.0,0.0,0.0,0.0,0.0,0.0,0.0,0.0,0.0,0.0,0.0,0.0,0.0,0.0,0.0,0.0,0.0,0.0,0.0,0.0,0.0,0.0,0.0,0.0,0.0,0.0,0.0,0.0,0.0,0.0,0.0,0.0,0.0,0.0,0.0,0.0,0.0,0.0,0.0,0.0,0.0,0.0,0.0,0.0,0.0,0.0,0.0,0.0,0.0,0.0,0.0,0.0,0.0,0.0,0.0,0.0,0.0,0.0,0.0,0.0,0.0,0.0,0.0,0.0,0.0,0.0,0.0,0.0,0.0,0.0,0.0,0.0,0.0,0.0,0.0,0.0,0.0,0.0,0.0,0.0,0.0,0.0,0.0,0.0,0.0,0.0,0.0,0.0,0.0,0.0,0.0,0.0,0.0,0.0,0.0,0.0,0.0,0.0,0.0,0.0,0.0,0.0,0.0,0.0,0.0,0.0,0.0,0.0,0.0,0.0,0.0,0.0,0.0,0.0,0.0,0.0,0.0,0.0,0.0,0.0,0.0,0.0,0.0,0.0,0.0,0.0,0.0,0.0,0.0,0.0,0.0,0.0,0.0,0.0,0.0,0.0,0.0,0.0,0.0,0.0,0.0,0.0,0.0,0.0,0.0,0.0,0.0,0.0,0.0,0.0,0.0,0.0,0.0,0.0,0.0,0.0,0.0,0.0,0.0,0.0,0.0,0.0,0.0,0.0,0.0,0.0,0.0,0.0,0.0,0.0,0.0,0.0,0.0,0.0,0.0,0.0,0.0,0.0,0.0,0.0,0.0,0.0,0.0,0.0,0.0,0.0,0.0,0.0,0.0,0.0,0.0,0.0,0.0,0.0,0.0,0.0,0.0,0.0,0.0,0.0,0.0,0.0,0.0,0.0,0.0,0.0,0.0,0.0,0.0,0.0,0.0,0.0,0.0,0.0,0.0,0.0,0.0,0.0,0.0,0.0,0.0,0.0,0.0,0.0,0.0,0.0,0.0,0.0,0.0,0.0,0.0,0.0,0.0,0.0,0.0,0.0,0.0,0.0,0.0,0.0,0.0,0.0,0.0,0.0,0.0,0.0,0.0,0.0,0.0,0.0,0.0,0.0,0.0,0.0,0.0,0.0,0.0,0.0,0.0,0.0,0.0,0.0,0.0,0.0,0.0,0.0,0.0,0.0,0.0,0.0,0.0,0.0,0.0,0.0,0.0,0.0,0.0,0.0,0.0,0.0,0.0,0.0,0.0,0.0,0.0,0.0,0.0,0.0,0.0,0.0,0.0,0.0,0.0,0.0,0.0,0.0,0.0,0.0,0.0,0.0,-1.9049,0.0,0.0,0.0,0.0,0.0,0.0,0.0,0.0,0.0,0.0,0.0,0.0,0.0,0.0,0.0,0.0,0.0,0.0,0.0,0.0,0.0,0.0,0.0,0.0,0.0,0.0,0.0,0.0,0.0,0.0,0.0,0.0,0.0,0.0,0.0,0.0,0.0,0.0,0.0,0.0,0.0,0.0,0.0,0.0,0.0,0.0,0.0,0.0,0.0,0.0,0.0,0.0,0.0,0.0,0.0,0.0,0.0,0.0,0.0,0.0,0.0,0.0,0.0,0.0,0.0,0.0,0.0,0.0,0.0,0.0,0.0,0.0,0.0,0.0,0.0,0.0,0.0,0.0,0.0,0.0,0.0,0.0,0.0,0.0,0.0,0.0,0.0,0.0,0.0,0.0,0.0,0.0,0.0,0.0,0.0,0.0,0.0,0.0,0.0,0.0,0.0,0.0,0.0,0.0,0.0,0.0,0.0,0.0,0.0,0.0,-1.9555,-1.9023,-1.9531,-1.9555,-1.9049,0.0,0.0,0.0,0.0,0.0,0.0,0.0,0.0,0.0,0.0,0.0,0.0,0.0,0.0,0.0,0.0,0.0,0.0,0.0,0.0,0.0,0.0,0.0,0.0,0.0,0.0,0.0,0.0,0.0,0.0,0.0,0.0,0.0,0.0,0.0,0.0,0.0,0.0,0.0,0.0,0.0,0.0,0.0,0.0,0.0,0.0,0.0,0.0,0.0,0.0,0.0,0.0,0.0,0.0,0.0,0.0,0.0,0.0,0.0,0.0,0.0,0.0,0.0,0.0,0.0,0.0,0.0,0.0,0.0,0.0,0.0,0.0,0.0,0.0,0.0,0.0,0.0,0.0,0.0,0.0,0.0,0.0,0.0,0.0,0.0,0.0,0.0,0.0,0.0,0.0,0.0,0.0,0.0,0.0,0.0,0.0,0.0,0.0,0.0,0.0,0.0,0.0,0.0,0.0,0.0,0.0,0.0,0.0,0.0,0.0,0.0,0.0,-1.9989,-1.9956,-1.9554,0.0,0.0,0.0,0.0,0.0,0.0,0.0,0.0,0.0,0.0,0.0,0.0,0.0,0.0,0.0,0.0,0.0,0.0,0.0,0.0,0.0,0.0,0.0,0.0,0.0,0.0,0.0,0.0,0.0,0.0,0.0,0.0,0.0,0.0,0.0,0.0,0.0,0.0,0.0,0.0,0.0,0.0,0.0,0.0,0.0,0.0,0.0,0.0,0.0,0.0,0.0,0.0,0.0,0.0,0.0,0.0,0.0,0.0,0.0,0.0,0.0,0.0,0.0,0.0,0.0,0.0,0.0,0.0,0.0,0.0,0.0,0.0,0.0,0.0,0.0,0.0,0.0,0.0,0.0,0.0,0.0,0.0,0.0,0.0,0.0,0.0,0.0,0.0,0.0,0.0,0.0,0.0,0.0,0.0,0.0,0.0,0.0,0.0,0.0,0.0,0.0,0.0,0.0,0.0,0.0,0.0,0.0,0.0,0.0,0.0,-2.006,-2.1757,-2.1398,0.0,-2.1102,0.0,0.0,0.0,0.0,0.0,0.0,0.0,0.0,0.0,0.0,0.0,0.0,0.0,0.0,0.0,0.0,0.0,0.0,0.0,0.0,0.0,0.0,0.0,0.0,0.0,0.0,0.0,0.0,0.0,0.0,0.0,0.0,0.0,0.0,0.0,0.0,0.0,0.0,0.0,0.0,0.0,0.0,0.0,0.0,0.0,0.0,0.0,0.0,0.0,0.0,0.0,0.0,0.0,0.0,0.0,0.0,0.0,0.0,0.0,0.0,0.0,0.0,0.0,0.0,0.0,0.0,0.0,0.0,0.0,0.0,0.0,0.0,0.0,0.0,0.0,0.0,0.0,0.0,0.0,0.0,0.0,0.0,0.0,0.0,0.0,0.0,0.0,0.0,0.0,0.0,0.0,0.0,0.0,0.0,0.0,0.0,0.0,0.0,0.0,0.0,0.0,0.0,0.0,0.0,0.0,0.0,0.0,0.0,0.0,0.0,-2.1265,-2.2598,-2.2068,-2.15,0.0,0.0,0.0,0.0,0.0,0.0,0.0,0.0,0.0,0.0,0.0,0.0,0.0,0.0,0.0,0.0,0.0,0.0,0.0,0.0,0.0,0.0,0.0,0.0,0.0,0.0,0.0,0.0,0.0,0.0,0.0,0.0,0.0,0.0,0.0,0.0,0.0,0.0,0.0,0.0,0.0,0.0,0.0,0.0,0.0,0.0,0.0,0.0,0.0,0.0,0.0,0.0,0.0,0.0,0.0,0.0,0.0,0.0,0.0,0.0,0.0,0.0,0.0,0.0,0.0,0.0,0.0,0.0,0.0,0.0,0.0,0.0,0.0,0.0,0.0,0.0,0.0,0.0,0.0,0.0,0.0,0.0,0.0,0.0,0.0,0.0,0.0,0.0,0.0,0.0,0.0,0.0,0.0,0.0,0.0,0.0,0.0,0.0,0.0,0.0,0.0,0.0,0.0,0.0,0.0,0.0,0.0,0.0,0.0,0.0,-2.138,-2.195,-2.2887,-2.2412,-2.16,-2.057,0.0,0.0,0.0,0.0,0.0,0.0,0.0,0.0,0.0,0.0,0.0,0.0,0.0,0.0,0.0,0.0,0.0,0.0,0.0,0.0,0.0,0.0,0.0,0.0,0.0,0.0,0.0,0.0,0.0,0.0,0.0,0.0,0.0,0.0,0.0,0.0,0.0,0.0,0.0,0.0,0.0,0.0,0.0,0.0,0.0,0.0,0.0,0.0,0.0,0.0,0.0,0.0,0.0,0.0,0.0,0.0,0.0,0.0,0.0,0.0,0.0,0.0,0.0,0.0,0.0,0.0,0.0,0.0,0.0,0.0,0.0,0.0,0.0,0.0,0.0,0.0,0.0,0.0,0.0,0.0,0.0,0.0,0.0,0.0,0.0,0.0,0.0,0.0,0.0,0.0,0.0,0.0,0.0,0.0,0.0,0.0,0.0,0.0,0.0,0.0,0.0,0.0,0.0,0.0,0.0,0.0,0.0,0.0,-2.576,-2.2855,-2.1722,-2.2976,-2.2408,-2.1562,0.0,0.0,0.0,0.0,0.0,0.0,0.0,0.0,0.0,0.0,0.0,0.0,0.0,0.0,0.0,0.0,0.0,0.0,0.0,0.0,0.0,0.0,0.0,0.0,0.0,0.0,0.0,0.0,0.0,0.0,0.0,0.0,0.0,0.0,0.0,0.0,0.0,0.0,0.0,0.0,0.0,0.0,0.0,0.0,0.0,0.0,0.0,0.0,0.0,0.0,0.0,0.0,0.0,0.0,0.0,0.0,0.0,0.0,0.0,0.0,0.0,0.0,0.0,0.0,0.0,0.0,0.0,0.0,0.0,0.0,0.0,0.0,0.0,0.0,0.0,0.0,0.0,0.0,0.0,0.0,0.0,0.0,0.0,0.0,0.0,0.0,0.0,0.0,0.0,0.0,0.0,0.0,0.0,0.0,0.0,0.0,0.0,0.0,0.0,0.0,0.0,0.0,0.0,0.0,0.0,0.0,0.0,0.0,0.0,-2.2012,-2.2308,-2.2944,-2.3935,-2.2799,-2.1776,0.0,0.0,0.0,0.0,0.0,0.0,0.0,0.0,0.0,0.0,0.0,0.0,0.0,0.0,0.0,0.0,0.0,0.0,0.0,0.0,0.0,0.0,0.0,0.0,0.0,0.0,0.0,0.0,0.0,0.0,0.0,0.0,0.0,0.0,0.0,0.0,0.0,0.0,0.0,0.0,0.0,0.0,0.0,0.0,0.0,0.0,0.0,0.0,0.0,0.0,0.0,0.0,0.0,0.0,0.0,0.0,0.0,0.0,0.0,0.0,0.0,0.0,0.0,0.0,0.0,0.0,0.0,0.0,0.0,0.0,0.0,0.0,0.0,0.0,0.0,0.0,0.0,0.0,0.0,0.0,0.0,0.0,0.0,0.0,0.0,0.0,0.0,0.0,0.0,0.0,0.0,0.0,0.0,0.0,0.0,0.0,0.0,0.0,0.0,0.0,0.0,0.0,0.0,0.0,0.0,0.0,0.0,0.0,0.0,-2.0671,0.0,-2.3853,-2.357,-2.2485,-2.1185,0.0,0.0,0.0,0.0,0.0,0.0,0.0,0.0,0.0,0.0,0.0,0.0,0.0,0.0,0.0,0.0,0.0,0.0,0.0,0.0,0.0,0.0,0.0,0.0,0.0,0.0,0.0,0.0,0.0,0.0,0.0,0.0,0.0,0.0,0.0,0.0,0.0,0.0,0.0,0.0,0.0,0.0,0.0,0.0,0.0,0.0,0.0,0.0,0.0,0.0,0.0,0.0,0.0,0.0,0.0,0.0,0.0,0.0,0.0,0.0,0.0,0.0,0.0,0.0,0.0,0.0,0.0,0.0,0.0,0.0,0.0,0.0,0.0,0.0,0.0,0.0,0.0,0.0,0.0,0.0,0.0,0.0,0.0,0.0,0.0,0.0,0.0,0.0,0.0,0.0,0.0,0.0,0.0,0.0,0.0,0.0,0.0,0.0,0.0,0.0,0.0,0.0,0.0,0.0,0.0,0.0,0.0,0.0,-2.076,-2.2673,-2.4418,-2.4164,-2.1689,-2.1502,-1.9844,0.0,0.0,0.0,0.0,0.0,0.0,0.0,0.0,0.0,0.0,0.0,0.0,0.0,0.0,0.0,0.0,0.0,0.0,0.0,0.0,0.0,0.0,0.0,0.0,0.0,0.0,0.0,0.0,0.0,0.0,0.0,0.0,0.0,0.0,0.0,0.0,0.0,0.0,0.0,0.0,0.0,0.0,0.0,0.0,0.0,0.0,0.0,0.0,0.0,0.0,0.0,0.0,0.0,0.0,0.0,0.0,0.0,0.0,0.0,0.0,0.0,0.0,0.0,0.0,0.0,0.0,0.0,0.0,0.0,0.0,0.0,0.0,0.0,0.0,0.0,0.0,0.0,0.0,0.0,0.0,0.0,0.0,0.0,0.0,0.0,0.0,0.0,0.0,0.0,0.0,0.0,0.0,0.0,0.0,0.0,0.0,0.0,0.0,0.0,0.0,0.0,0.0,0.0,0.0,0.0,0.0,0.0,0.0,0.0,-2.1235,-2.271,-2.3583,-2.3635,-2.1497,-2.0288,0.0,0.0,0.0,0.0,0.0,0.0,0.0,0.0,0.0,0.0,0.0,0.0,0.0,0.0,0.0,0.0,0.0,0.0,0.0,0.0,0.0,0.0,0.0,0.0,0.0,0.0,0.0,0.0,0.0,0.0,0.0,0.0,0.0,0.0,0.0,0.0,0.0,0.0,0.0,0.0,0.0,0.0,0.0,0.0,0.0,0.0,0.0,0.0,0.0,0.0,0.0,0.0,0.0,0.0,0.0,0.0,0.0,0.0,0.0,0.0,0.0,0.0,0.0,0.0,0.0,0.0,0.0,0.0,0.0,0.0,0.0,0.0,0.0,0.0,0.0,0.0,0.0,0.0,0.0,0.0,0.0,0.0,0.0,0.0,0.0,0.0,0.0,0.0,0.0,0.0,0.0,0.0,0.0,0.0,0.0,0.0,0.0,0.0,0.0,0.0,0.0,0.0,0.0,0.0,0.0,0.0,0.0,0.0,0.0,-2.173,-2.3227,-2.4045,-2.4091,-2.1635,-2.0297,-2.0174,0.0,0.0,0.0,0.0,0.0,0.0,0.0,0.0,0.0,0.0,0.0,0.0,0.0,0.0,0.0,0.0,0.0,0.0,0.0,0.0,0.0,0.0,0.0,0.0,0.0,0.0,0.0,0.0,0.0,0.0,0.0,0.0,0.0,0.0,0.0,0.0,0.0,0.0,0.0,0.0,0.0,0.0,0.0,0.0,0.0,0.0,0.0,0.0,0.0,0.0,0.0,0.0,0.0,0.0,0.0,0.0,0.0,0.0,0.0,0.0,0.0,0.0,0.0,0.0,0.0,0.0,0.0,0.0,0.0,0.0,0.0,0.0,0.0,0.0,0.0,0.0,0.0,0.0,0.0,0.0,0.0,0.0,0.0,0.0,0.0,0.0,0.0,0.0,0.0,0.0,0.0,0.0,0.0,0.0,0.0,0.0,0.0,0.0,0.0,0.0,0.0,0.0,0.0,0.0,0.0,0.0,0.0,0.0,-2.3637,-2.5535,-2.5508,-2.3516,-2.2012,-2.0099,0.0,0.0,0.0,0.0,0.0,0.0,0.0,0.0,0.0,0.0,0.0,0.0,0.0,0.0,0.0,0.0,0.0,0.0,0.0,0.0,0.0,0.0,0.0,0.0,0.0,0.0,0.0,0.0,0.0,0.0,0.0,0.0,0.0,0.0,0.0,0.0,0.0,0.0,0.0,0.0,0.0,0.0,0.0,0.0,0.0,0.0,0.0,0.0,0.0,0.0,0.0,0.0,0.0,0.0,0.0,0.0,0.0,0.0,0.0,0.0,0.0,0.0,0.0,0.0,0.0,0.0,0.0,0.0,0.0,0.0,0.0,0.0,0.0,0.0,0.0,0.0,0.0,0.0,0.0,0.0,0.0,0.0,0.0,0.0,0.0,0.0,0.0,0.0,0.0,0.0,0.0,0.0,0.0,0.0,0.0,0.0,0.0,0.0,0.0,0.0,0.0,0.0,0.0,0.0,0.0,0.0,0.0,0.0,0.0,-2.4441,-2.6909,-2.7695,-2.6465,-2.3379,-2.1406,0.0,0.0,0.0,0.0,0.0,0.0,0.0,0.0,0.0,0.0,0.0,0.0,0.0,0.0,0.0,0.0,0.0,0.0,0.0,0.0,0.0,0.0,0.0,0.0,0.0,0.0,0.0,0.0,0.0,0.0,0.0,0.0,0.0,0.0,0.0,0.0,0.0,0.0,0.0,0.0,0.0,0.0,0.0,0.0,0.0,0.0,0.0,0.0,0.0,0.0,0.0,0.0,0.0,0.0,0.0,0.0,0.0,0.0,0.0,0.0,0.0,0.0,0.0,0.0,0.0,0.0,0.0,0.0,0.0,0.0,0.0,0.0,0.0,0.0,0.0,0.0,0.0,0.0,0.0,0.0,0.0,0.0,0.0,0.0,0.0,0.0,0.0,0.0,0.0,0.0,0.0,0.0,0.0,0.0,0.0,0.0,0.0,0.0,0.0,0.0,0.0,0.0,0.0,0.0,0.0,0.0,0.0,0.0,-2.3648,-2.5377,-2.8061,-2.9141,-2.853,-2.5605,-2.3164,0.0,0.0,0.0,0.0,0.0,0.0,0.0,0.0,0.0,0.0,0.0,0.0,0.0,0.0,0.0,0.0,0.0,0.0,0.0,0.0,0.0,0.0,0.0,0.0,0.0,0.0,0.0,0.0,0.0,0.0,0.0,0.0,0.0,0.0,0.0,0.0,0.0,0.0,0.0,0.0,0.0,0.0,0.0,0.0,0.0,0.0,0.0,0.0,0.0,0.0,0.0,0.0,0.0,0.0,0.0,0.0,0.0,0.0,0.0,0.0,0.0,0.0,0.0,0.0,0.0,0.0,0.0,0.0,0.0,0.0,0.0,0.0,0.0,0.0,0.0,0.0,0.0,0.0,0.0,0.0,0.0,0.0,0.0,0.0,0.0,0.0,0.0,0.0,0.0,0.0,0.0,0.0,0.0,0.0,0.0,0.0,0.0,0.0,0.0,0.0,0.0,0.0,0.0,0.0,0.0,0.0,0.0,0.0,-2.4454,-2.6367,-2.8867,-2.998,-2.9473,-2.7754,-2.4902,0.0,0.0,0.0,0.0,0.0,0.0,0.0,0.0,0.0,0.0,0.0,0.0,0.0,0.0,0.0,0.0,0.0,0.0,0.0,0.0,0.0,0.0,0.0,0.0,0.0,0.0,0.0,0.0,0.0,0.0,0.0,0.0,0.0,0.0,0.0,0.0,0.0,0.0,0.0,0.0,0.0,0.0,0.0,0.0,0.0,0.0,0.0,0.0,0.0,0.0,0.0,0.0,0.0,0.0,0.0,0.0,0.0,0.0,0.0,0.0,0.0,0.0,0.0,0.0,0.0,0.0,0.0,0.0,0.0,0.0,0.0,0.0,0.0,0.0,0.0,0.0,0.0,0.0,0.0,0.0,0.0,0.0,0.0,0.0,0.0,0.0,0.0,0.0,0.0,0.0,0.0,0.0,0.0,0.0,0.0,0.0,0.0,0.0,0.0,0.0,0.0,0.0,0.0,0.0,0.0,0.0,0.0,0.0,-2.5071,-2.6387,-2.8887,-2.9824,-2.9062,-2.6738,-2.4277,0.0,0.0,0.0,0.0,0.0,0.0,0.0,0.0,0.0,0.0,0.0,0.0,0.0,0.0,0.0,0.0,0.0,0.0,0.0,0.0,0.0,0.0,0.0,0.0,0.0,0.0,0.0,0.0,0.0,0.0,0.0,0.0,0.0,0.0,0.0,0.0,0.0,0.0,0.0,0.0,0.0,0.0,0.0,0.0,0.0,0.0,0.0,0.0,-1.9796,0.0,0.0,0.0,0.0,0.0,0.0,0.0,0.0,0.0,0.0,0.0,0.0,0.0,0.0,0.0,0.0,0.0,0.0,0.0,0.0,0.0,0.0,0.0,0.0,0.0,0.0,0.0,0.0,0.0,0.0,0.0,0.0,0.0,0.0,0.0,0.0,0.0,0.0,0.0,0.0,0.0,0.0,0.0,0.0,0.0,0.0,0.0,0.0,0.0,0.0,0.0,0.0,0.0,0.0,0.0,0.0,0.0,0.0,0.0,-2.5565,-2.7024,-2.8887,-2.9687,-2.918,-2.7129,-2.4687,0.0,0.0,0.0,0.0,0.0,0.0,0.0,0.0,0.0,0.0,0.0,0.0,0.0,0.0,0.0,0.0,0.0,0.0,0.0,0.0,0.0,0.0,0.0,0.0,0.0,0.0,0.0,0.0,0.0,0.0,0.0,0.0,0.0,0.0,0.0,0.0,0.0,0.0,0.0,0.0,0.0,0.0,0.0,0.0,0.0,0.0,0.0,0.0,0.0,0.0,0.0,0.0,0.0,0.0,0.0,0.0,0.0,0.0,0.0,0.0,0.0,0.0,0.0,0.0,0.0,0.0,0.0,0.0,0.0,0.0,0.0,0.0,0.0,0.0,0.0,0.0,0.0,0.0,0.0,0.0,0.0,0.0,0.0,0.0,0.0,0.0,0.0,0.0,0.0,0.0,0.0,0.0,0.0,0.0,0.0,0.0,0.0,0.0,0.0,0.0,0.0,0.0,0.0,0.0,0.0,0.0,0.0,-2.3638,-2.5723,-2.7474,-2.8711,-2.9372,-2.916,-2.7851,-2.543,-2.1953,0.0,0.0,0.0,0.0,0.0,0.0,0.0,0.0,0.0,0.0,0.0,0.0,0.0,0.0,0.0,0.0,0.0,0.0,0.0,0.0,0.0,0.0,0.0,0.0,0.0,0.0,0.0,0.0,0.0,0.0,0.0,0.0,0.0,0.0,0.0,0.0,0.0,0.0,-1.9129,-2.0335,0.0,0.0,0.0,0.0,0.0,0.0,0.0,0.0,-1.9748,0.0,0.0,0.0,0.0,0.0,0.0,0.0,0.0,0.0,0.0,0.0,0.0,0.0,0.0,0.0,0.0,0.0,0.0,0.0,0.0,0.0,0.0,0.0,0.0,0.0,0.0,0.0,0.0,0.0,0.0,0.0,0.0,0.0,0.0,0.0,0.0,0.0,0.0,0.0,0.0,0.0,0.0,0.0,0.0,0.0,0.0,0.0,0.0,0.0,0.0,0.0,0.0,0.0,0.0,0.0,0.0,-2.3223,-2.375,-2.4844,-2.6562,-2.7832,-2.8164,-2.7461,-2.7519,-2.5605,-2.1561,0.0,0.0,0.0,0.0,0.0,0.0,0.0,0.0,0.0,0.0,0.0,0.0,0.0,0.0,0.0,0.0,0.0,0.0,0.0,0.0,0.0,0.0,0.0,0.0,0.0,0.0,0.0,0.0,0.0,0.0,0.0,0.0,0.0,0.0,0.0,0.0,0.0,0.0,0.0,-2.1898,-2.2927,0.0,0.0,0.0,0.0,0.0,0.0,0.0,0.0,-1.9883,0.0,0.0,0.0,0.0,0.0,0.0,0.0,0.0,0.0,0.0,0.0,0.0,0.0,0.0,0.0,0.0,0.0,0.0,0.0,0.0,0.0,0.0,0.0,0.0,0.0,0.0,0.0,0.0,0.0,0.0,0.0,0.0,0.0,0.0,0.0,0.0,0.0,0.0,0.0,0.0,0.0,0.0,0.0,0.0,0.0,0.0,0.0,0.0,0.0,0.0,0.0,0.0,0.0,0.0,0.0,-2.236,-2.3089,-2.4136,-2.5528,-2.6343,-2.6266,-2.5117,-2.459,-2.3019,0.0,0.0,0.0,0.0,0.0,0.0,0.0,0.0,0.0,0.0,0.0,0.0,0.0,0.0,0.0,0.0,0.0,0.0,0.0,0.0,0.0,0.0,0.0,0.0,0.0,0.0,0.0,0.0,0.0,0.0,0.0,0.0,0.0,0.0,0.0,0.0,0.0,0.0,0.0,0.0,-2.1748,-2.2234,-2.2491,0.0,0.0,0.0,0.0,0.0,0.0,-1.9606,-1.9553,0.0,0.0,0.0,0.0,0.0,0.0,0.0,0.0,0.0,0.0,0.0,0.0,0.0,0.0,0.0,0.0,0.0,0.0,0.0,0.0,0.0,0.0,0.0,0.0,0.0,0.0,0.0,0.0,0.0,0.0,0.0,0.0,0.0,0.0,0.0,0.0,0.0,0.0,0.0,0.0,0.0,0.0,0.0,0.0,0.0,0.0,0.0,0.0,0.0,0.0,0.0,0.0,0.0,0.0,0.0,-2.0666,-2.1743,-2.291,-2.4099,-2.4554,-2.4233,-2.303,-2.19,-2.0536,0.0,0.0,0.0,0.0,0.0,0.0,0.0,0.0,0.0,0.0,0.0,0.0,0.0,0.0,0.0,0.0,0.0,0.0,0.0,0.0,0.0,0.0,0.0,0.0,0.0,0.0,0.0,0.0,0.0,0.0,0.0,0.0,0.0,0.0,0.0,0.0,0.0,0.0,0.0,0.0,0.0,-2.1825,-2.2678,-2.1906,0.0,0.0,0.0,0.0,-1.9267,-1.9959,0.0,0.0,0.0,0.0,0.0,0.0,0.0,0.0,0.0,0.0,0.0,0.0,0.0,0.0,0.0,0.0,0.0,0.0,0.0,0.0,0.0,0.0,0.0,0.0,0.0,0.0,0.0,0.0,0.0,0.0,0.0,0.0,0.0,0.0,0.0,0.0,0.0,0.0,0.0,0.0,0.0,0.0,0.0,0.0,0.0,0.0,0.0,0.0,0.0,0.0,0.0,0.0,0.0,0.0,0.0,0.0,-1.8841,-1.9349,-2.0311,-2.1826,-2.2345,-2.242,-2.2154,-2.1817,-2.0546,0.0,0.0,0.0,0.0,0.0,0.0,0.0,0.0,0.0,0.0,0.0,0.0,0.0,0.0,0.0,0.0,0.0,0.0,0.0,0.0,0.0,0.0,0.0,0.0,0.0,0.0,0.0,0.0,0.0,0.0,0.0,0.0,0.0,0.0,0.0,0.0,0.0,0.0,0.0,0.0,0.0,-2.3702,-2.2893,-2.2678,-2.2464,0.0,0.0,-2.1352,-2.165,-2.2403,0.0,0.0,0.0,0.0,0.0,0.0,0.0,0.0,0.0,0.0,0.0,0.0,0.0,0.0,0.0,0.0,0.0,0.0,0.0,0.0,0.0,0.0,0.0,0.0,0.0,0.0,0.0,0.0,0.0,0.0,0.0,0.0,0.0,0.0,0.0,0.0,0.0,0.0,0.0,0.0,0.0,0.0,0.0,0.0,0.0,0.0,0.0,0.0,0.0,0.0,0.0,0.0,0.0,0.0,0.0,-1.6757,-1.8487,-1.8873,-1.9599,-2.0704,-2.1213,-2.1062,-2.0203,-1.9209,-1.8085,0.0,0.0,0.0,0.0,0.0,0.0,0.0,0.0,0.0,0.0,0.0,0.0,0.0,0.0,0.0,0.0,0.0,0.0,0.0,0.0,0.0,0.0,0.0,0.0,0.0,0.0,0.0,0.0,0.0,0.0,0.0,0.0,0.0,0.0,0.0,0.0,0.0,0.0,0.0,0.0,0.0,0.0,-2.304,-2.3217,0.0,0.0,0.0,-2.2016,-2.1999,0.0,0.0,0.0,0.0,0.0,0.0,0.0,0.0,0.0,0.0,0.0,0.0,0.0,0.0,0.0,0.0,0.0,0.0,0.0,0.0,0.0,0.0,0.0,0.0,0.0,0.0,0.0,0.0,0.0,0.0,0.0,0.0,0.0,0.0,0.0,0.0,0.0,0.0,0.0,0.0,0.0,0.0,0.0,0.0,0.0,0.0,0.0,0.0,0.0,0.0,0.0,0.0,0.0,0.0,0.0,0.0,0.0,-1.7943,-1.8393,-1.8926,-1.9698,-2.0093,-1.9755,-1.8707,-1.7133,0.0,0.0,0.0,0.0,0.0,0.0,0.0,0.0,0.0,0.0,0.0,0.0,0.0,0.0,0.0,0.0,0.0,0.0,0.0,0.0,0.0,0.0,0.0,0.0,0.0,0.0,0.0,-1.5191,0.0,0.0,0.0,0.0,0.0,0.0,0.0,0.0,0.0,0.0,0.0,0.0,0.0,0.0,-2.2668,-2.2882,-2.3446,-2.3732,0.0,0.0,-2.2702,-2.2252,-2.2543,-2.2058,0.0,0.0,0.0,0.0,0.0,0.0,0.0,0.0,0.0,0.0,0.0,0.0,0.0,0.0,0.0,0.0,0.0,0.0,0.0,0.0,0.0,0.0,0.0,0.0,0.0,0.0,0.0,0.0,0.0,0.0,0.0,0.0,0.0,0.0,0.0,0.0,0.0,0.0,0.0,0.0,0.0,0.0,0.0,0.0,0.0,0.0,0.0,0.0,0.0,0.0,0.0,0.0,0.0,0.0,0.0,-1.6536,-1.7126,-1.7757,-1.8405,-1.8449,-1.8449,-1.8321,-1.6892,-1.5691,0.0,0.0,0.0,0.0,0.0,0.0,0.0,0.0,0.0,0.0,0.0,0.0,0.0,0.0,0.0,0.0,0.0,0.0,0.0,0.0,0.0,0.0,0.0,0.0,0.0,0.0,0.0,0.0,0.0,0.0,0.0,0.0,0.0,0.0,0.0,0.0,0.0,0.0,0.0,0.0,0.0,-2.2621,-2.2212,-2.3236,-2.4028,0.0,0.0,-2.3664,-2.3036,-2.4269,-2.4174,-2.0715,0.0,0.0,0.0,0.0,0.0,0.0,0.0,0.0,0.0,0.0,0.0,0.0,0.0,0.0,0.0,0.0,0.0,0.0,0.0,0.0,0.0,0.0,0.0,0.0,0.0,0.0,0.0,0.0,0.0,0.0,0.0,0.0,0.0,0.0,0.0,0.0,0.0,0.0,0.0,0.0,0.0,0.0,0.0,0.0,0.0,0.0,0.0,0.0,0.0,0.0,0.0,0.0,0.0,-1.5447,-1.6382,-1.6875,-1.7505,-1.8337,-1.838,-1.838,-1.838,-1.7074,-1.5984,0.0,0.0,0.0,0.0,0.0,0.0,0.0,0.0,0.0,0.0,0.0,0.0,0.0,0.0,0.0,0.0,0.0,0.0,0.0,0.0,0.0,0.0,0.0,0.0,0.0,0.0,0.0,0.0,-1.4363,-1.4647,-1.5343,0.0,0.0,0.0,0.0,0.0,0.0,0.0,0.0,0.0,0.0,-2.2438,-2.2606,-2.3518,0.0,0.0,-2.4383,-2.4155,-2.4049,-2.3687,-2.2859,-2.1088,-2.0062,0.0,0.0,0.0,0.0,0.0,0.0,0.0,0.0,0.0,0.0,0.0,0.0,0.0,0.0,0.0,0.0,0.0,0.0,0.0,0.0,0.0,0.0,0.0,0.0,0.0,0.0,0.0,0.0,0.0,0.0,0.0,0.0,0.0,0.0,0.0,0.0,0.0,0.0,0.0,0.0,0.0,0.0,0.0,0.0,0.0,0.0,0.0,0.0,0.0,0.0,0.0,0.0,-1.5604,-1.6529,-1.6964,-1.7532,-1.8342,-1.8422,-1.838,-1.8254,-1.7128,-1.6007,0.0,0.0,0.0,0.0,0.0,0.0,0.0,0.0,0.0,0.0,0.0,0.0,0.0,0.0,0.0,0.0,0.0,0.0,0.0,0.0,0.0,0.0,0.0,0.0,0.0,0.0,0.0,0.0,-1.4093,-1.4471,-1.5013,0.0,0.0,0.0,0.0,0.0,0.0,0.0,0.0,0.0,0.0,-2.2309,-2.3005,-2.3834,-2.4522,-2.4835,-2.4649,-2.4422,-2.4402,-2.3369,-2.226,-2.1304,0.0,0.0,0.0,0.0,0.0,0.0,0.0,0.0,0.0,0.0,0.0,0.0,0.0,0.0,0.0,0.0,0.0,0.0,0.0,0.0,0.0,0.0,0.0,0.0,0.0,0.0,0.0,0.0,0.0,0.0,-1.4963,0.0,0.0,0.0,0.0,0.0,0.0,0.0,0.0,0.0,0.0,0.0,0.0,0.0,0.0,0.0,0.0,0.0,0.0,0.0,0.0,0.0,0.0,-1.5961,-1.6842,-1.7274,-1.7742,-1.8342,-1.837,-1.823,-1.7988,-1.6884,-1.5741,-1.4544,0.0,0.0,0.0,0.0,0.0,0.0,0.0,0.0,0.0,0.0,0.0,0.0,0.0,0.0,0.0,0.0,0.0,0.0,0.0,0.0,0.0,0.0,0.0,0.0,0.0,0.0,-1.3425,-1.3629,-1.381,0.0,0.0,0.0,0.0,0.0,0.0,0.0,0.0,0.0,0.0,-2.0703,-2.2216,-2.3121,-2.3959,-2.451,-2.4794,-2.4745,-2.4421,-2.3814,-2.3634,-2.3081,0.0,0.0,0.0,0.0,0.0,0.0,0.0,0.0,0.0,0.0,0.0,0.0,0.0,0.0,0.0,0.0,0.0,0.0,0.0,0.0,0.0,0.0,0.0,0.0,0.0,0.0,0.0,-1.4271,-1.4168,0.0,0.0,0.0,0.0,0.0,0.0,0.0,0.0,0.0,0.0,0.0,-1.5531,-1.6349,0.0,0.0,0.0,0.0,0.0,0.0,0.0,0.0,0.0,0.0,0.0,0.0,-1.5739,-1.64,-1.6799,-1.7248,-1.7818,-1.7845,-1.7804,-1.7748,-1.6968,-1.5907,-1.4545,0.0,0.0,0.0,0.0,0.0,0.0,0.0,0.0,0.0,0.0,0.0,0.0,0.0,0.0,0.0,0.0,0.0,0.0,0.0,0.0,0.0,0.0,0.0,0.0,0.0,-1.2563,0.0,0.0,0.0,0.0,0.0,0.0,0.0,0.0,0.0,0.0,0.0,-1.8988,-1.9272,-2.0226,-2.0996,-2.1179,-2.2038,-2.2736,0.0,0.0,0.0,0.0,0.0,0.0,0.0,0.0,0.0,0.0,0.0,0.0,0.0,0.0,-2.1813,-1.9668,-1.8649,-1.7985,-1.7557,0.0,0.0,0.0,0.0,0.0,0.0,0.0,0.0,0.0,0.0,0.0,0.0,0.0,0.0,-1.4058,0.0,-1.3462,0.0,0.0,0.0,0.0,0.0,0.0,0.0,0.0,-1.5809,-1.6053,-1.5488,-1.6715,-1.6746,0.0,-1.6549,-1.6281,0.0,0.0,0.0,0.0,0.0,0.0,0.0,0.0,-1.5836,-1.6327,-1.6715,-1.7101,-1.7555,-1.7582,-1.7582,-1.7569,-1.682,-1.5912,-1.4856,-1.3694,-1.2973,0.0,0.0,0.0,0.0,0.0,0.0,0.0,0.0,0.0,0.0,0.0,0.0,0.0,0.0,0.0,0.0,0.0,0.0,0.0,0.0,0.0,0.0,0.0,-1.2612,0.0,0.0,0.0,0.0,0.0,0.0,0.0,0.0,0.0,-1.7839,-1.8282,-1.8712,-1.9082,-1.975,-2.0311,-2.0552,0.0,0.0,0.0,0.0,0.0,0.0,0.0,-2.1363,-2.1412,-2.0814,-2.0138,-1.9513,-2.0512,-2.1372,-2.1238,0.0,0.0,-2.0492,-1.9583,-1.8803,-1.8406,-1.8338,-1.8318,-1.8318,-1.85,-1.8619,0.0,0.0,0.0,0.0,0.0,0.0,0.0,0.0,-1.4724,-1.4449,0.0,-1.3583,0.0,0.0,0.0,0.0,0.0,-1.438,0.0,0.0,-1.55,-1.5773,-1.568,-1.6312,-1.6785,-1.7009,-1.7545,-1.6968,-1.5439,-1.5136,0.0,0.0,0.0,0.0,0.0,0.0,-1.6327,-1.6592,-1.7012,-1.734,-1.7569,-1.7582,-1.7582,-1.7555,-1.6486,-1.5752,-1.5404,-1.4279,-1.364,-1.36,-1.3093,0.0,0.0,0.0,0.0,0.0,0.0,0.0,0.0,0.0,0.0,0.0,0.0,0.0,0.0,0.0,0.0,0.0,0.0,0.0,0.0,-1.3039,0.0,0.0,0.0,0.0,0.0,0.0,0.0,0.0,0.0,0.0,-1.7247,-1.7568,-1.7966,-1.8592,0.0,0.0,0.0,0.0,-2.1285,-2.1574,-2.1245,-2.1329,-2.2477,-2.2211,-2.1979,-2.2249,0.0,0.0,-2.0148,-2.0621,-2.1023,-2.0668,-2.041,-2.0637,-2.2296,-2.1527,-2.0645,-2.0248,-1.9625,-1.9301,-1.9284,-1.929,-1.9331,-1.3408,0.0,0.0,0.0,0.0,-1.2882,-1.3203,-1.3924,-1.3343,-1.2962,-1.2724,-1.2194,0.0,0.0,0.0,0.0,0.0,0.0,-1.4176,-1.368,-1.4726,-1.4968,-1.4539,-1.5643,-1.5739,-1.4985,-1.5964,-1.5906,-1.5,-1.5624,-1.5355,-1.4056,0.0,0.0,0.0,0.0,-1.6169,-1.6666,-1.7005,-1.734,-1.7582,-1.7582,-1.7582,-1.7582,-1.7061,-1.654,-1.608,-1.5297,-1.4603,-1.3988,-1.3601,0.0,0.0,0.0,0.0,0.0,0.0,0.0,0.0,0.0,0.0,0.0,0.0,0.0,0.0,0.0,0.0,0.0,0.0,0.0,-1.308,-1.3347,-1.348,0.0,0.0,0.0,0.0,0.0,0.0,0.0,0.0,0.0,-1.7049,-1.7612,-1.7974,0.0,0.0,-1.885,-1.8683,-1.9203,-1.9699,-1.9963,-2.0083,0.0,-2.1457,-2.1506,-2.1362,-2.1206,-2.0734,-2.0201,-1.9885,-2.0248,-2.053,-2.0411,-2.0281,-2.0442,-2.0811,-2.0106,-1.931,-1.899,-1.9131,-1.9332,-1.9376,-1.9699,-1.9909,-1.4614,-1.3823,-1.3185,-1.3076,-1.3325,-1.3001,-1.3187,-1.3597,-1.3051,-1.2699,-1.254,-1.1946,-1.1791,-1.2027,-1.1662,0.0,0.0,0.0,-1.3314,-1.2949,-1.3737,-1.3891,-1.3689,-1.4697,-1.49,-1.4337,-1.5261,-1.5202,-1.4232,-1.4896,-1.4744,-1.3943,0.0,0.0,-1.5925,-1.6206,-1.6526,-1.6874,-1.7233,-1.746,-1.7635,-1.7582,-1.7582,-1.7635,-1.7181,-1.686,-1.667,-1.5832,-1.515,-1.4629,-1.4095,-1.364,0.0,0.0,0.0,0.0,0.0,0.0,0.0,0.0,0.0,0.0,0.0,-1.2971,-1.2971,0.0,0.0,0.0,-1.3494,-1.3614,-1.3721,-1.3881,0.0,0.0,0.0,0.0,0.0,0.0,0.0,-1.5725,-1.6257,-1.6828,-1.736,-1.786,-1.8171,-1.8155,-1.8358,-1.8427,-1.8143,0.0,-1.8917,-1.8972,-1.9139,-1.9619,-2.0589,-2.0611,-2.0476,-2.0555,-2.0113,-1.9794,-1.9808,-1.9878,-1.9906,-1.9906,-1.9906,-1.985,-1.9736,-1.9177,-1.8826,-1.8886,-1.9048,-1.9247,-1.9318,-1.9556,-1.9681,-1.5484,-1.4949,-1.3661,-1.3224,-1.3403,-1.3619,-1.3696,-1.382,-1.3443,-1.3317,-1.3276,-1.2473,-1.2114,-1.2029,-1.174,0.0,-1.193,-1.2062,-1.2304,-1.2683,-1.2661,-1.272,-1.2976,-1.3574,-1.4095,-1.4362,-1.4967,-1.4642,-1.3576,-1.3483,-1.3731,-1.4251,-1.6126,-1.6949,-1.6807,-1.7099,-1.7246,-1.7273,-1.7475,-1.7622,-1.7622,-1.7622,-1.7609,-1.7582,-1.7061,-1.6901,-1.7152,-1.6086,-1.5484,-1.5404,-1.4643,-1.4055,-1.372,0.0,0.0,0.0,0.0,0.0,0.0,0.0,0.0,0.0,0.0,0.0,0.0,0.0,0.0,0.0,-1.3959,0.0,-1.4515,-1.4542,0.0,0.0,0.0,-1.5391,-1.5417,-1.5945,-1.6264,-1.629,0.0,0.0,-1.7862,-1.8194,-1.8397,-1.8401,-1.8482,-1.8632,-1.8824,-1.8874,-1.8794,-1.8642,-1.8613,-1.8946,-1.9941,-1.9808,-1.9736,-2.013,-1.9975,-1.9765,-1.9737,-1.9556,-1.9348,-1.9389,-1.932,-1.9237,-1.9001,-1.9001,-1.9125,-1.964,-1.9319,-1.8958,-1.9222,-1.9167,-1.9097,-1.5283,-1.5021,-1.4405,-1.4281,-1.446,-1.416,-1.4185,-1.4314,-1.3721,-1.3446,-1.337,-1.277,-1.2285,-1.1848,-1.177,-1.1863,-1.2088,-1.2049,-1.2241,-1.2339,-1.2303,-1.2206,-1.2122,-1.2294,-1.2423,-1.2577,-1.2658,-1.3118,-1.3799,-1.3973,-1.4175,-1.454,-1.5247,-1.6168,-1.7369,-1.7448,-1.7595,-1.7782,-1.7849,-1.7889,-1.7889,-1.7876,-1.7822,-1.7595,-1.7448,-1.7353,-1.7192,-1.666,-1.6192,-1.5704,-1.5311,-1.495,-1.47,-1.416,0.0,0.0,0.0,0.0,0.0,0.0,0.0,0.0,0.0,-1.3568,-1.352,0.0,-1.4482,0.0,-1.4599,-1.4839,-1.4892,-1.4918,0.0,0.0,-1.5297,-1.5409,-1.5437,-1.5742,-1.6085,-1.6304,-1.6574,-1.7011,-1.7576,-1.7704,-1.782,-1.806,-1.8536,-1.8747,-1.8624,-1.88,-1.8867,-1.8838,-1.9169,-1.9603,-1.9804,-1.9816,-1.9726,-1.991,-1.9696,-1.9496,-1.9483,-1.9428,-1.9374,-1.9374,-1.9374,-1.9317,-1.9317,-1.9273,-1.9344,-1.9456,-1.9185,-1.8886,-1.8967,-1.9145,-1.9215,-1.5459,-1.5052,-1.4882,-1.4813,-1.4807,-1.4405,-1.4312,-1.4381,-1.3978,-1.3777,-1.3675,-1.3227,-1.2807,-1.2433,-1.2366,-1.2379,-1.2461,-1.2538,-1.2508,-1.2576,-1.2359,-1.221,-1.2121,-1.1925,-1.1821,-1.1872,-1.1803,-1.2134,-1.2772,-1.3006,-1.3515,-1.4252,-1.4452,-1.5295,-1.6777,-1.6906,-1.7363,-1.8147,-1.8071,-1.8073,-1.8237,-1.8062,-1.7916,-1.7782,-1.7423,-1.7159,-1.7013,-1.6489,-1.6022,-1.566,-1.5373,-1.5086,-1.4813,-1.4417,-1.4263,0.0,0.0,0.0,0.0,0.0,0.0,0.0,0.0,0.0,0.0,0.0,-1.4826,-1.4871,-1.5076,-1.5178,-1.5187,-1.5152,-1.5267,-1.557,-1.5821,-1.6036,-1.6133,-1.6401,-1.6658,-1.681,-1.6962,-1.7216,-1.7659,-1.7723,-1.7824,-1.8148,-1.8474,-1.8651,-1.8691,-1.8783,-1.8876,-1.8889,-1.931,-1.9649,-1.9649,-1.9649,-1.9649,-1.9591,-1.9475,-1.943,-1.943,-1.943,-1.943,-1.943,-1.943,-1.943,-1.943,-1.9243,-1.9185,-1.9158,-1.8879,-1.8787,-1.9061,-1.9145,-1.9122,-1.575,-1.5242,-1.5201,-1.5011,-1.4719,-1.4441,-1.4326,-1.4319,-1.4183,-1.4109,-1.4048,-1.3661,-1.3403,-1.3254,-1.3125,-1.3064,-1.3044,-1.3104,-1.3003,-1.2969,-1.2691,-1.2542,-1.2488,-1.2101,-1.1884,-1.1823,-1.1708,-1.1565,-1.1416,-1.1608,-1.2338,-1.3495,-1.3652,-1.4345,-1.5638,-1.5889,-1.6713,-1.8212,-1.8025,-1.8134,-1.8595,-1.826,-1.802,-1.7927,-1.7186,-1.6769,-1.6742,-1.6009,-1.5579,-1.5541,-1.5225,-1.4984,-1.4782,-1.4497,-1.4338,0.0,-1.4185,0.0,0.0,0.0,0.0,0.0,0.0,0.0,0.0,-1.4566,-1.4912,-1.5442,-1.5481,-1.5506,-1.5494,-1.5532,-1.5657,-1.5909,-1.638,-1.6771,-1.7012,-1.7254,-1.7434,-1.7471,-1.7471,-1.7572,-1.7837,-1.7944,-1.8045,-1.8177,-1.8215,-1.8377,-1.8693,-1.8797,-1.8797,-1.8823,-1.9068,-1.9243,-1.9243,-1.9243,-1.9243,-1.9243,-1.9243,-1.9243,-1.9243,-1.9243,-1.9256,-1.9256,-1.9243,-1.9256,-1.9243,-1.901,-1.8881,-1.8823,-1.8635,-1.8577,-1.9029,-1.8999,-1.8951,-1.5872,-1.5533,-1.5282,-1.5011,-1.4726,-1.455,-1.4475,-1.4468,-1.4441,-1.4292,-1.4068,-1.398,-1.3858,-1.3715,-1.3688,-1.3614,-1.3498,-1.3376,-1.3254,-1.3125,-1.2956,-1.2739,-1.2501,-1.2413,-1.2182,-1.1843,-1.1803,-1.1714,-1.1572,-1.1776,-1.1824,-1.1736,-1.2285,-1.3184,-1.4394,0.0,0.0,0.0,-1.747,-1.805,-1.9076,-1.8616,-1.8084,-1.758,-1.7248,0.0,-1.6406,-1.6215,-1.6062,-1.5833,-1.5566,0.0,0.0,0.0,0.0,0.0,0.0,0.0,0.0,0.0,0.0,0.0,-1.5183,-1.5193,-1.4874,-1.5124,-1.5418,-1.5768,-1.6016,-1.6122,-1.6118,-1.6296,-1.6466,-1.652,-1.6624,-1.6697,-1.6794,-1.6818,-1.6948,-1.7155,-1.7191,-1.7277,-1.7579,-1.7582,-1.7594,-1.7701,-1.7655,-1.7843,-1.8135,-1.8369,-1.8473,-1.8532,-1.8603,-1.8603,-1.859,-1.8603,-1.8661,-1.8603,-1.8603,-1.859,-1.8603,-1.859,-1.859,-1.859,-1.859,-1.8577,-1.8577,-1.8532,-1.8448,-1.8473,-1.8402,-1.8415,-1.8544,-1.8551,-1.8461,-1.6083,0.0,-1.5499,-1.5235,0.0,-1.4875,-1.4801,-1.4719,-1.4502,-1.4319,-1.4183,-1.4102,-1.4027,-1.3946,-1.3871,-1.3804,-1.3729,-1.358,-1.3471,-1.3383,-1.3166,-1.2942,-1.2725,-1.2569,-1.2345,-1.206,-1.1979,-1.1904,-1.183,-1.1825,-1.1851,-1.1775,-1.1979,-1.262,-1.3557,-1.3679,-1.4734,-1.6754,-1.6574,-1.6891,-1.7682,-1.7924,-1.776,-1.7195,-1.7391,0.0,0.0,0.0,0.0,0.0,0.0,0.0,0.0,-1.5873,0.0,-1.5851,-1.5695,-1.5698,-1.5819,-1.5983,-1.6006,-1.5851,-1.5992,-1.5919,-1.5492,-1.5566,-1.5823,-1.6258,-1.6441,-1.6509,-1.6477,-1.6622,-1.6754,-1.6875,-1.6887,-1.6936,-1.7068,-1.7092,-1.7141,-1.7249,-1.7286,-1.7346,-1.7467,-1.7479,-1.7479,-1.7479,-1.7479,-1.755,-1.7726,-1.8018,-1.8252,-1.8357,-1.8252,-1.8252,-1.8369,-1.8415,-1.8415,-1.8415,-1.8415,-1.8415,-1.8415,-1.83,-1.8211,-1.8211,-1.811,-1.8021,-1.8008,-1.7894,-1.7837,-1.778,-1.7665,-1.7551,-1.7576,-1.7993,-1.8339,-1.6259,-1.5845,-1.5723,-1.5499,-1.5221,-1.5194,-1.5086,-1.4903,0.0,0.0,0.0,-1.417,-1.4109,-1.4102,-1.398,-1.3905,-1.3871,-1.3763,-1.3682,-1.362,-1.337,-1.3166,-1.299,-1.2718,-1.2494,-1.2325,-1.2176,-1.2088,-1.206,-1.1932,-1.2017,-1.229,-1.2129,-1.2421,-1.3013,-1.3101,-1.3981,-1.5646,-1.5577,-1.5773,-1.6325,-1.7154,-1.7385,-1.6889,-1.7533,-1.7471,-1.6667,-1.6515,-1.638,-1.6284,-1.6284,-1.6308,-1.6356,-1.6368,-1.6296,-1.6127,-1.6151,-1.6259,-1.6439,-1.6439,-1.6513,-1.6685,-1.6673,-1.6513,-1.6066,-1.603,-1.6223,-1.667,-1.6742,-1.6767,-1.6767,-1.6815,-1.6923,-1.7141,-1.7165,-1.7249,-1.7443,-1.7479,-1.7467,-1.7479,-1.7467,-1.7479,-1.7479,-1.7479,-1.7479,-1.7479,-1.7479,-1.7479,-1.7537,-1.7726,-1.796,-1.8135,-1.8018,-1.796,-1.8181,-1.8181,-1.824,-1.8181,-1.8181,-1.824,-1.8215,-1.8063,-1.7925,-1.7905,-1.7723,-1.7648,-1.7597,-1.7478,-1.7278,-1.7278,-1.7065,-1.6839,-1.6932,-1.758,-1.8068,-1.6259,-1.5852,-1.5832,-1.5649,-1.5371,-1.5235,-1.5025,-1.476,-1.4563,-1.4414,-1.4299,-1.4278,-1.4272,-1.4265,-1.4245,-1.4163,-1.4041,-1.4021,-1.3871,-1.3634,-1.358,-1.3417,-1.3139,-1.2976,-1.2745,-1.2474,-1.2325,-1.2189,-1.2074,-1.2115,-1.2101,-1.2175,-1.2356,-1.2633,-1.2997,-1.3106,-1.3269,-1.3584,-1.4533,-1.5724,-1.7268,-1.7226,-1.7179,-1.7261,-1.7371,-1.7114,-1.6322,-1.675,-1.6767,-1.6332,-1.6296,-1.6392,-1.6622,-1.6602,-1.673,-1.6911,-1.7129,-1.7165,-1.7004,-1.698,-1.6895,-1.6726,-1.6682,-1.6658,-1.6598,-1.6585,-1.6622,-1.6706,-1.6911,-1.7032,-1.7044,-1.7225,-1.7358,-1.7406,-1.7418,-1.7443,-1.7479,-1.7479,-1.7479,-1.7479,-1.7479,-1.7479,-1.7479,-1.7479,-1.7479,-1.7479,-1.7479,-1.7479,-1.7479,-1.755,-1.755,-1.7608,-1.7608,-1.7608,-1.7655,-1.7596,-1.7655,-1.7596,-1.7655,-1.7713,-1.7713,-1.7652,-1.7603,-1.7582,-1.7542,-1.7472,-1.7472,-1.7487,-1.7402,-1.7365,-1.7295,-1.7274,-1.7249,-1.7475,-1.7484,-1.6361,-1.609,-1.5927,-1.573,-1.5527,-1.5371,-1.5181,-1.497,-1.4821,-1.4631,-1.4414,-1.4333,-1.4251,-1.417,-1.4089,-1.3973,-1.3831,-1.3831,-1.3715,-1.3519,-1.3587,-1.3471,-1.3186,-1.3105,-1.2915,-1.2637,-1.2562,-1.2447,-1.2305,-1.2223,-1.2182,-1.2258,-1.2475,-1.2621,-1.2764,-1.3064,-1.3195,-1.3208,-1.3814,-1.4517,-1.5519,-1.6095,-1.6389,-1.6562,-1.7139,-1.7291,-1.6807,-1.7078,-1.709,-1.6868,-1.6844,-1.6903,-1.702,-1.7032,-1.7138,-1.7494,-1.7601,-1.7685,-1.7756,-1.7744,-1.7696,-1.7575,-1.7563,-1.7563,-1.7563,-1.7165,-1.6972,-1.7117,-1.7237,-1.7298,-1.7298,-1.7406,-1.7479,-1.7479,-1.7479,-1.7479,-1.7479,-1.7479,-1.7479,-1.7479,-1.7479,-1.7479,-1.7479,-1.7479,-1.7479,-1.7479,-1.7479,-1.7479,-1.7479,-1.7479,-1.7479,-1.7479,-1.7479,-1.7479,-1.7479,-1.7479,-1.7479,-1.7479,-1.7479,-1.7479,-1.7467,-1.7394,-1.7286,-1.7249,-1.7177,-1.7068,-1.7068,-1.7056,-1.7056,-1.7056,-1.7056,-1.7056,-1.7056,-1.7056,-1.7008,-1.6415,-1.6232,-1.6001,-1.5818,-1.5676,-1.5527,-1.5377,-1.5221,-1.5045,-1.4835,-1.4611,-1.4462,-1.4319,-1.4163,-1.4041,-1.3919,-1.3783,-1.3709,-1.3593,-1.3471,-1.3505,-1.3383,-1.3139,-1.3091,-1.2949,-1.2752,-1.2732,-1.2651,-1.2508,-1.2427,-1.2372,-1.2325,-1.2484,-1.2564,-1.2564,-1.2902,-1.3126,-1.3153,-1.3397,-1.3669,-1.4053,-1.5106,-1.5747,-1.5984,-1.6926,-1.7401,-1.7122,-1.7213,-1.7292,-1.7179,-1.7241,-1.7302,-1.7302,-1.7302,-1.7426,-1.7661,-1.7661,-1.7845,-1.8165,-1.8287,-1.8349,-1.841,-1.8472,-1.8533,-1.8484,-1.797,-1.7618,-1.7683,-1.7672,-1.7672,-1.7672,-1.7684,-1.7672,-1.766,-1.766,-1.7696,-1.7672,-1.766,-1.7672,-1.766,-1.7612,-1.7575,-1.7563,-1.7515,-1.7479,-1.7479,-1.7479,-1.7479,-1.7479,-1.7479,-1.7479,-1.7479,-1.7479,-1.7479,-1.7479,-1.7479,-1.7479,-1.7479,-1.7479,-1.7479,-1.7455,-1.731,-1.7201,-1.7201,-1.7056,-1.6984,-1.6911,-1.6911,-1.6948,-1.6984,-1.7008,-1.6948,-1.6972,-1.6972,-1.6887,-1.6361,-1.6117,-1.6069,-1.5974,-1.5818,-1.5683,-1.5533,-1.5364,-1.5099,-1.4957,-1.4903,-1.4767,-1.4611,-1.4482,-1.4434,-1.4333,-1.4177,-1.3939,-1.3658,-1.358,-1.3336,-1.3132,-1.301,-1.2854,-1.2759,-1.2739,-1.2745,-1.2678,-1.2542,-1.263,-1.2623,-1.2481,-1.2415,-1.236,-1.234,-1.2592,-1.265,-1.2688,-1.3407,-1.3954,-1.4362,-1.5119,-1.5643,-1.5963,-1.6752,-1.6946,-1.6517,-1.7076,-1.7188,-1.6841,-1.7078,-1.7325,-1.7263,-1.7314,-1.7314,-1.7325,-1.7325,-1.7488,-1.7857,-1.8153,-1.8435,-1.8717,-1.9012,-1.9134,-1.9134,-1.9094,-1.8849,-1.8349,-1.8239,-1.824,-1.8215,-1.8191,-1.8228,-1.8204,-1.8167,-1.8215,-1.8179,-1.8215,-1.8227,-1.8215,-1.7974,-1.7901,-1.7877,-1.7672,-1.7527,-1.7563,-1.7587,-1.7587,-1.7575,-1.7575,-1.7563,-1.7527,-1.7503,-1.7503,-1.7491,-1.7479,-1.7479,-1.7479,-1.7479,-1.7479,-1.7467,-1.7467,-1.7443,-1.737,-1.7394,-1.7334,-1.7346,-1.7406,-1.737,-1.7298,-1.7322,-1.7382,-1.7406,-1.737,-1.7249,-1.6449,-1.6327,-1.6151,-1.6049,-1.5974,-1.5832,-1.5683,-1.5527,-1.5323,-1.5181,-1.5092,-1.5025,-1.4774,-1.4387,-1.4292,-1.4129,-1.3905,-1.3858,-1.3763,-1.3634,-1.358,-1.3492,-1.3349,-1.32,-1.3085,-1.2996,-1.299,-1.2915,-1.2807,-1.284,-1.2834,-1.2773,-1.2712,-1.2684,-1.2756,-1.269,-1.272,-1.2858,-1.3151,-1.3511,-1.4026,-1.4568,-1.5093,-1.5528,-1.5962,-1.6165,-1.6178,-1.6624,-1.6807,-1.6629,-1.6815,-1.688,-1.688,-1.688,-1.6945,-1.7217,-1.7608,-1.7868,-1.8052,-1.8376,-1.8635,-1.8777,-1.8894,-1.9023,-1.9023,-1.9023,-1.8894,-1.8706,-1.8787,-1.8888,-1.8852,-1.8717,-1.8594,-1.8594,-1.841,-1.83,-1.83,-1.83,-1.83,-1.8287,-1.8203,-1.8118,-1.8106,-1.8034,-1.7962,-1.7962,-1.7962,-1.7937,-1.795,-1.7962,-1.7962,-1.7962,-1.7962,-1.7805,-1.7587,-1.7479,-1.7491,-1.7491,-1.7479,-1.7479,-1.7503,-1.7479,-1.7479,-1.7491,-1.7527,-1.7527,-1.7455,-1.7479,-1.7479,-1.7503,-1.7491,-1.7479,-1.7479,-1.7479,-1.7358,-1.6497,-1.6429,-1.6185,-1.6083,-1.6069,-1.6018,-1.5771,-1.5628,-1.5479,-1.5323,-1.5187,-1.5181,-1.493,-1.4509,-1.4367,-1.415,-1.3899,-1.3892,-1.3831,-1.3695,-1.3715,-1.3641,-1.3498,-1.3397,-1.3261,-1.3139,-1.3146,-1.3119,-1.3024,-1.3056,-1.3043,-1.3043,-1.3043,-1.3043,-1.2949,-1.2807,-1.2756,-1.2951,-1.2957,-1.3188,-1.3528,-1.3961,-1.4466,-1.5141,-1.542,-1.5658,-1.58,-1.6146,-1.6294,-1.6255,-1.6313,-1.6362,-1.6302,-1.6302,-1.637,-1.6709,-1.725,-1.7655,-1.7723,-1.8194,-1.853,-1.8597,-1.8799,-1.8933,-1.8933,-1.9,-1.9067,-1.9119,-1.9285,-1.9412,-1.9162,-1.9162,-1.9088,-1.9013,-1.8877,-1.8827,-1.884,-1.8827,-1.884,-1.8753,-1.8828,-1.8668,-1.8545,-1.8508,-1.8435,-1.8435,-1.8337,-1.83,-1.83,-1.8275,-1.8275,-1.83,-1.8287,-1.8131,-1.7781,-1.7744,-1.7708,-1.7708,-1.7744,-1.7756,-1.7708,-1.7708,-1.7708,-1.7865,-1.7744,-1.772,-1.7805,-1.7768,-1.7696,-1.7708,-1.7708,-1.7708,-1.7781,-1.772,-1.772,-1.6442,-1.6307,-1.6151,-1.6083,-1.6069,-1.5927,-1.5778,-1.5628,-1.5479,-1.5323,-1.5194,-1.5174,-1.5086,-1.4923,-1.4889,-1.4753,-1.4448,-1.4183,-1.4,-1.3844,-1.3587,-1.3356,-1.3193,-1.318,-1.3125,-1.3064,-1.3146,-1.318,-1.3159,-1.3037,-1.3043,-1.2969,-1.307,-1.2976,-1.2963,-1.284,-1.2732,-1.2804,-1.2979,-1.3041,-1.3051,-1.3393,-1.4046,-1.4925,-1.5341,-1.543,-1.5371,-1.5642,-1.5622,-1.525,-1.5589,-1.5643,-1.5602,-1.5593,-1.5611,-1.567,-1.5982,-1.6322,-1.6682,-1.7256,-1.7787,-1.8092,-1.8631,-1.9101,-1.8936,-1.9194,-1.9329,-1.9626,-1.948,-1.9357,-1.9012,-1.9362,-1.9653,-1.9507,-1.9737,-1.9814,-1.989,-1.9686,-2.0017,-1.984,-1.9625,-1.9437,-1.9259,-1.8962,-1.8828,-1.8779,-1.8545,-1.8396,-1.8395,-1.8334,-1.8358,-1.8334,-1.8322,-1.83,-1.8263,-1.8131,-1.8167,-1.8143,-1.8082,-1.8191,-1.8239,-1.8263,-1.8239,-1.8215,-1.8155,-1.8143,-1.8227,-1.8227,-1.8179,-1.8155,-1.8131,-1.8143,-1.8058,-1.8191,-1.8167,-1.6381,-1.6164,-1.6103,-1.6083,-1.6076,-1.6022,-1.5859,-1.5628,-1.5479,-1.5323,-1.5181,-1.5092,-1.5065,-1.5106,-1.5106,-1.4943,-1.4652,-1.4448,-1.4319,-1.4238,-1.3966,-1.3804,-1.3736,-1.3559,-1.3444,-1.3397,-1.3342,-1.3315,-1.3315,-1.3261,-1.3247,-1.3241,-1.3241,-1.3241,-1.3214,-1.3091,-1.3017,-1.3003,-1.3027,-1.304,-1.312,-1.3268,-1.3652,-1.4098,-1.433,-1.4399,-1.4335,-1.462,-1.4782,-1.4656,-1.472,-1.4902,-1.5211,-1.5417,-1.557,-1.557,-1.5847,-1.6125,-1.6268,-1.6696,-1.7063,-1.7196,-1.7409,-1.7663,-1.7623,-1.7765,-1.7836,-1.7886,-1.8322,-1.8368,-1.8298,-1.8958,-1.9489,-1.9406,-1.9316,-1.9304,-1.925,-1.9262,-1.9328,-1.9567,-1.9679,-1.9788,-1.9665,-1.956,-1.9508,-1.9443,-1.916,-1.8942,-1.89,-1.8771,-1.8547,-1.8442,-1.8524,-1.8669,-1.8491,-1.8345,-1.8287,-1.8287,-1.8275,-1.8287,-1.8312,-1.8298,-1.8274,-1.8249,-1.8261,-1.8333,-1.8318,-1.8392,-1.8368,-1.8333,-1.8382,-1.8404,-1.8287,-1.8392,-1.8333,-1.6307,-1.6096,-1.6083,-1.6083,-1.6083,-1.6083,-1.5913,-1.5635,-1.5479,-1.5323,-1.5174,-1.5031,-1.5052,-1.5167,-1.5181,-1.5086,-1.4869,-1.4679,-1.4557,-1.4489,-1.4258,-1.4116,-1.4041,-1.3865,-1.3715,-1.3614,-1.3471,-1.3397,-1.3397,-1.3397,-1.3397,-1.3397,-1.3397,-1.3397,-1.3376,-1.3247,-1.3173,-1.3146,-1.3118,-1.3061,-1.3209,-1.3202,-1.3311,-1.3425,-1.3524,-1.3581,-1.371,-1.4002,-1.4046,-1.4074,-1.4066,-1.4191,-1.4448,-1.4662,-1.481,-1.4884,-1.5163,-1.5311,-1.5385,-1.5688,-1.5974,-1.6131,-1.6269,-1.6352,-1.6499,-1.6655,-1.6719,-1.6802,-1.716,-1.7448,-1.7414,-1.7952,-1.8627,-1.8902,-1.8844,-1.8799,-1.8921,-1.8988,-1.911,-1.9433,-1.9687,-1.9845,-1.9869,-1.979,-1.9711,-1.9681,-1.9401,-1.9134,-1.9134,-1.8988,-1.8753,-1.8593,-1.8711,-1.8781,-1.8735,-1.8621,-1.8596,-1.8623,-1.8589,-1.8529,-1.8392,-1.8404,-1.8354,-1.8304,-1.8301,-1.8384,-1.8443,-1.8455,-1.8455,-1.8431,-1.8494,-1.8606,-1.8529,-1.851,-1.8522,-1.6225,-1.609,-1.6083,-1.6083,-1.6083,-1.6083,-1.5913,-1.5662,-1.5479,-1.533,-1.5201,-1.5038,-1.5052,-1.516,-1.5181,-1.5167,-1.5079,-1.4835,-1.4652,-1.4523,-1.436,-1.4211,-1.4095,-1.4048,-1.3885,-1.3654,-1.3485,-1.341,-1.3424,-1.341,-1.3397,-1.3397,-1.3397,-1.3397,-1.3397,-1.3268,-1.3186,-1.3166,-1.3071,-1.3063,-1.3043,-1.3036,-1.3029,-1.3009,-1.3061,-1.3239,-1.3682,-1.3667,-1.36,-1.355,-1.3521,-1.3431,-1.3439,-1.3476,-1.3364,-1.3543,-1.3729,-1.3854,-1.3937,-1.425,-1.4646,-1.4943,-1.5271,-1.5519,-1.5842,-1.6194,-1.6342,-1.6351,-1.649,-1.661,-1.6536,-1.6745,-1.7211,-1.8138,-1.8334,-1.8507,-1.8913,-1.9113,-1.9291,-1.9563,-1.9689,-1.9771,-1.9692,-1.9464,-1.9308,-1.9229,-1.898,-1.8699,-1.8722,-1.8665,-1.8721,-1.8743,-1.872,-1.8707,-1.8812,-1.8923,-1.8965,-1.9028,-1.896,-1.8927,-1.8709,-1.8593,-1.8512,-1.8407,-1.8471,-1.8552,-1.8634,-1.8657,-1.8673,-1.8708,-1.8726,-1.8703,-1.8719,-1.8626,-1.87,-1.6218,-1.609,-1.6083,-1.6083,-1.6083,-1.6083,-1.5967,-1.5764,-1.5527,-1.5384,-1.5303,-1.5079,-1.5052,-1.516,-1.5181,-1.5133,-1.5025,-1.4828,-1.4713,-1.4631,-1.4414,-1.4278,-1.4217,-1.4122,-1.3966,-1.3777,-1.3627,-1.3559,-1.3539,-1.3458,-1.3397,-1.3397,-1.3403,-1.3397,-1.3397,-1.3349,-1.3329,-1.3322,-1.3288,-1.322,-1.3119,-1.3105,-1.3064,-1.305,-1.3043,-1.3068,-1.3223,-1.3216,-1.3195,-1.3211,-1.314,-1.3276,-1.344,-1.3664,-1.3767,-1.3752,-1.3724,-1.3733,-1.374,-1.3816,-1.3969,-1.4121,-1.4189,-1.4265,-1.4418,-1.4637,-1.4713,-1.4721,-1.4873,-1.5093,-1.5152,-1.5503,-1.6185,-1.7106,-1.7233,-1.749,-1.7886,-1.8354,-1.8763,-1.8894,-1.9107,-1.9238,-1.9193,-1.9034,-1.8868,-1.8776,-1.848,-1.8175,-1.8186,-1.8222,-1.8052,-1.7945,-1.8243,-1.8496,-1.8452,-1.8528,-1.8648,-1.8816,-1.8871,-1.8889,-1.8741,-1.8645,-1.8573,-1.849,-1.8549,-1.8585,-1.8676,-1.8654,-1.8631,-1.8654,-1.8664,-1.8653,-1.8799,-1.871,-1.8586,-1.6171,-1.6083,-1.6083,-1.6083,-1.6083,-1.6083,-1.5961,-1.5757,-1.5513,-1.5377,-1.5282,-1.5079,-1.5052,-1.516,-1.5181,-1.5133,-1.5031,-1.4841,-1.474,-1.4692,-1.4434,-1.4306,-1.4278,-1.4143,-1.4027,-1.3919,-1.3777,-1.3709,-1.3702,-1.3614,-1.3539,-1.3498,-1.3485,-1.3458,-1.341,-1.3397,-1.3397,-1.3397,-1.3397,-1.3349,-1.3275,-1.3261,-1.3214,-1.3139,-1.3125,-1.3125,-1.3125,-1.3125,-1.3071,-1.2983,-1.3043,-1.3116,-1.3342,-1.3497,-1.3612,-1.3591,-1.3526,-1.3454,-1.3454,-1.3454,-1.3503,-1.3538,-1.3523,-1.3641,-1.3682,-1.3667,-1.3667,-1.3744,-1.4037,-1.4114,-1.4176,-1.4412,-1.5043,-1.5768,-1.612,-1.6444,-1.6866,-1.76,-1.8018,-1.8124,-1.8363,-1.854,-1.8571,-1.8424,-1.8288,-1.8246,-1.7936,-1.765,-1.765,-1.771,-1.7557,-1.7485,-1.7732,-1.7951,-1.7974,-1.8112,-1.8282,-1.8451,-1.8668,-1.8657,-1.8547,-1.8504,-1.8416,-1.8261,-1.8259,-1.8153,-1.823,-1.8125,-1.8009,-1.8197,-1.8358,-1.8172,-1.802,-1.8056,-1.7962,-1.609,-1.6083,-1.6083,-1.6083,-1.6083,-1.6083,-1.5947,-1.5689,-1.5527,-1.5398,-1.5255,-1.5113,-1.5092,-1.5181,-1.5194,-1.5167,-1.5113,-1.4869,-1.474,-1.4665,-1.4468,-1.4333,-1.4312,-1.4211,-1.4129,-1.4068,-1.3926,-1.3858,-1.3851,-1.381,-1.3691,-1.3648,-1.3634,-1.3573,-1.3492,-1.3437,-1.3458,-1.3471,-1.3437,-1.3424,-1.341,-1.339,-1.3383,-1.3376,-1.337,-1.3363,-1.3356,-1.3349,-1.3247,-1.303,-1.3024,-1.303,-1.3077,-1.3063,-1.313,-1.313,-1.3043,-1.3009,-1.3022,-1.3068,-1.3106,-1.3311,-1.329,-1.3397,-1.353,-1.353,-1.3601,-1.3593,-1.3641,-1.3619,-1.3619,-1.3729,-1.4022,-1.4391,-1.5228,-1.5803,-1.6102,-1.6785,-1.7192,-1.732,-1.7576,-1.7806,-1.7699,-1.7573,-1.7464,-1.7394,-1.7265,-1.7104,-1.7075,-1.7033,-1.7167,-1.7228,-1.7258,-1.7359,-1.7458,-1.7438,-1.7627,-1.7705,-1.7955,-1.8053,-1.8158,-1.8193,-1.8112,-1.8013,-1.7893,-1.7791,-1.7715,-1.7645,-1.7596,-1.7635,-1.7607,-1.7359,-1.7379,-1.7479,-1.757,-1.6185,-1.6083,-1.6083,-1.6083,-1.6083,-1.6083,-1.6042,-1.5947,-1.5791,-1.5683,-1.5615,-1.5404,-1.5309,-1.5337,-1.5235,-1.5133,-1.5025,-1.4841,-1.474,-1.4706,-1.455,-1.4462,-1.4455,-1.4421,-1.434,-1.4238,-1.4102,-1.4014,-1.4,-1.3919,-1.3745,-1.3698,-1.3783,-1.377,-1.3729,-1.3709,-1.3722,-1.3709,-1.3614,-1.3566,-1.3546,-1.3451,-1.3403,-1.3397,-1.3397,-1.3397,-1.3397,-1.3397,-1.3376,-1.3302,-1.3288,-1.3288,-1.3261,-1.3173,-1.3119,-1.3105,-1.3024,-1.305,-1.305,-1.2976,-1.3029,-1.3068,-1.3141,-1.3127,-1.3172,-1.3158,-1.3158,-1.3137,-1.3068,-1.2984,-1.3042,-1.3198,-1.3457,-1.3891,-1.4879,-1.5573,-1.5792,-1.6197,-1.65,-1.6509,-1.6633,-1.6699,-1.6729,-1.66,-1.6462,-1.6425,-1.6296,-1.6158,-1.6267,-1.6412,-1.6528,-1.6531,-1.6632,-1.6759,-1.6875,-1.6938,-1.6928,-1.6938,-1.7142,-1.7288,-1.7477,-1.7648,-1.7583,-1.7498,-1.7436,-1.7428,-1.7388,-1.7398,-1.7308,-1.7168,-1.7168,-1.7107,-1.7063,-1.7164,-1.7243,-1.6164,-1.6083,-1.6083,-1.6083,-1.6083,-1.6083,-1.6015,-1.5906,-1.5872,-1.5771,-1.5662,-1.5567,-1.5506,-1.5493,-1.535,-1.5242,-1.514,-1.4936,-1.4841,-1.4828,-1.4753,-1.4679,-1.4624,-1.4604,-1.4563,-1.4482,-1.4326,-1.4265,-1.4238,-1.4109,-1.4007,-1.3946,-1.3939,-1.3905,-1.3824,-1.3752,-1.3759,-1.3725,-1.3709,-1.3627,-1.362,-1.3478,-1.341,-1.3397,-1.3397,-1.3397,-1.3397,-1.3397,-1.3397,-1.3397,-1.3397,-1.3397,-1.3397,-1.3322,-1.3268,-1.3261,-1.3186,-1.3146,-1.3146,-1.3146,-1.3112,-1.3064,-1.3131,-1.3097,-1.305,-1.3043,-1.3043,-1.3015,-1.2868,-1.2834,-1.2893,-1.3133,-1.3404,-1.3718,-1.4431,-1.498,-1.5069,-1.565,-1.5897,-1.5974,-1.6127,-1.6203,-1.6203,-1.6028,-1.594,-1.5861,-1.5851,-1.5706,-1.5745,-1.5771,-1.5863,-1.5963,-1.6037,-1.6204,-1.625,-1.6241,-1.626,-1.6296,-1.6397,-1.6531,-1.6855,-1.7127,-1.7218,-1.7178,-1.7097,-1.7026,-1.7046,-1.6976,-1.6744,-1.6673,-1.6815,-1.6842,-1.6783,-1.6657,-1.6816,-1.6096,-1.6083,-1.6062,-1.6069,-1.6076,-1.6062,-1.5934,-1.5757,-1.5845,-1.5757,-1.5601,-1.5628,-1.5655,-1.5649,-1.5466,-1.5398,-1.5377,-1.5072,-1.4977,-1.4957,-1.495,-1.4909,-1.4814,-1.4774,-1.474,-1.4685,-1.459,-1.4516,-1.4448,-1.4353,-1.4238,-1.4129,-1.4095,-1.4027,-1.3966,-1.3919,-1.3892,-1.3899,-1.3797,-1.3736,-1.3695,-1.3559,-1.3458,-1.3451,-1.341,-1.3403,-1.3397,-1.3397,-1.3397,-1.3397,-1.3397,-1.3397,-1.3397,-1.3397,-1.339,-1.3383,-1.3363,-1.3363,-1.3383,-1.3356,-1.3329,-1.3227,-1.32,-1.3146,-1.3071,-1.3057,-1.3057,-1.3064,-1.3077,-1.2969,-1.3015,-1.3335,-1.3394,-1.3518,-1.3842,-1.4031,-1.4377,-1.5,-1.5514,-1.553,-1.5846,-1.605,-1.6007,-1.5911,-1.5789,-1.5556,-1.5512,-1.5402,-1.5368,-1.5452,-1.5518,-1.5492,-1.5549,-1.5506,-1.5572,-1.5572,-1.5598,-1.5615,-1.5729,-1.5919,-1.6378,-1.6625,-1.6891,-1.6913,-1.6573,-1.6482,-1.6548,-1.6467,-1.6264,-1.6249,-1.6415,-1.639,-1.6239,-1.6168,-1.6278,-1.6191,-1.6069,-1.5954,-1.5974,-1.6056,-1.5954,-1.5934,-1.5974,-1.6008,-1.5967,-1.592,-1.5845,-1.5811,-1.5791,-1.556,-1.5411,-1.5404,-1.5153,-1.4977,-1.4984,-1.5099,-1.512,-1.5065,-1.4997,-1.4869,-1.478,-1.4719,-1.4631,-1.4536,-1.4496,-1.4401,-1.4278,-1.4251,-1.4238,-1.4211,-1.417,-1.4197,-1.417,-1.4048,-1.3953,-1.3899,-1.3709,-1.3573,-1.3559,-1.3458,-1.3403,-1.3397,-1.3397,-1.3397,-1.3397,-1.3397,-1.3397,-1.3397,-1.3397,-1.3397,-1.3397,-1.3397,-1.3397,-1.3397,-1.3397,-1.339,-1.3349,-1.3329,-1.3342,-1.3315,-1.3288,-1.3295,-1.3281,-1.32,-1.3091,-1.3097,-1.305,-1.3224,-1.3304,-1.3502,-1.3692,-1.3857,-1.4291,-1.4694,-1.4889,-1.5057,-1.5275,-1.5283,-1.5335,-1.5277,-1.5209,-1.5184,-1.5151,-1.5134,-1.5185,-1.5236,-1.527,-1.527,-1.5253,-1.5253,-1.532,-1.532,-1.532,-1.5361,-1.5402,-1.5803,-1.5983,-1.6204,-1.6076,-1.5795,-1.5877,-1.6146,-1.6021,-1.5867,-1.5894,-1.5985,-1.5902,-1.5892,-1.5759,-1.5839,-1.6225,-1.6076,-1.5995,-1.6008,-1.6062,-1.5995,-1.5967,-1.5988,-1.6056,-1.6042,-1.5988,-1.5947,-1.5961,-1.594,-1.573,-1.5622,-1.5574,-1.5398,-1.5289,-1.5309,-1.5371,-1.5398,-1.5391,-1.5303,-1.5174,-1.497,-1.4875,-1.4794,-1.4733,-1.4645,-1.4584,-1.4502,-1.4441,-1.4448,-1.4455,-1.438,-1.4333,-1.4333,-1.4183,-1.4075,-1.4027,-1.3858,-1.3597,-1.3614,-1.3485,-1.3397,-1.3397,-1.3397,-1.3397,-1.3397,-1.3397,-1.3397,-1.3397,-1.3397,-1.3397,-1.3397,-1.3397,-1.3397,-1.3397,-1.3397,-1.3397,-1.3397,-1.3397,-1.3397,-1.3397,-1.3397,-1.3397,-1.3383,-1.3322,-1.3247,-1.318,-1.3173,-1.3166,-1.3234,-1.3334,-1.3408,-1.3577,-1.401,-1.4312,-1.4436,-1.4657,-1.482,-1.4849,-1.4825,-1.4984,-1.5028,-1.5097,-1.5072,-1.5064,-1.5048,-1.5064,-1.5056,-1.5081,-1.5081,-1.5081,-1.5072,-1.5056,-1.5116,-1.5151,-1.5134,-1.5312,-1.537,-1.5426,-1.5414,-1.5515,-1.5627,-1.5793,-1.5615,-1.5576,-1.5745,-1.5762,-1.5589,-1.5584,-1.5751,-1.5847,-1.6218,-1.6076,-1.6056,-1.6062,-1.6076,-1.6049,-1.5988,-1.5927,-1.6022,-1.6022,-1.5927,-1.6029,-1.6056,-1.6035,-1.5906,-1.5845,-1.5771,-1.5689,-1.556,-1.5567,-1.5574,-1.556,-1.554,-1.5493,-1.5391,-1.5194,-1.5106,-1.5031,-1.493,-1.4841,-1.4746,-1.4713,-1.4618,-1.4597,-1.4638,-1.4523,-1.4441,-1.4502,-1.4312,-1.4183,-1.4136,-1.398,-1.381,-1.3627,-1.3532,-1.3431,-1.341,-1.3397,-1.3397,-1.3397,-1.3397,-1.3397,-1.3397,-1.3397,-1.3397,-1.3397,-1.3397,-1.3397,-1.3397,-1.3397,-1.3397,-1.3397,-1.3397,-1.3397,-1.3397,-1.3397,-1.3397,-1.3397,-1.3376,-1.3376,-1.3397,-1.3363,-1.337,-1.3363,-1.3268,-1.3281,-1.3398,-1.3817,-1.4011,-1.4156,-1.4362,-1.4499,-1.4618,-1.4657,-1.4788,-1.4863,-1.4932,-1.4923,-1.4915,-1.4976,-1.4984,-1.5045,-1.5045,-1.5045,-1.5045,-1.4968,-1.4968,-1.496,-1.5028,-1.502,-1.5012,-1.5099,-1.5203,-1.5285,-1.534,-1.548,-1.5497,-1.5417,-1.5417,-1.5554,-1.5466,-1.5378,-1.5496,-1.5722,-1.5826,-1.6218,-1.6069,-1.5947,-1.5967,-1.6056,-1.5947,-1.5954,-1.6042,-1.6056,-1.6069,-1.6049,-1.6069,-1.6069,-1.6035,-1.592,-1.5791,-1.5703,-1.5635,-1.5628,-1.5635,-1.5635,-1.5601,-1.5533,-1.5506,-1.5384,-1.5269,-1.5242,-1.5194,-1.5025,-1.4943,-1.4882,-1.4774,-1.4719,-1.4733,-1.4746,-1.4679,-1.4645,-1.4672,-1.4516,-1.4421,-1.4367,-1.4163,-1.3899,-1.3688,-1.3593,-1.3512,-1.3417,-1.3397,-1.3397,-1.3397,-1.3397,-1.3397,-1.3397,-1.3397,-1.3397,-1.3397,-1.3397,-1.3397,-1.3397,-1.3397,-1.3397,-1.3397,-1.3397,-1.3397,-1.3397,-1.3397,-1.3397,-1.3397,-1.3397,-1.3397,-1.3397,-1.3397,-1.3397,-1.339,-1.3376,-1.3363,-1.3376,-1.3494,-1.365,-1.3877,-1.4062,-1.4264,-1.4313,-1.4347,-1.4499,-1.4508,-1.4571,-1.4594,-1.4555,-1.4748,-1.4871,-1.4923,-1.5045,-1.5045,-1.5045,-1.4968,-1.4968,-1.4891,-1.496,-1.5037,-1.5037,-1.5037,-1.5099,-1.5119,-1.5169,-1.5203,-1.5228,-1.5228,-1.5312,-1.5362,-1.5269,-1.5167,-1.5244,-1.5387,-1.5336,-1.6334,-1.6185,-1.6035,-1.6015,-1.6042,-1.592,-1.594,-1.6056,-1.6001,-1.6008,-1.6035,-1.6001,-1.5961,-1.5927,-1.5811,-1.5703,-1.5642,-1.5547,-1.5567,-1.5615,-1.5635,-1.5662,-1.5601,-1.556,-1.5499,-1.5432,-1.5411,-1.5309,-1.5099,-1.5086,-1.5038,-1.4977,-1.4903,-1.4896,-1.4909,-1.4814,-1.4808,-1.4801,-1.4719,-1.4624,-1.4597,-1.4333,-1.4041,-1.381,-1.3661,-1.3553,-1.3431,-1.3397,-1.3397,-1.3397,-1.3397,-1.3397,-1.3397,-1.3397,-1.3397,-1.3397,-1.3397,-1.3397,-1.3397,-1.3397,-1.3397,-1.3397,-1.3397,-1.3397,-1.3397,-1.3397,-1.3397,-1.3397,-1.3397,-1.3397,-1.3397,-1.3397,-1.3397,-1.3397,-1.3397,-1.3397,-1.3397,-1.3397,-1.3514,-1.3603,-1.381,-1.396,-1.4011,-1.4113,-1.4119,-1.4226,-1.4275,-1.4286,-1.4289,-1.4493,-1.4696,-1.4696,-1.468,-1.4648,-1.471,-1.4756,-1.4756,-1.4732,-1.4801,-1.4879,-1.494,-1.4887,-1.4907,-1.5023,-1.5048,-1.4944,-1.5064,-1.5108,-1.5165,-1.5275,-1.5165,-1.5072,-1.502,-1.5045,-1.5045,-1.6442,-1.63,-1.6144,-1.6083,-1.6062,-1.5954,-1.5947,-1.6001,-1.5913,-1.59,-1.5967,-1.5872,-1.5811,-1.5784,-1.571,-1.5635,-1.5628,-1.5513,-1.5547,-1.5615,-1.5635,-1.5703,-1.5737,-1.5716,-1.5615,-1.5574,-1.5527,-1.5377,-1.5255,-1.5228,-1.5228,-1.5187,-1.5099,-1.5079,-1.5106,-1.4964,-1.4943,-1.4923,-1.4869,-1.478,-1.4645,-1.4434,-1.415,-1.3885,-1.3756,-1.3634,-1.3431,-1.3451,-1.3431,-1.3417,-1.3397,-1.3397,-1.3397,-1.3397,-1.3397,-1.3397,-1.3397,-1.3397,-1.3397,-1.3397,-1.3397,-1.3397,-1.3397,-1.3397,-1.3397,-1.3397,-1.3397,-1.3397,-1.3397,-1.3397,-1.3397,-1.3397,-1.3397,-1.3397,-1.3397,-1.3397,-1.3397,-1.3397,-1.3397,-1.3501,-1.3671,-1.3718,-1.3771,-1.375,-1.3841,-1.3828,-1.3953,-1.4047,-1.406,-1.4219,-1.4362,-1.4283,-1.4268,-1.4207,-1.4248,-1.4438,-1.443,-1.443,-1.4579,-1.4657,-1.4696,-1.475,-1.478,-1.4694,-1.4647,-1.4601,-1.4793,-1.4976,-1.5045,-1.5122,-1.5045,-1.5045,-1.4968,-1.5045,-1.5045,-1.6442,-1.63,-1.6151,-1.6083,-1.6069,-1.6042,-1.5974,-1.5879,-1.5845,-1.5784,-1.573,-1.5683,-1.5662,-1.5649,-1.5635,-1.5622,-1.5615,-1.5554,-1.5533,-1.5567,-1.5588,-1.5608,-1.5655,-1.5655,-1.5628,-1.5628,-1.5615,-1.5527,-1.5432,-1.5398,-1.5371,-1.5357,-1.533,-1.5303,-1.5167,-1.5099,-1.514,-1.5126,-1.5011,-1.4828,-1.4597,-1.4414,-1.417,-1.398,-1.3912,-1.3817,-1.3519,-1.3526,-1.3532,-1.3431,-1.3403,-1.3397,-1.3397,-1.3397,-1.3397,-1.3397,-1.3397,-1.3397,-1.3397,-1.3397,-1.3397,-1.3397,-1.3397,-1.3397,-1.3397,-1.3397,-1.3397,-1.3397,-1.3397,-1.3397,-1.3397,-1.3397,-1.3397,-1.3397,-1.3397,-1.3397,-1.3397,-1.3397,-1.3397,-1.3397,-1.3494,-1.3507,-1.3507,-1.3494,-1.3473,-1.3547,-1.3538,-1.3717,-1.3762,-1.3931,-1.4011,-1.3931,-1.388,-1.3822,-1.3851,-1.4038,-1.4087,-1.4174,-1.4332,-1.4411,-1.4459,-1.4515,-1.4347,-1.4324,-1.4256,-1.4399,-1.4656,-1.4833,-1.4923,-1.4891,-1.4661,-1.4814,-1.4968,-1.4968,-1.4822,-1.6564,-1.6415,-1.6273,-1.611,-1.5954,-1.5866,-1.5798,-1.5723,-1.5635,-1.5622,-1.5615,-1.554,-1.5506,-1.5506,-1.5432,-1.5425,-1.5459,-1.5357,-1.5316,-1.5384,-1.5398,-1.5438,-1.5493,-1.552,-1.554,-1.5642,-1.5649,-1.5676,-1.5615,-1.5567,-1.5506,-1.5425,-1.5404,-1.5323,-1.5208,-1.5181,-1.5181,-1.516,-1.5106,-1.4984,-1.4787,-1.4611,-1.4401,-1.4109,-1.4089,-1.3905,-1.3729,-1.3607,-1.3607,-1.3519,-1.3464,-1.3397,-1.3397,-1.3397,-1.3397,-1.3397,-1.3397,-1.3397,-1.3397,-1.3397,-1.3397,-1.3397,-1.3397,-1.3397,-1.3397,-1.3397,-1.3397,-1.3397,-1.3397,-1.3397,-1.3397,-1.3397,-1.3397,-1.3397,-1.3397,-1.3397,-1.3397,-1.3397,-1.3397,-1.3397,-1.3397,-1.3397,-1.3397,-1.3383,-1.3445,-1.3404,-1.3439,-1.3493,-1.3568,-1.3589,-1.3664,-1.365,-1.3573,-1.3482,-1.3594,-1.3705,-1.38,-1.3873,-1.4112,-1.4191,-1.4199,-1.4214,-1.4121,-1.4098,-1.4241,-1.4388,-1.4539,-1.4439,-1.4431,-1.4315,-1.4284,-1.44,-1.4508,-1.4299,-1.4222,-1.6646,-1.6564,-1.6388,-1.6171,-1.5954,-1.5771,-1.5676,-1.5622,-1.5486,-1.5459,-1.5479,-1.5404,-1.5371,-1.5371,-1.5289,-1.5289,-1.5398,-1.514,-1.5106,-1.5153,-1.5201,-1.5289,-1.5404,-1.5452,-1.556,-1.5689,-1.5778,-1.5818,-1.5832,-1.5764,-1.5635,-1.5513,-1.5445,-1.5364,-1.5269,-1.5201,-1.5181,-1.5181,-1.5126,-1.5018,-1.4875,-1.4733,-1.4496,-1.4299,-1.4156,-1.4034,-1.3858,-1.381,-1.3756,-1.3661,-1.3546,-1.3485,-1.3471,-1.3431,-1.3403,-1.3397,-1.3397,-1.3397,-1.3397,-1.3397,-1.3397,-1.3397,-1.3397,-1.3397,-1.3397,-1.3397,-1.3397,-1.3397,-1.3397,-1.3397,-1.3397,-1.3397,-1.3397,-1.3397,-1.3397,-1.3397,-1.3397,-1.3397,-1.3397,-1.3397,-1.3397,-1.3397,-1.3397,-1.3397,-1.3397,-1.3397,-1.3397,-1.3397,-1.3397,-1.339,-1.3452,-1.3494,-1.3459,-1.3384,-1.3438,-1.3464,-1.3556,-1.3594,-1.3836,-1.3945,-1.3901,-1.3915,-1.387,-1.3901,-1.4077,-1.3953,-1.3902,-1.3877,-1.3863,-1.4079,-1.4195,-1.3994,-1.3971,-1.3771,-1.3778,-1.6612,-1.6707,-1.6429,-1.6293,-1.6232,-1.5961,-1.5757,-1.5608,-1.5472,-1.535,-1.5289,-1.5235,-1.5337,-1.5377,-1.5343,-1.5323,-1.5411,-1.5242,-1.5194,-1.5181,-1.5194,-1.5262,-1.5377,-1.5506,-1.5649,-1.5784,-1.5845,-1.594,-1.5995,-1.5791,-1.5784,-1.5791,-1.5547,-1.5438,-1.5337,-1.5228,-1.5187,-1.516,-1.5099,-1.4957,-1.4808,-1.4638,-1.4428,-1.4231,-1.4197,-1.415,-1.3792,-1.3939,-1.3946,-1.3831,-1.3688,-1.3614,-1.3593,-1.3498,-1.3451,-1.3437,-1.341,-1.3403,-1.3397,-1.3397,-1.3397,-1.3397,-1.3397,-1.3397,-1.3397,-1.3397,-1.3397,-1.3397,-1.3397,-1.3397,-1.3397,-1.3397,-1.3397,-1.3397,-1.3397,-1.3397,-1.3397,-1.3397,-1.3397,-1.3397,-1.3397,-1.3397,-1.3397,-1.3397,-1.3397,-1.3397,-1.3397,-1.3397,-1.3397,-1.3397,-1.3397,-1.3466,-1.3383,-1.3363,-1.337,-1.348,-1.3486,-1.3472,-1.3643,-1.3603,-1.3562,-1.3569,-1.3589,-1.3589,-1.3615,-1.3424,-1.339,-1.358,-1.3807,-1.4039,-1.4097,-1.3771,-1.3756,-1.367,-1.3771,-1.6558,-1.6598,-1.6483,-1.6334,-1.6157,-1.594,-1.5716,-1.5513,-1.5432,-1.5384,-1.5323,-1.5425,-1.554,-1.5622,-1.5635,-1.5567,-1.554,-1.5391,-1.5282,-1.5201,-1.5194,-1.5221,-1.5323,-1.5418,-1.5527,-1.5622,-1.5737,-1.5811,-1.5778,-1.5716,-1.5683,-1.5628,-1.5601,-1.5432,-1.5309,-1.5242,-1.5201,-1.5181,-1.5126,-1.5025,-1.4882,-1.4733,-1.455,-1.438,-1.4265,-1.4258,-1.4136,-1.4082,-1.4041,-1.3966,-1.3838,-1.3783,-1.3743,-1.3614,-1.3553,-1.3526,-1.3478,-1.3431,-1.341,-1.3403,-1.3397,-1.3397,-1.3397,-1.3397,-1.3397,-1.3397,-1.3397,-1.3397,-1.3397,-1.3397,-1.3397,-1.3397,-1.3397,-1.3397,-1.3397,-1.3397,-1.3397,-1.3397,-1.3397,-1.3397,-1.3397,-1.3397,-1.3397,-1.3397,-1.3397,-1.3397,-1.3397,-1.3397,-1.3397,-1.3397,-1.3397,-1.3397,-1.3397,-1.3397,-1.3397,-1.3397,-1.3397,-1.3397,-1.3397,-1.3397,-1.3397,-1.339,-1.3432,-1.337,-1.3363,-1.3391,-1.3439,-1.3582,-1.3676,-1.3725,-1.3646,-1.3415,-1.3422,-1.3545,-1.3646,-1.6442,-1.6503,-1.6429,-1.6327,-1.6191,-1.6001,-1.5805,-1.5622,-1.552,-1.5479,-1.5486,-1.5601,-1.5716,-1.5811,-1.5784,-1.5764,-1.5642,-1.5499,-1.5364,-1.5276,-1.5215,-1.5187,-1.5235,-1.5323,-1.5438,-1.5452,-1.5608,-1.573,-1.5744,-1.5601,-1.5649,-1.571,-1.5689,-1.5547,-1.5398,-1.5269,-1.5248,-1.5248,-1.5187,-1.5079,-1.4909,-1.4787,-1.4611,-1.4455,-1.4333,-1.4299,-1.4251,-1.4204,-1.4163,-1.4095,-1.4014,-1.3926,-1.3858,-1.379,-1.3709,-1.3654,-1.36,-1.3519,-1.3478,-1.3424,-1.3403,-1.3397,-1.3397,-1.3397,-1.3397,-1.3397,-1.3397,-1.3397,-1.3397,-1.3397,-1.3397,-1.3397,-1.3397,-1.3397,-1.3397,-1.3397,-1.3397,-1.3397,-1.3397,-1.3397,-1.3397,-1.3397,-1.3397,-1.3397,-1.3397,-1.3397,-1.3397,-1.3397,-1.3397,-1.3397,-1.3397,-1.3397,-1.3397,-1.3397,-1.3397,-1.3397,-1.3397,-1.3397,-1.3397,-1.3397,-1.3397,-1.3397,-1.3397,-1.339,-1.339,-1.3397,-1.3459,-1.3494,-1.3411,-1.3234,-1.32,-1.3274,-1.3308,-1.3424,-1.3396,-1.6259,-1.6469,-1.6225,-1.6259,-1.6422,-1.6191,-1.6049,-1.5934,-1.5723,-1.5622,-1.5628,-1.5662,-1.5737,-1.5825,-1.5791,-1.5778,-1.575,-1.5554,-1.5404,-1.5364,-1.5235,-1.5194,-1.5235,-1.5316,-1.5411,-1.5486,-1.5635,-1.5771,-1.5811,-1.5744,-1.5778,-1.5805,-1.5778,-1.5744,-1.5615,-1.5472,-1.5404,-1.5377,-1.5248,-1.5038,-1.4828,-1.4746,-1.4597,-1.4394,-1.4319,-1.4299,-1.4285,-1.4278,-1.4245,-1.4224,-1.4136,-1.4075,-1.4055,-1.3919,-1.3844,-1.3831,-1.3817,-1.3743,-1.3634,-1.3492,-1.3444,-1.341,-1.3397,-1.3397,-1.3397,-1.3397,-1.3397,-1.3397,-1.3397,-1.3397,-1.3397,-1.3397,-1.3397,-1.3397,-1.3397,-1.3397,-1.3397,-1.3397,-1.3397,-1.3397,-1.3397,-1.3397,-1.3397,-1.3397,-1.3397,-1.3397,-1.3397,-1.3397,-1.3397,-1.3397,-1.3397,-1.3397,-1.3397,-1.3397,-1.3397,-1.3397,-1.3397,-1.3397,-1.3397,-1.3397,-1.3397,-1.3397,-1.3397,-1.3397,-1.3397,-1.3397,-1.3397,-1.339,-1.3322,-1.3261,-1.3315,-1.3329,-1.3363,-1.3349,-1.3295,-1.6137,-1.6232,-1.6232,-1.6286,-1.6347,-1.6171,-1.6029,-1.5906,-1.5744,-1.5696,-1.5771,-1.5784,-1.5866,-1.594,-1.5947,-1.59,-1.5811,-1.5683,-1.554,-1.5398,-1.5255,-1.5201,-1.5228,-1.5323,-1.5411,-1.5466,-1.5615,-1.573,-1.5696,-1.5757,-1.573,-1.5723,-1.5839,-1.5825,-1.5723,-1.5567,-1.5411,-1.5377,-1.5248,-1.5045,-1.478,-1.4719,-1.4597,-1.4312,-1.4299,-1.4299,-1.4299,-1.4299,-1.4299,-1.4299,-1.4211,-1.4211,-1.4183,-1.4068,-1.4,-1.3966,-1.3926,-1.3738,-1.377,-1.3695,-1.3593,-1.3492,-1.3424,-1.3431,-1.3403,-1.3403,-1.3397,-1.3403,-1.3403,-1.3403,-1.3397,-1.3397,-1.3397,-1.3397,-1.3397,-1.3397,-1.3397,-1.3397,-1.3397,-1.3397,-1.3397,-1.3397,-1.3397,-1.3397,-1.3397,-1.3397,-1.3397,-1.3397,-1.3397,-1.3397,-1.3397,-1.3397,-1.3397,-1.3397,-1.3397,-1.3397,-1.3397,-1.3397,-1.3397,-1.3397,-1.3397,-1.3397,-1.3397,-1.3397,-1.3397,-1.3397,-1.3397,-1.3397,-1.3397,-1.339,-1.3397,-1.3397,-1.339,-1.3383,-1.337,-1.6083,-1.609,-1.613,-1.6151,-1.6151,-1.6157,-1.6069,-1.5934,-1.5832,-1.5852,-1.592,-1.5934,-1.5981,-1.6056,-1.6069,-1.6049,-1.5913,-1.5723,-1.5615,-1.5459,-1.5269,-1.5201,-1.5228,-1.533,-1.5398,-1.5466,-1.5608,-1.5723,-1.575,-1.5778,-1.5818,-1.5859,-1.5886,-1.5934,-1.5859,-1.5716,-1.5554,-1.5479,-1.5309,-1.5038,-1.4814,-1.4665,-1.4536,-1.4367,-1.4299,-1.4299,-1.4299,-1.4299,-1.4306,-1.4306,-1.4306,-1.4306,-1.4272,-1.4224,-1.4156,-1.4109,-1.4014,-1.3939,-1.3919,-1.3838,-1.3722,-1.3607,-1.3553,-1.3553,-1.3532,-1.3532,-1.3505,-1.3485,-1.3444,-1.3417,-1.3417,-1.3417,-1.3424,-1.3424,-1.3424,-1.3424,-1.3424,-1.3431,-1.3431,-1.3424,-1.3431,-1.3424,-1.3424,-1.3397,-1.3397,-1.3397,-1.3397,-1.3403,-1.3403,-1.3397,-1.3397,-1.3397,-1.3397,-1.3397,-1.3397,-1.3397,-1.3397,-1.3397,-1.3397,-1.3397,-1.3397,-1.3397,-1.3397,-1.3397,-1.3397,-1.3397,-1.3397,-1.3397,-1.3397,-1.3397,-1.3397,-1.3397,-1.3397,-1.3397,-1.3397,-1.6083,-1.6062,-1.6018,-1.5866,-1.5906,-1.6123,-1.6157,-1.6056,-1.6056,-1.6049,-1.6056,-1.6049,-1.6069,-1.6076,-1.6083,-1.6069,-1.6015,-1.5778,-1.5689,-1.556,-1.5364,-1.5276,-1.5282,-1.5377,-1.5472,-1.556,-1.5696,-1.5886,-1.5886,-1.6029,-1.609,-1.6069,-1.6069,-1.6069,-1.6001,-1.5906,-1.5757,-1.5608,-1.5371,-1.5113,-1.4889,-1.4679,-1.4563,-1.4441,-1.4394,-1.4387,-1.4387,-1.4387,-1.4373,-1.436,-1.4346,-1.434,-1.4326,-1.4319,-1.4312,-1.4278,-1.4183,-1.4156,-1.4136,-1.4048,-1.3994,-1.396,-1.3899,-1.3786,-1.3691,-1.3682,-1.3648,-1.3607,-1.3566,-1.3498,-1.3451,-1.3464,-1.3478,-1.3478,-1.3471,-1.3471,-1.3471,-1.3471,-1.3471,-1.3478,-1.3485,-1.3492,-1.3512,-1.3492,-1.3505,-1.3471,-1.3464,-1.3424,-1.3424,-1.3397,-1.3397,-1.3397,-1.3397,-1.3397,-1.3397,-1.3397,-1.3397,-1.3397,-1.3397,-1.3397,-1.3397,-1.3397,-1.3397,-1.3397,-1.3397,-1.3397,-1.3397,-1.3397,-1.3397,-1.3397,-1.3397,-1.3397,-1.3397,-1.3397,-1.3397,-1.6083,-1.6062,-1.592,-1.5852,-1.5852,-1.5839,-1.5805,-1.5784,-1.5872,-1.592,-1.592,-1.6035,-1.6069,-1.6083,-1.6083,-1.6083,-1.6008,-1.5906,-1.5825,-1.5676,-1.5486,-1.5459,-1.5486,-1.5547,-1.5628,-1.5757,-1.5906,-1.6069,-1.6185,-1.632,-1.6307,-1.6259,-1.6246,-1.6191,-1.611,-1.6042,-1.5934,-1.5764,-1.5506,-1.5255,-1.5052,-1.4882,-1.474,-1.4631,-1.4577,-1.457,-1.457,-1.4577,-1.4577,-1.459,-1.4604,-1.4611,-1.4611,-1.4611,-1.4618,-1.4611,-1.457,-1.455,-1.4543,-1.4502,-1.4441,-1.438,-1.4346,-1.4102,-1.3953,-1.3752,-1.3711,-1.3749,-1.3709,-1.3648,-1.3627,-1.3634,-1.3634,-1.3634,-1.3634,-1.3634,-1.3634,-1.3634,-1.3634,-1.3634,-1.3634,-1.3634,-1.3641,-1.3668,-1.3668,-1.36,-1.3539,-1.3492,-1.3444,-1.3424,-1.3397,-1.3397,-1.3397,-1.3397,-1.3397,-1.3397,-1.3397,-1.3397,-1.3397,-1.3397,-1.3397,-1.3397,-1.3397,-1.3397,-1.3397,-1.3397,-1.3397,-1.3397,-1.3397,-1.3397,-1.3397,-1.3397,-1.3397,-1.3397,-1.3397,-1.5988,-1.5981,-1.5991,-1.5791,-1.5662,-1.552,-1.5459,-1.5493,-1.5676,-1.5791,-1.5859,-1.5947,-1.6022,-1.6076,-1.6083,-1.6076,-1.6062,-1.592,-1.5839,-1.5778,-1.5615,-1.5581,-1.5622,-1.571,-1.5805,-1.5947,-1.6096,-1.6246,-1.6388,-1.6456,-1.6456,-1.6402,-1.6395,-1.6307,-1.6232,-1.6225,-1.6185,-1.5967,-1.5716,-1.5459,-1.5282,-1.5106,-1.493,-1.4875,-1.4821,-1.478,-1.4774,-1.4774,-1.4767,-1.4746,-1.474,-1.474,-1.4733,-1.4733,-1.4794,-1.478,-1.4733,-1.4753,-1.4767,-1.4733,-1.474,-1.4726,-1.4672,-1.4489,-1.4251,-1.4095,-1.4,-1.3919,-1.3865,-1.3738,-1.3745,-1.3752,-1.3745,-1.3745,-1.3745,-1.3745,-1.3745,-1.3738,-1.3738,-1.3824,-1.3732,-1.3817,-1.3824,-1.3759,-1.3817,-1.3729,-1.3648,-1.3573,-1.3505,-1.3444,-1.3417,-1.3397,-1.3397,-1.3397,-1.3397,-1.3397,-1.3397,-1.3397,-1.3397,-1.3397,-1.3397,-1.3397,-1.3397,-1.3397,-1.3397,-1.3397,-1.3397,-1.3397,-1.3397,-1.3397,-1.3397,-1.3397,-1.3397,-1.3397,-1.3397,-1.5811,-1.5791,-1.5798,-1.5601,-1.5357,-1.5242,-1.5194,-1.5201,-1.5466,-1.5689,-1.5805,-1.5866,-1.5974,-1.6069,-1.6083,-1.6083,-1.6056,-1.5961,-1.5913,-1.5866,-1.573,-1.5689,-1.575,-1.5798,-1.592,-1.609,-1.6232,-1.6354,-1.6503,-1.6592,-1.6619,-1.6544,-1.6537,-1.6463,-1.6361,-1.6408,-1.6374,-1.6246,-1.5988,-1.5744,-1.5533,-1.5276,-1.5059,-1.5086,-1.5011,-1.4923,-1.4896,-1.4869,-1.4841,-1.4848,-1.4862,-1.4903,-1.4923,-1.4943,-1.5004,-1.5065,-1.5092,-1.5092,-1.5113,-1.5072,-1.4957,-1.4903,-1.4801,-1.478,-1.4638,-1.4387,-1.4258,-1.4156,-1.4109,-1.4041,-1.4027,-1.4014,-1.4,-1.4,-1.4,-1.4,-1.4,-1.4,-1.4,-1.4,-1.4,-1.3994,-1.3994,-1.4007,-1.398,-1.3871,-1.3797,-1.3722,-1.3607,-1.3526,-1.3464,-1.3424,-1.3403,-1.3403,-1.3397,-1.3397,-1.3397,-1.3397,-1.3397,-1.3397,-1.3397,-1.3397,-1.3397,-1.3397,-1.3397,-1.3397,-1.3397,-1.3397,-1.3397,-1.3397,-1.3397,-1.3397,-1.3397,-1.3397,-1.3397,-1.5445,-1.5343,-1.5343,-1.5174,-1.495,-1.5106,-1.512,-1.5038,-1.5208,-1.5459,-1.5696,-1.5906,-1.6035,-1.6069,-1.6083,-1.6083,-1.6062,-1.6029,-1.6029,-1.5974,-1.5866,-1.5852,-1.5913,-1.59,-1.6022,-1.6191,-1.6334,-1.6463,-1.6639,-1.6754,-1.6795,-1.6707,-1.6693,-1.6619,-1.6483,-1.6544,-1.6524,-1.6463,-1.6368,-1.6191,-1.6056,-1.594,-1.5811,-1.5784,-1.571,-1.5594,-1.5594,-1.5649,-1.5635,-1.5622,-1.5594,-1.5594,-1.5594,-1.5574,-1.5655,-1.5764,-1.5689,-1.5628,-1.5574,-1.5506,-1.5425,-1.535,-1.5289,-1.5187,-1.5018,-1.474,-1.4543,-1.4441,-1.4346,-1.4272,-1.4224,-1.4204,-1.419,-1.419,-1.419,-1.419,-1.419,-1.4183,-1.4183,-1.4177,-1.4177,-1.4163,-1.4163,-1.4143,-1.4116,-1.4075,-1.4027,-1.3939,-1.3777,-1.3661,-1.3553,-1.3498,-1.3417,-1.3403,-1.3403,-1.3397,-1.3397,-1.3397,-1.3397,-1.3397,-1.3397,-1.3397,-1.3397,-1.3397,-1.3397,-1.3397,-1.3397,-1.3397,-1.3397,-1.3397,-1.3397,-1.3397,-1.3397,-1.3397,-1.3397,-1.5167,-1.5092,-1.5086,-1.4997,-1.4889,-1.5018,-1.5045,-1.5018,-1.5194,-1.5418,-1.5628,-1.5811,-1.5954,-1.6056,-1.6083,-1.6083,-1.6083,-1.6076,-1.6062,-1.6035,-1.6015,-1.6015,-1.6008,-1.5995,-1.6117,-1.6273,-1.6456,-1.6619,-1.6754,-1.6876,-1.6904,-1.6856,-1.6836,-1.6775,-1.6653,-1.6666,-1.668,-1.6632,-1.6673,-1.6653,-1.6537,-1.6368,-1.6205,-1.6178,-1.6117,-1.6049,-1.6022,-1.6042,-1.6008,-1.5967,-1.592,-1.5913,-1.5906,-1.59,-1.6001,-1.6076,-1.6083,-1.6076,-1.6029,-1.5954,-1.5859,-1.5737,-1.5608,-1.5432,-1.5391,-1.512,-1.4848,-1.4733,-1.4597,-1.4516,-1.4509,-1.4496,-1.4496,-1.4496,-1.4496,-1.4496,-1.4455,-1.4414,-1.4394,-1.436,-1.4326,-1.4245,-1.4238,-1.4238,-1.4197,-1.4089,-1.4068,-1.4021,-1.3885,-1.381,-1.3695,-1.3593,-1.3526,-1.3431,-1.3403,-1.3397,-1.3397,-1.3397,-1.3397,-1.3397,-1.3397,-1.3397,-1.3397,-1.3397,-1.3397,-1.3397,-1.3397,-1.3397,-1.3397,-1.3397,-1.3397,-1.3397,-1.3397,-1.3397,-1.3397,-1.4909,-1.4916,-1.4936,-1.4923,-1.493,-1.4984,-1.4991,-1.5018,-1.5255,-1.5452,-1.5581,-1.5608,-1.5798,-1.5995,-1.6083,-1.6083,-1.6083,-1.6083,-1.6083,-1.6083,-1.6069,-1.6062,-1.6069,-1.6083,-1.6178,-1.6334,-1.6524,-1.6646,-1.6754,-1.6863,-1.6924,-1.6965,-1.6951,-1.691,-1.6863,-1.687,-1.689,-1.6829,-1.6856,-1.6937,-1.6802,-1.6619,-1.649,-1.6368,-1.6279,-1.6191,-1.6178,-1.6198,-1.6198,-1.6191,-1.6212,-1.6225,-1.6225,-1.6239,-1.632,-1.6388,-1.6388,-1.6361,-1.6307,-1.6191,-1.6056,-1.5913,-1.5778,-1.5696,-1.5655,-1.5452,-1.5181,-1.5004,-1.4869,-1.4733,-1.4726,-1.4726,-1.4726,-1.4713,-1.4713,-1.4726,-1.4672,-1.4597,-1.4543,-1.4502,-1.4414,-1.4319,-1.4299,-1.4299,-1.4224,-1.4116,-1.4055,-1.3994,-1.3946,-1.3926,-1.3865,-1.3763,-1.3682,-1.358,-1.3464,-1.341,-1.3417,-1.3397,-1.3397,-1.3397,-1.3397,-1.3397,-1.3397,-1.3397,-1.3397,-1.3397,-1.3397,-1.3397,-1.3397,-1.3397,-1.3397,-1.3397,-1.3397,-1.3397,-1.3397,-1.4597,-1.4611,-1.4726,-1.4713,-1.4665,-1.497,-1.5079,-1.5011,-1.514,-1.5309,-1.5425,-1.5486,-1.5676,-1.6076,-1.6083,-1.6069,-1.6049,-1.6076,-1.609,-1.6083,-1.611,-1.6096,-1.6083,-1.6096,-1.6178,-1.632,-1.6476,-1.6612,-1.67,-1.6775,-1.687,-1.6971,-1.6978,-1.6965,-1.6958,-1.6971,-1.6958,-1.6931,-1.6931,-1.6978,-1.6978,-1.6876,-1.6883,-1.6836,-1.6829,-1.6727,-1.6693,-1.6754,-1.6714,-1.6666,-1.6605,-1.6585,-1.6571,-1.6571,-1.6646,-1.6686,-1.6686,-1.6666,-1.6592,-1.651,-1.6381,-1.6191,-1.6076,-1.5967,-1.5859,-1.5649,-1.5418,-1.5255,-1.5086,-1.4814,-1.4767,-1.478,-1.478,-1.4733,-1.4706,-1.476,-1.476,-1.4645,-1.455,-1.4482,-1.4407,-1.434,-1.4292,-1.4265,-1.4211,-1.4136,-1.4122,-1.4075,-1.4095,-1.4068,-1.4027,-1.3939,-1.3844,-1.3722,-1.3607,-1.3464,-1.3437,-1.3417,-1.3397,-1.3397,-1.3397,-1.3397,-1.3397,-1.3397,-1.3397,-1.3397,-1.3397,-1.3397,-1.3397,-1.3397,-1.3397,-1.3397,-1.3397,-1.3397,-1.3397]},{"header":{"parameterUnit":"m.s-1","parameterCategory":1,"la1":31.0,"la2":29.5877,"lo1":-88.7671,"lo2":-86.6584,"dy":0.0162,"dx":0.0185,"nx":115,"ny":88,"refTime":"2023-10-23T12:00:00:Z","depth":0,"parameterNumber":3,"parameterNumberName":"V-component_of_WINDS"},"data":[0.0,0.0,0.0,0.0,0.0,0.0,0.0,0.0,0.0,0.0,0.0,0.0,0.0,0.0,0.0,0.0,0.0,0.0,0.0,0.0,0.0,0.0,0.0,0.0,0.0,0.0,0.0,0.0,0.0,0.0,0.0,0.0,0.0,0.0,0.0,0.0,0.0,0.0,0.0,0.0,0.0,0.0,0.0,0.0,0.0,0.0,0.0,0.0,0.0,0.0,0.0,0.0,0.0,0.0,0.0,0.0,0.0,0.0,0.0,0.0,0.0,0.0,0.0,0.0,0.0,0.0,0.0,0.0,0.0,0.0,0.0,0.0,0.0,0.0,0.0,0.0,0.0,0.0,0.0,0.0,0.0,0.0,0.0,0.0,0.0,0.0,0.0,0.0,0.0,0.0,0.0,0.0,0.0,0.0,0.0,0.0,0.0,0.0,0.0,0.0,0.0,0.0,0.0,0.0,0.0,0.0,0.0,0.0,0.0,0.0,0.0,0.0,0.0,0.0,0.0,0.0,0.0,0.0,0.0,0.0,0.0,0.0,0.0,0.0,0.0,0.0,0.0,0.0,0.0,0.0,0.0,0.0,0.0,0.0,0.0,0.0,0.0,0.0,0.0,0.0,0.0,0.0,0.0,0.0,0.0,0.0,0.0,0.0,0.0,0.0,0.0,0.0,0.0,0.0,0.0,0.0,0.0,0.0,0.0,0.0,0.0,0.0,0.0,0.0,0.0,0.0,0.0,0.0,0.0,0.0,0.0,0.0,0.0,0.0,0.0,0.0,0.0,0.0,0.0,0.0,0.0,0.0,0.0,0.0,0.0,0.0,0.0,0.0,0.0,0.0,0.0,0.0,0.0,0.0,0.0,0.0,0.0,0.0,0.0,0.0,0.0,0.0,0.0,0.0,0.0,0.0,0.0,0.0,0.0,0.0,0.0,0.0,0.0,0.0,0.0,0.0,0.0,0.0,0.0,0.0,0.0,0.0,0.0,0.0,0.0,0.0,0.0,0.0,0.0,0.0,0.0,0.0,0.0,0.0,0.0,0.0,0.0,0.0,0.0,0.0,0.0,0.0,0.0,0.0,0.0,0.0,0.0,0.0,0.0,0.0,0.0,0.0,0.0,0.0,0.0,0.0,0.0,0.0,0.0,0.0,0.0,0.0,0.0,0.0,0.0,0.0,0.0,0.0,0.0,0.0,0.0,0.0,0.0,0.0,0.0,0.0,0.0,0.0,0.0,0.0,0.0,0.0,0.0,0.0,0.0,0.0,0.0,0.0,0.0,0.0,0.0,0.0,0.0,0.0,0.0,0.0,0.0,0.0,0.0,0.0,0.0,0.0,0.0,0.0,0.0,0.0,0.0,0.0,0.0,0.0,0.0,0.0,0.0,0.0,0.0,0.0,0.0,0.0,0.0,0.0,0.0,0.0,0.0,0.0,0.0,0.0,0.0,0.0,0.0,0.0,0.0,0.0,0.0,0.0,0.0,0.0,0.0,0.0,0.0,0.0,0.0,0.0,0.0,0.0,0.0,0.0,0.0,0.0,0.0,0.0,0.0,0.0,0.0,0.0,0.0,0.0,0.0,0.0,0.0,0.0,0.0,0.0,0.0,0.0,0.0,0.0,0.0,0.0,0.0,0.0,0.0,0.0,0.0,0.0,0.0,0.0,0.0,0.0,0.0,0.0,0.0,0.0,0.0,0.0,0.0,0.0,0.0,0.0,0.0,0.0,0.0,0.0,0.0,0.0,0.0,0.0,0.0,0.0,0.0,0.0,0.0,0.0,0.0,0.0,0.0,0.0,0.0,0.0,0.0,0.0,0.0,0.0,0.0,0.0,0.0,0.0,0.0,0.0,0.0,0.0,0.0,0.0,0.0,0.0,0.0,0.0,0.0,0.0,0.0,0.0,0.0,0.0,0.0,0.0,0.0,0.0,0.0,0.0,0.0,0.0,0.0,0.0,0.0,0.0,0.0,0.0,0.0,0.0,0.0,0.0,0.0,0.0,0.0,0.0,0.0,0.0,0.0,0.0,0.0,0.0,0.0,0.0,0.0,0.0,0.0,0.0,0.0,0.0,0.0,0.0,0.0,0.0,0.0,0.0,0.0,0.0,0.0,0.0,0.0,0.0,0.0,0.0,0.0,0.0,0.0,0.0,0.0,0.0,0.0,0.0,0.0,0.0,0.0,0.0,0.0,0.0,0.0,0.0,0.0,0.0,0.0,0.0,0.0,0.0,0.0,0.0,0.0,0.0,0.0,0.0,0.0,0.0,0.0,0.0,0.0,0.0,0.0,0.0,0.0,0.0,0.0,0.0,0.0,0.0,0.0,0.0,0.0,0.0,0.0,0.0,0.0,0.0,0.0,0.0,0.0,0.0,0.0,0.0,0.0,0.0,0.0,0.0,0.0,0.0,0.0,0.0,0.0,0.0,0.0,0.0,0.0,0.0,0.0,0.0,0.0,0.0,0.0,0.0,0.0,0.0,0.0,0.0,0.0,0.0,0.0,0.0,0.0,0.0,0.0,0.0,0.0,0.0,0.0,0.0,0.0,0.0,0.0,0.0,0.0,0.0,0.0,0.0,0.0,0.0,0.0,0.0,0.0,0.0,0.0,0.0,0.0,0.0,0.0,0.0,0.0,0.0,0.0,0.0,0.0,0.0,0.0,0.0,0.0,0.0,0.0,0.0,0.0,0.0,0.0,0.0,0.0,0.0,0.0,0.0,0.0,0.0,0.0,0.0,0.0,0.0,0.0,0.0,0.0,0.0,0.0,0.0,0.0,0.0,0.0,0.0,0.0,0.0,0.0,0.0,0.0,0.0,0.0,0.0,0.0,0.0,0.0,0.0,0.0,0.0,0.0,0.0,0.0,0.0,0.0,0.0,0.0,0.0,0.0,0.0,0.0,0.0,0.0,0.0,0.0,0.0,0.0,0.0,0.0,0.0,0.0,0.0,0.0,0.0,0.0,0.0,0.0,0.0,0.0,0.0,0.0,0.0,0.0,0.0,0.0,0.0,0.0,0.0,0.0,0.0,0.0,0.0,0.0,0.0,0.0,0.0,0.0,0.0,0.0,0.0,0.0,0.0,0.0,0.0,0.0,0.0,0.0,0.0,0.0,0.0,0.0,0.0,0.0,0.0,0.0,0.0,0.0,0.0,0.0,0.0,0.0,0.0,0.0,0.0,0.0,0.0,0.0,0.0,0.0,0.0,0.0,0.0,0.0,0.0,0.0,0.0,0.0,0.0,0.0,0.0,0.0,0.0,0.0,0.0,0.0,0.0,0.0,0.0,0.0,0.0,0.0,0.0,0.0,0.0,0.0,0.0,0.0,0.0,0.0,0.0,0.0,0.0,0.0,0.0,0.0,0.0,0.0,0.0,0.0,0.0,0.0,0.0,0.0,0.0,0.0,0.0,0.0,0.0,0.0,0.0,0.0,0.0,0.0,0.0,0.0,0.0,0.0,0.0,0.0,0.0,0.0,0.0,0.0,0.0,0.0,0.0,0.0,0.0,0.0,0.0,0.0,0.0,0.0,0.0,0.0,0.0,0.0,0.0,0.0,0.0,0.0,0.0,0.0,0.0,0.0,0.0,0.0,0.0,0.0,0.0,0.0,0.0,0.0,0.0,0.0,0.0,0.0,0.0,0.0,0.0,0.0,0.0,0.0,0.0,0.0,0.0,0.0,0.0,0.0,0.0,0.0,0.0,0.0,0.0,0.0,0.0,0.0,0.0,0.0,0.0,0.0,0.0,0.0,0.0,0.0,0.0,0.0,0.0,0.0,0.0,0.0,0.0,0.0,0.0,0.0,0.0,0.0,0.0,0.0,0.0,0.0,0.0,0.0,0.0,0.0,0.0,0.0,0.0,0.0,0.0,0.0,0.0,0.0,0.0,0.0,0.0,0.0,0.0,0.0,0.0,0.0,0.0,0.0,0.0,0.0,0.0,0.0,0.0,0.0,0.0,0.0,0.0,0.0,0.0,0.0,0.0,0.0,0.0,0.0,0.0,0.0,0.0,0.0,0.0,0.0,0.0,0.0,0.0,0.0,0.0,0.0,0.0,0.0,0.0,0.0,0.0,0.0,0.0,0.0,0.0,0.0,0.0,0.0,0.0,0.0,0.0,0.0,0.0,0.0,0.0,0.0,0.0,0.0,0.0,0.0,0.0,0.0,0.0,0.0,0.0,0.0,0.0,0.0,0.0,0.0,0.0,0.0,0.0,0.0,0.0,0.0,0.0,0.0,0.0,0.0,0.0,0.0,0.0,0.0,0.0,0.0,0.0,2.4327,0.0,0.0,0.0,0.0,0.0,0.0,0.0,0.0,0.0,0.0,0.0,0.0,0.0,0.0,0.0,0.0,0.0,0.0,0.0,0.0,0.0,0.0,0.0,0.0,0.0,0.0,0.0,0.0,0.0,0.0,0.0,0.0,0.0,0.0,0.0,0.0,0.0,0.0,0.0,0.0,0.0,0.0,0.0,0.0,0.0,0.0,0.0,0.0,0.0,0.0,0.0,0.0,0.0,0.0,0.0,0.0,0.0,0.0,0.0,0.0,0.0,0.0,0.0,0.0,0.0,0.0,0.0,0.0,0.0,0.0,0.0,0.0,0.0,0.0,0.0,0.0,0.0,0.0,0.0,0.0,0.0,0.0,0.0,0.0,0.0,0.0,0.0,0.0,0.0,0.0,0.0,0.0,0.0,0.0,0.0,0.0,0.0,0.0,0.0,0.0,0.0,0.0,0.0,0.0,0.0,0.0,0.0,0.0,0.0,0.0,2.4973,2.4348,2.4943,2.4973,2.4327,0.0,0.0,0.0,0.0,0.0,0.0,0.0,0.0,0.0,0.0,0.0,0.0,0.0,0.0,0.0,0.0,0.0,0.0,0.0,0.0,0.0,0.0,0.0,0.0,0.0,0.0,0.0,0.0,0.0,0.0,0.0,0.0,0.0,0.0,0.0,0.0,0.0,0.0,0.0,0.0,0.0,0.0,0.0,0.0,0.0,0.0,0.0,0.0,0.0,0.0,0.0,0.0,0.0,0.0,0.0,0.0,0.0,0.0,0.0,0.0,0.0,0.0,0.0,0.0,0.0,0.0,0.0,0.0,0.0,0.0,0.0,0.0,0.0,0.0,0.0,0.0,0.0,0.0,0.0,0.0,0.0,0.0,0.0,0.0,0.0,0.0,0.0,0.0,0.0,0.0,0.0,0.0,0.0,0.0,0.0,0.0,0.0,0.0,0.0,0.0,0.0,0.0,0.0,0.0,0.0,0.0,0.0,0.0,0.0,0.0,0.0,0.0,2.6168,2.6243,2.5715,0.0,0.0,0.0,0.0,0.0,0.0,0.0,0.0,0.0,0.0,0.0,0.0,0.0,0.0,0.0,0.0,0.0,0.0,0.0,0.0,0.0,0.0,0.0,0.0,0.0,0.0,0.0,0.0,0.0,0.0,0.0,0.0,0.0,0.0,0.0,0.0,0.0,0.0,0.0,0.0,0.0,0.0,0.0,0.0,0.0,0.0,0.0,0.0,0.0,0.0,0.0,0.0,0.0,0.0,0.0,0.0,0.0,0.0,0.0,0.0,0.0,0.0,0.0,0.0,0.0,0.0,0.0,0.0,0.0,0.0,0.0,0.0,0.0,0.0,0.0,0.0,0.0,0.0,0.0,0.0,0.0,0.0,0.0,0.0,0.0,0.0,0.0,0.0,0.0,0.0,0.0,0.0,0.0,0.0,0.0,0.0,0.0,0.0,0.0,0.0,0.0,0.0,0.0,0.0,0.0,0.0,0.0,0.0,0.0,0.0,2.5966,2.9336,2.9792,0.0,2.9858,0.0,0.0,0.0,0.0,0.0,0.0,0.0,0.0,0.0,0.0,0.0,0.0,0.0,0.0,0.0,0.0,0.0,0.0,0.0,0.0,0.0,0.0,0.0,0.0,0.0,0.0,0.0,0.0,0.0,0.0,0.0,0.0,0.0,0.0,0.0,0.0,0.0,0.0,0.0,0.0,0.0,0.0,0.0,0.0,0.0,0.0,0.0,0.0,0.0,0.0,0.0,0.0,0.0,0.0,0.0,0.0,0.0,0.0,0.0,0.0,0.0,0.0,0.0,0.0,0.0,0.0,0.0,0.0,0.0,0.0,0.0,0.0,0.0,0.0,0.0,0.0,0.0,0.0,0.0,0.0,0.0,0.0,0.0,0.0,0.0,0.0,0.0,0.0,0.0,0.0,0.0,0.0,0.0,0.0,0.0,0.0,0.0,0.0,0.0,0.0,0.0,0.0,0.0,0.0,0.0,0.0,0.0,0.0,0.0,0.0,2.7157,2.9583,3.0029,2.9525,0.0,0.0,0.0,0.0,0.0,0.0,0.0,0.0,0.0,0.0,0.0,0.0,0.0,0.0,0.0,0.0,0.0,0.0,0.0,0.0,0.0,0.0,0.0,0.0,0.0,0.0,0.0,0.0,0.0,0.0,0.0,0.0,0.0,0.0,0.0,0.0,0.0,0.0,0.0,0.0,0.0,0.0,0.0,0.0,0.0,0.0,0.0,0.0,0.0,0.0,0.0,0.0,0.0,0.0,0.0,0.0,0.0,0.0,0.0,0.0,0.0,0.0,0.0,0.0,0.0,0.0,0.0,0.0,0.0,0.0,0.0,0.0,0.0,0.0,0.0,0.0,0.0,0.0,0.0,0.0,0.0,0.0,0.0,0.0,0.0,0.0,0.0,0.0,0.0,0.0,0.0,0.0,0.0,0.0,0.0,0.0,0.0,0.0,0.0,0.0,0.0,0.0,0.0,0.0,0.0,0.0,0.0,0.0,0.0,0.0,2.7365,2.88,3.093,3.0357,2.9258,2.7736,0.0,0.0,0.0,0.0,0.0,0.0,0.0,0.0,0.0,0.0,0.0,0.0,0.0,0.0,0.0,0.0,0.0,0.0,0.0,0.0,0.0,0.0,0.0,0.0,0.0,0.0,0.0,0.0,0.0,0.0,0.0,0.0,0.0,0.0,0.0,0.0,0.0,0.0,0.0,0.0,0.0,0.0,0.0,0.0,0.0,0.0,0.0,0.0,0.0,0.0,0.0,0.0,0.0,0.0,0.0,0.0,0.0,0.0,0.0,0.0,0.0,0.0,0.0,0.0,0.0,0.0,0.0,0.0,0.0,0.0,0.0,0.0,0.0,0.0,0.0,0.0,0.0,0.0,0.0,0.0,0.0,0.0,0.0,0.0,0.0,0.0,0.0,0.0,0.0,0.0,0.0,0.0,0.0,0.0,0.0,0.0,0.0,0.0,0.0,0.0,0.0,0.0,0.0,0.0,0.0,0.0,0.0,0.0,3.2168,3.0124,3.095,3.4962,3.1853,3.0298,0.0,0.0,0.0,0.0,0.0,0.0,0.0,0.0,0.0,0.0,0.0,0.0,0.0,0.0,0.0,0.0,0.0,0.0,0.0,0.0,0.0,0.0,0.0,0.0,0.0,0.0,0.0,0.0,0.0,0.0,0.0,0.0,0.0,0.0,0.0,0.0,0.0,0.0,0.0,0.0,0.0,0.0,0.0,0.0,0.0,0.0,0.0,0.0,0.0,0.0,0.0,0.0,0.0,0.0,0.0,0.0,0.0,0.0,0.0,0.0,0.0,0.0,0.0,0.0,0.0,0.0,0.0,0.0,0.0,0.0,0.0,0.0,0.0,0.0,0.0,0.0,0.0,0.0,0.0,0.0,0.0,0.0,0.0,0.0,0.0,0.0,0.0,0.0,0.0,0.0,0.0,0.0,0.0,0.0,0.0,0.0,0.0,0.0,0.0,0.0,0.0,0.0,0.0,0.0,0.0,0.0,0.0,0.0,0.0,2.7061,2.8424,3.0936,3.4503,3.167,3.0529,0.0,0.0,0.0,0.0,0.0,0.0,0.0,0.0,0.0,0.0,0.0,0.0,0.0,0.0,0.0,0.0,0.0,0.0,0.0,0.0,0.0,0.0,0.0,0.0,0.0,0.0,0.0,0.0,0.0,0.0,0.0,0.0,0.0,0.0,0.0,0.0,0.0,0.0,0.0,0.0,0.0,0.0,0.0,0.0,0.0,0.0,0.0,0.0,0.0,0.0,0.0,0.0,0.0,0.0,0.0,0.0,0.0,0.0,0.0,0.0,0.0,0.0,0.0,0.0,0.0,0.0,0.0,0.0,0.0,0.0,0.0,0.0,0.0,0.0,0.0,0.0,0.0,0.0,0.0,0.0,0.0,0.0,0.0,0.0,0.0,0.0,0.0,0.0,0.0,0.0,0.0,0.0,0.0,0.0,0.0,0.0,0.0,0.0,0.0,0.0,0.0,0.0,0.0,0.0,0.0,0.0,0.0,0.0,0.0,2.7122,0.0,3.2982,3.4375,3.2038,3.0468,0.0,0.0,0.0,0.0,0.0,0.0,0.0,0.0,0.0,0.0,0.0,0.0,0.0,0.0,0.0,0.0,0.0,0.0,0.0,0.0,0.0,0.0,0.0,0.0,0.0,0.0,0.0,0.0,0.0,0.0,0.0,0.0,0.0,0.0,0.0,0.0,0.0,0.0,0.0,0.0,0.0,0.0,0.0,0.0,0.0,0.0,0.0,0.0,0.0,0.0,0.0,0.0,0.0,0.0,0.0,0.0,0.0,0.0,0.0,0.0,0.0,0.0,0.0,0.0,0.0,0.0,0.0,0.0,0.0,0.0,0.0,0.0,0.0,0.0,0.0,0.0,0.0,0.0,0.0,0.0,0.0,0.0,0.0,0.0,0.0,0.0,0.0,0.0,0.0,0.0,0.0,0.0,0.0,0.0,0.0,0.0,0.0,0.0,0.0,0.0,0.0,0.0,0.0,0.0,0.0,0.0,0.0,0.0,2.7055,3.3615,3.6631,3.7032,3.5134,3.3032,3.0196,0.0,0.0,0.0,0.0,0.0,0.0,0.0,0.0,0.0,0.0,0.0,0.0,0.0,0.0,0.0,0.0,0.0,0.0,0.0,0.0,0.0,0.0,0.0,0.0,0.0,0.0,0.0,0.0,0.0,0.0,0.0,0.0,0.0,0.0,0.0,0.0,0.0,0.0,0.0,0.0,0.0,0.0,0.0,0.0,0.0,0.0,0.0,0.0,0.0,0.0,0.0,0.0,0.0,0.0,0.0,0.0,0.0,0.0,0.0,0.0,0.0,0.0,0.0,0.0,0.0,0.0,0.0,0.0,0.0,0.0,0.0,0.0,0.0,0.0,0.0,0.0,0.0,0.0,0.0,0.0,0.0,0.0,0.0,0.0,0.0,0.0,0.0,0.0,0.0,0.0,0.0,0.0,0.0,0.0,0.0,0.0,0.0,0.0,0.0,0.0,0.0,0.0,0.0,0.0,0.0,0.0,0.0,0.0,0.0,2.9908,3.359,3.6664,3.8569,3.3501,3.177,0.0,0.0,0.0,0.0,0.0,0.0,0.0,0.0,0.0,0.0,0.0,0.0,0.0,0.0,0.0,0.0,0.0,0.0,0.0,0.0,0.0,0.0,0.0,0.0,0.0,0.0,0.0,0.0,0.0,0.0,0.0,0.0,0.0,0.0,0.0,0.0,0.0,0.0,0.0,0.0,0.0,0.0,0.0,0.0,0.0,0.0,0.0,0.0,0.0,0.0,0.0,0.0,0.0,0.0,0.0,0.0,0.0,0.0,0.0,0.0,0.0,0.0,0.0,0.0,0.0,0.0,0.0,0.0,0.0,0.0,0.0,0.0,0.0,0.0,0.0,0.0,0.0,0.0,0.0,0.0,0.0,0.0,0.0,0.0,0.0,0.0,0.0,0.0,0.0,0.0,0.0,0.0,0.0,0.0,0.0,0.0,0.0,0.0,0.0,0.0,0.0,0.0,0.0,0.0,0.0,0.0,0.0,0.0,0.0,3.1989,3.6197,3.9142,4.0393,3.5305,3.3284,3.4766,0.0,0.0,0.0,0.0,0.0,0.0,0.0,0.0,0.0,0.0,0.0,0.0,0.0,0.0,0.0,0.0,0.0,0.0,0.0,0.0,0.0,0.0,0.0,0.0,0.0,0.0,0.0,0.0,0.0,0.0,0.0,0.0,0.0,0.0,0.0,0.0,0.0,0.0,0.0,0.0,0.0,0.0,0.0,0.0,0.0,0.0,0.0,0.0,0.0,0.0,0.0,0.0,0.0,0.0,0.0,0.0,0.0,0.0,0.0,0.0,0.0,0.0,0.0,0.0,0.0,0.0,0.0,0.0,0.0,0.0,0.0,0.0,0.0,0.0,0.0,0.0,0.0,0.0,0.0,0.0,0.0,0.0,0.0,0.0,0.0,0.0,0.0,0.0,0.0,0.0,0.0,0.0,0.0,0.0,0.0,0.0,0.0,0.0,0.0,0.0,0.0,0.0,0.0,0.0,0.0,0.0,0.0,0.0,3.8384,4.3351,4.4181,4.073,3.8125,3.49,0.0,0.0,0.0,0.0,0.0,0.0,0.0,0.0,0.0,0.0,0.0,0.0,0.0,0.0,0.0,0.0,0.0,0.0,0.0,0.0,0.0,0.0,0.0,0.0,0.0,0.0,0.0,0.0,0.0,0.0,0.0,0.0,0.0,0.0,0.0,0.0,0.0,0.0,0.0,0.0,0.0,0.0,0.0,0.0,0.0,0.0,0.0,0.0,0.0,0.0,0.0,0.0,0.0,0.0,0.0,0.0,0.0,0.0,0.0,0.0,0.0,0.0,0.0,0.0,0.0,0.0,0.0,0.0,0.0,0.0,0.0,0.0,0.0,0.0,0.0,0.0,0.0,0.0,0.0,0.0,0.0,0.0,0.0,0.0,0.0,0.0,0.0,0.0,0.0,0.0,0.0,0.0,0.0,0.0,0.0,0.0,0.0,0.0,0.0,0.0,0.0,0.0,0.0,0.0,0.0,0.0,0.0,0.0,0.0,4.1184,4.6258,4.797,4.5838,4.0493,3.7077,0.0,0.0,0.0,0.0,0.0,0.0,0.0,0.0,0.0,0.0,0.0,0.0,0.0,0.0,0.0,0.0,0.0,0.0,0.0,0.0,0.0,0.0,0.0,0.0,0.0,0.0,0.0,0.0,0.0,0.0,0.0,0.0,0.0,0.0,0.0,0.0,0.0,0.0,0.0,0.0,0.0,0.0,0.0,0.0,0.0,0.0,0.0,0.0,0.0,0.0,0.0,0.0,0.0,0.0,0.0,0.0,0.0,0.0,0.0,0.0,0.0,0.0,0.0,0.0,0.0,0.0,0.0,0.0,0.0,0.0,0.0,0.0,0.0,0.0,0.0,0.0,0.0,0.0,0.0,0.0,0.0,0.0,0.0,0.0,0.0,0.0,0.0,0.0,0.0,0.0,0.0,0.0,0.0,0.0,0.0,0.0,0.0,0.0,0.0,0.0,0.0,0.0,0.0,0.0,0.0,0.0,0.0,0.0,4.0246,4.3624,4.848,5.0473,4.9292,4.435,4.0121,0.0,0.0,0.0,0.0,0.0,0.0,0.0,0.0,0.0,0.0,0.0,0.0,0.0,0.0,0.0,0.0,0.0,0.0,0.0,0.0,0.0,0.0,0.0,0.0,0.0,0.0,0.0,0.0,0.0,0.0,0.0,0.0,0.0,0.0,0.0,0.0,0.0,0.0,0.0,0.0,0.0,0.0,0.0,0.0,0.0,0.0,0.0,0.0,0.0,0.0,0.0,0.0,0.0,0.0,0.0,0.0,0.0,0.0,0.0,0.0,0.0,0.0,0.0,0.0,0.0,0.0,0.0,0.0,0.0,0.0,0.0,0.0,0.0,0.0,0.0,0.0,0.0,0.0,0.0,0.0,0.0,0.0,0.0,0.0,0.0,0.0,0.0,0.0,0.0,0.0,0.0,0.0,0.0,0.0,0.0,0.0,0.0,0.0,0.0,0.0,0.0,0.0,0.0,0.0,0.0,0.0,0.0,0.0,4.2037,4.5669,4.9999,5.1928,5.1048,4.8071,4.3132,0.0,0.0,0.0,0.0,0.0,0.0,0.0,0.0,0.0,0.0,0.0,0.0,0.0,0.0,0.0,0.0,0.0,0.0,0.0,0.0,0.0,0.0,0.0,0.0,0.0,0.0,0.0,0.0,0.0,0.0,0.0,0.0,0.0,0.0,0.0,0.0,0.0,0.0,0.0,0.0,0.0,0.0,0.0,0.0,0.0,0.0,0.0,0.0,0.0,0.0,0.0,0.0,0.0,0.0,0.0,0.0,0.0,0.0,0.0,0.0,0.0,0.0,0.0,0.0,0.0,0.0,0.0,0.0,0.0,0.0,0.0,0.0,0.0,0.0,0.0,0.0,0.0,0.0,0.0,0.0,0.0,0.0,0.0,0.0,0.0,0.0,0.0,0.0,0.0,0.0,0.0,0.0,0.0,0.0,0.0,0.0,0.0,0.0,0.0,0.0,0.0,0.0,0.0,0.0,0.0,0.0,0.0,0.0,4.2989,4.5703,5.0033,5.1657,5.0338,4.6312,4.2049,0.0,0.0,0.0,0.0,0.0,0.0,0.0,0.0,0.0,0.0,0.0,0.0,0.0,0.0,0.0,0.0,0.0,0.0,0.0,0.0,0.0,0.0,0.0,0.0,0.0,0.0,0.0,0.0,0.0,0.0,0.0,0.0,0.0,0.0,0.0,0.0,0.0,0.0,0.0,0.0,0.0,0.0,0.0,0.0,0.0,0.0,0.0,0.0,2.5281,0.0,0.0,0.0,0.0,0.0,0.0,0.0,0.0,0.0,0.0,0.0,0.0,0.0,0.0,0.0,0.0,0.0,0.0,0.0,0.0,0.0,0.0,0.0,0.0,0.0,0.0,0.0,0.0,0.0,0.0,0.0,0.0,0.0,0.0,0.0,0.0,0.0,0.0,0.0,0.0,0.0,0.0,0.0,0.0,0.0,0.0,0.0,0.0,0.0,0.0,0.0,0.0,0.0,0.0,0.0,0.0,0.0,0.0,0.0,4.4057,4.6688,5.0033,5.142,5.0541,4.6989,4.276,0.0,0.0,0.0,0.0,0.0,0.0,0.0,0.0,0.0,0.0,0.0,0.0,0.0,0.0,0.0,0.0,0.0,0.0,0.0,0.0,0.0,0.0,0.0,0.0,0.0,0.0,0.0,0.0,0.0,0.0,0.0,0.0,0.0,0.0,0.0,0.0,0.0,0.0,0.0,0.0,0.0,0.0,0.0,0.0,0.0,0.0,0.0,0.0,0.0,0.0,0.0,0.0,0.0,0.0,0.0,0.0,0.0,0.0,0.0,0.0,0.0,0.0,0.0,0.0,0.0,0.0,0.0,0.0,0.0,0.0,0.0,0.0,0.0,0.0,0.0,0.0,0.0,0.0,0.0,0.0,0.0,0.0,0.0,0.0,0.0,0.0,0.0,0.0,0.0,0.0,0.0,0.0,0.0,0.0,0.0,0.0,0.0,0.0,0.0,0.0,0.0,0.0,0.0,0.0,0.0,0.0,0.0,4.084,4.4553,4.7466,4.9729,5.0745,5.0507,4.824,4.4045,3.8024,0.0,0.0,0.0,0.0,0.0,0.0,0.0,0.0,0.0,0.0,0.0,0.0,0.0,0.0,0.0,0.0,0.0,0.0,0.0,0.0,0.0,0.0,0.0,0.0,0.0,0.0,0.0,0.0,0.0,0.0,0.0,0.0,0.0,0.0,0.0,0.0,0.0,0.0,2.6756,2.8774,0.0,0.0,0.0,0.0,0.0,0.0,0.0,0.0,2.7369,0.0,0.0,0.0,0.0,0.0,0.0,0.0,0.0,0.0,0.0,0.0,0.0,0.0,0.0,0.0,0.0,0.0,0.0,0.0,0.0,0.0,0.0,0.0,0.0,0.0,0.0,0.0,0.0,0.0,0.0,0.0,0.0,0.0,0.0,0.0,0.0,0.0,0.0,0.0,0.0,0.0,0.0,0.0,0.0,0.0,0.0,0.0,0.0,0.0,0.0,0.0,0.0,0.0,0.0,0.0,0.0,4.0223,4.1136,4.3031,4.6007,4.8206,4.8781,4.7564,4.7665,4.435,3.7438,0.0,0.0,0.0,0.0,0.0,0.0,0.0,0.0,0.0,0.0,0.0,0.0,0.0,0.0,0.0,0.0,0.0,0.0,0.0,0.0,0.0,0.0,0.0,0.0,0.0,0.0,0.0,0.0,0.0,0.0,0.0,0.0,0.0,0.0,0.0,0.0,0.0,0.0,0.0,3.3006,3.4151,0.0,0.0,0.0,0.0,0.0,0.0,0.0,0.0,2.8661,0.0,0.0,0.0,0.0,0.0,0.0,0.0,0.0,0.0,0.0,0.0,0.0,0.0,0.0,0.0,0.0,0.0,0.0,0.0,0.0,0.0,0.0,0.0,0.0,0.0,0.0,0.0,0.0,0.0,0.0,0.0,0.0,0.0,0.0,0.0,0.0,0.0,0.0,0.0,0.0,0.0,0.0,0.0,0.0,0.0,0.0,0.0,0.0,0.0,0.0,0.0,0.0,0.0,0.0,0.0,3.8826,4.1018,4.3431,4.6054,4.7523,4.7877,4.699,4.5765,4.2396,0.0,0.0,0.0,0.0,0.0,0.0,0.0,0.0,0.0,0.0,0.0,0.0,0.0,0.0,0.0,0.0,0.0,0.0,0.0,0.0,0.0,0.0,0.0,0.0,0.0,0.0,0.0,0.0,0.0,0.0,0.0,0.0,0.0,0.0,0.0,0.0,0.0,0.0,0.0,0.0,3.4636,3.5669,3.6612,0.0,0.0,0.0,0.0,0.0,0.0,3.0118,2.9966,0.0,0.0,0.0,0.0,0.0,0.0,0.0,0.0,0.0,0.0,0.0,0.0,0.0,0.0,0.0,0.0,0.0,0.0,0.0,0.0,0.0,0.0,0.0,0.0,0.0,0.0,0.0,0.0,0.0,0.0,0.0,0.0,0.0,0.0,0.0,0.0,0.0,0.0,0.0,0.0,0.0,0.0,0.0,0.0,0.0,0.0,0.0,0.0,0.0,0.0,0.0,0.0,0.0,0.0,0.0,3.7092,4.0466,4.3429,4.5805,4.6669,4.6925,4.67,4.4165,4.0742,0.0,0.0,0.0,0.0,0.0,0.0,0.0,0.0,0.0,0.0,0.0,0.0,0.0,0.0,0.0,0.0,0.0,0.0,0.0,0.0,0.0,0.0,0.0,0.0,0.0,0.0,0.0,0.0,0.0,0.0,0.0,0.0,0.0,0.0,0.0,0.0,0.0,0.0,0.0,0.0,0.0,3.733,3.8596,3.7283,0.0,0.0,0.0,0.0,3.1212,3.2254,0.0,0.0,0.0,0.0,0.0,0.0,0.0,0.0,0.0,0.0,0.0,0.0,0.0,0.0,0.0,0.0,0.0,0.0,0.0,0.0,0.0,0.0,0.0,0.0,0.0,0.0,0.0,0.0,0.0,0.0,0.0,0.0,0.0,0.0,0.0,0.0,0.0,0.0,0.0,0.0,0.0,0.0,0.0,0.0,0.0,0.0,0.0,0.0,0.0,0.0,0.0,0.0,0.0,0.0,0.0,0.0,3.779,3.9021,4.1073,4.3896,4.4817,4.5215,4.5172,4.4119,4.1436,0.0,0.0,0.0,0.0,0.0,0.0,0.0,0.0,0.0,0.0,0.0,0.0,0.0,0.0,0.0,0.0,0.0,0.0,0.0,0.0,0.0,0.0,0.0,0.0,0.0,0.0,0.0,0.0,0.0,0.0,0.0,0.0,0.0,0.0,0.0,0.0,0.0,0.0,0.0,0.0,0.0,4.0848,3.9059,3.8596,3.8042,0.0,0.0,3.6249,3.6663,3.8033,0.0,0.0,0.0,0.0,0.0,0.0,0.0,0.0,0.0,0.0,0.0,0.0,0.0,0.0,0.0,0.0,0.0,0.0,0.0,0.0,0.0,0.0,0.0,0.0,0.0,0.0,0.0,0.0,0.0,0.0,0.0,0.0,0.0,0.0,0.0,0.0,0.0,0.0,0.0,0.0,0.0,0.0,0.0,0.0,0.0,0.0,0.0,0.0,0.0,0.0,0.0,0.0,0.0,0.0,0.0,3.5631,3.8008,3.9903,4.215,4.4781,4.5622,4.595,4.5779,4.3272,4.0265,0.0,0.0,0.0,0.0,0.0,0.0,0.0,0.0,0.0,0.0,0.0,0.0,0.0,0.0,0.0,0.0,0.0,0.0,0.0,0.0,0.0,0.0,0.0,0.0,0.0,0.0,0.0,0.0,0.0,0.0,0.0,0.0,0.0,0.0,0.0,0.0,0.0,0.0,0.0,0.0,0.0,0.0,3.9606,3.991,0.0,0.0,0.0,3.7942,3.7817,0.0,0.0,0.0,0.0,0.0,0.0,0.0,0.0,0.0,0.0,0.0,0.0,0.0,0.0,0.0,0.0,0.0,0.0,0.0,0.0,0.0,0.0,0.0,0.0,0.0,0.0,0.0,0.0,0.0,0.0,0.0,0.0,0.0,0.0,0.0,0.0,0.0,0.0,0.0,0.0,0.0,0.0,0.0,0.0,0.0,0.0,0.0,0.0,0.0,0.0,0.0,0.0,0.0,0.0,0.0,0.0,0.0,3.8699,4.1069,4.3396,4.5574,4.6211,4.6399,4.6158,4.2539,0.0,0.0,0.0,0.0,0.0,0.0,0.0,0.0,0.0,0.0,0.0,0.0,0.0,0.0,0.0,0.0,0.0,0.0,0.0,0.0,0.0,0.0,0.0,0.0,0.0,0.0,0.0,2.7265,0.0,0.0,0.0,0.0,0.0,0.0,0.0,0.0,0.0,0.0,0.0,0.0,0.0,0.0,3.946,3.9833,4.0815,4.1417,0.0,0.0,3.9621,3.8933,3.9442,3.8594,0.0,0.0,0.0,0.0,0.0,0.0,0.0,0.0,0.0,0.0,0.0,0.0,0.0,0.0,0.0,0.0,0.0,0.0,0.0,0.0,0.0,0.0,0.0,0.0,0.0,0.0,0.0,0.0,0.0,0.0,0.0,0.0,0.0,0.0,0.0,0.0,0.0,0.0,0.0,0.0,0.0,0.0,0.0,0.0,0.0,0.0,0.0,0.0,0.0,0.0,0.0,0.0,0.0,0.0,0.0,4.0294,4.1993,4.3677,4.5269,4.5377,4.5377,4.5345,4.2341,3.9581,0.0,0.0,0.0,0.0,0.0,0.0,0.0,0.0,0.0,0.0,0.0,0.0,0.0,0.0,0.0,0.0,0.0,0.0,0.0,0.0,0.0,0.0,0.0,0.0,0.0,0.0,0.0,0.0,0.0,0.0,0.0,0.0,0.0,0.0,0.0,0.0,0.0,0.0,0.0,0.0,0.0,3.9982,3.936,4.107,4.2686,0.0,0.0,4.2039,4.1451,4.367,4.3276,3.6707,0.0,0.0,0.0,0.0,0.0,0.0,0.0,0.0,0.0,0.0,0.0,0.0,0.0,0.0,0.0,0.0,0.0,0.0,0.0,0.0,0.0,0.0,0.0,0.0,0.0,0.0,0.0,0.0,0.0,0.0,0.0,0.0,0.0,0.0,0.0,0.0,0.0,0.0,0.0,0.0,0.0,0.0,0.0,0.0,0.0,0.0,0.0,0.0,0.0,0.0,0.0,0.0,0.0,3.8964,4.1324,4.2977,4.487,4.6852,4.6961,4.6961,4.6961,4.3906,4.1103,0.0,0.0,0.0,0.0,0.0,0.0,0.0,0.0,0.0,0.0,0.0,0.0,0.0,0.0,0.0,0.0,0.0,0.0,0.0,0.0,0.0,0.0,0.0,0.0,0.0,0.0,0.0,0.0,3.0627,3.1055,3.1284,0.0,0.0,0.0,0.0,0.0,0.0,0.0,0.0,0.0,0.0,3.9861,4.0573,4.2211,0.0,0.0,4.3875,4.3242,4.2943,4.2296,4.061,3.6989,3.5101,0.0,0.0,0.0,0.0,0.0,0.0,0.0,0.0,0.0,0.0,0.0,0.0,0.0,0.0,0.0,0.0,0.0,0.0,0.0,0.0,0.0,0.0,0.0,0.0,0.0,0.0,0.0,0.0,0.0,0.0,0.0,0.0,0.0,0.0,0.0,0.0,0.0,0.0,0.0,0.0,0.0,0.0,0.0,0.0,0.0,0.0,0.0,0.0,0.0,0.0,0.0,0.0,3.9868,4.2232,4.3907,4.5823,4.7939,4.7992,4.7882,4.7554,4.4765,4.1973,0.0,0.0,0.0,0.0,0.0,0.0,0.0,0.0,0.0,0.0,0.0,0.0,0.0,0.0,0.0,0.0,0.0,0.0,0.0,0.0,0.0,0.0,0.0,0.0,0.0,0.0,0.0,0.0,3.1653,3.2125,3.2565,0.0,0.0,0.0,0.0,0.0,0.0,0.0,0.0,0.0,0.0,4.0558,4.1825,4.3331,4.4468,4.492,4.4353,4.372,4.3462,4.1622,3.9647,3.7944,0.0,0.0,0.0,0.0,0.0,0.0,0.0,0.0,0.0,0.0,0.0,0.0,0.0,0.0,0.0,0.0,0.0,0.0,0.0,0.0,0.0,0.0,0.0,0.0,0.0,0.0,0.0,0.0,0.0,0.0,4.1111,0.0,0.0,0.0,0.0,0.0,0.0,0.0,0.0,0.0,0.0,0.0,0.0,0.0,0.0,0.0,0.0,0.0,0.0,0.0,0.0,0.0,0.0,4.065,4.3032,4.4709,4.637,4.7939,4.8012,4.7647,4.6861,4.4565,4.1823,3.8643,0.0,0.0,0.0,0.0,0.0,0.0,0.0,0.0,0.0,0.0,0.0,0.0,0.0,0.0,0.0,0.0,0.0,0.0,0.0,0.0,0.0,0.0,0.0,0.0,0.0,0.0,3.3125,3.3211,3.3136,0.0,0.0,0.0,0.0,0.0,0.0,0.0,0.0,0.0,0.0,4.0306,4.2338,4.2918,4.4242,4.5142,4.5076,4.4299,4.3496,4.2851,4.2638,4.1962,0.0,0.0,0.0,0.0,0.0,0.0,0.0,0.0,0.0,0.0,0.0,0.0,0.0,0.0,0.0,0.0,0.0,0.0,0.0,0.0,0.0,0.0,0.0,0.0,0.0,0.0,0.0,4.6859,4.6523,0.0,0.0,0.0,0.0,0.0,0.0,0.0,0.0,0.0,0.0,0.0,4.6251,4.601,0.0,0.0,0.0,0.0,0.0,0.0,0.0,0.0,0.0,0.0,0.0,0.0,4.1406,4.3286,4.4931,4.6597,4.8136,4.8209,4.8099,4.7787,4.5993,4.3262,3.9559,0.0,0.0,0.0,0.0,0.0,0.0,0.0,0.0,0.0,0.0,0.0,0.0,0.0,0.0,0.0,0.0,0.0,0.0,0.0,0.0,0.0,0.0,0.0,0.0,0.0,3.3378,0.0,0.0,0.0,0.0,0.0,0.0,0.0,0.0,0.0,0.0,0.0,3.9588,4.0405,4.2287,4.365,4.3909,4.5185,4.6105,0.0,0.0,0.0,0.0,0.0,0.0,0.0,0.0,0.0,0.0,0.0,0.0,0.0,0.0,4.2239,3.6037,3.5166,3.5203,3.4457,0.0,0.0,0.0,0.0,0.0,0.0,0.0,0.0,0.0,0.0,0.0,0.0,0.0,0.0,5.0907,0.0,4.9167,0.0,0.0,0.0,0.0,0.0,0.0,0.0,0.0,4.9202,5.0149,5.0858,5.0139,4.951,0.0,4.7223,4.5038,0.0,0.0,0.0,0.0,0.0,0.0,0.0,0.0,4.2497,4.3814,4.5462,4.6985,4.8233,4.8306,4.8306,4.8269,4.6214,4.3718,4.0818,3.7624,3.5642,0.0,0.0,0.0,0.0,0.0,0.0,0.0,0.0,0.0,0.0,0.0,0.0,0.0,0.0,0.0,0.0,0.0,0.0,0.0,0.0,0.0,0.0,0.0,3.4651,0.0,0.0,0.0,0.0,0.0,0.0,0.0,0.0,0.0,3.8919,4.0348,4.1782,4.2858,4.41,4.5089,4.5624,0.0,0.0,0.0,0.0,0.0,0.0,0.0,4.2731,4.2137,4.152,4.1288,4.1846,4.3491,4.4683,4.4401,0.0,0.0,4.0326,3.9384,3.92,3.8481,3.8773,3.9171,3.9171,3.956,3.959,0.0,0.0,0.0,0.0,0.0,0.0,0.0,0.0,5.4005,5.416,0.0,5.2288,0.0,0.0,0.0,0.0,0.0,5.0776,0.0,0.0,5.5655,5.6877,5.6781,5.42,5.3237,5.374,5.1136,4.9104,4.7516,4.3496,0.0,0.0,0.0,0.0,0.0,0.0,4.3814,4.4674,4.6268,4.748,4.8269,4.8306,4.8306,4.8233,4.5296,4.3277,4.2323,3.9365,3.7603,3.7492,3.5973,0.0,0.0,0.0,0.0,0.0,0.0,0.0,0.0,0.0,0.0,0.0,0.0,0.0,0.0,0.0,0.0,0.0,0.0,0.0,0.0,3.5826,0.0,0.0,0.0,0.0,0.0,0.0,0.0,0.0,0.0,0.0,4.0632,4.1895,4.3507,4.5023,0.0,0.0,0.0,0.0,4.6707,4.6531,4.5951,4.5352,4.4838,4.5666,4.6341,4.6255,0.0,0.0,4.512,4.4475,4.42,4.3331,4.4401,4.5285,4.7142,4.5388,4.3774,4.3054,4.1966,4.1039,4.1004,4.1605,4.1456,6.6274,0.0,0.0,0.0,0.0,5.996,6.1129,6.3131,6.1779,6.0981,6.0512,5.7989,0.0,0.0,0.0,0.0,0.0,0.0,5.5564,5.7256,5.7721,5.8667,5.9982,5.8895,5.798,5.717,5.6133,5.3913,5.0638,4.9179,4.6227,4.2008,0.0,0.0,0.0,0.0,4.4123,4.548,4.6562,4.748,4.8306,4.8306,4.8306,4.8306,4.6874,4.5443,4.403,4.2029,4.012,3.8432,3.7367,0.0,0.0,0.0,0.0,0.0,0.0,0.0,0.0,0.0,0.0,0.0,0.0,0.0,0.0,0.0,0.0,0.0,0.0,0.0,3.5936,3.667,3.7162,0.0,0.0,0.0,0.0,0.0,0.0,0.0,0.0,0.0,4.4126,4.5583,4.6825,0.0,0.0,4.8161,4.7429,4.798,4.8453,4.8345,4.8634,0.0,4.7358,4.7464,4.77,4.777,4.9293,5.0315,4.9684,4.9959,5.0182,4.9892,5.0198,5.0597,5.0868,4.8243,4.5909,4.5704,4.6618,4.7548,4.7657,4.8453,4.8663,7.4319,6.7944,6.4805,6.4269,6.5494,6.536,6.6677,6.8746,6.7142,6.6493,6.6444,6.3297,6.0661,5.8463,5.6066,0.0,0.0,0.0,5.9745,6.1583,6.1332,6.2018,6.3382,6.2113,6.118,6.0592,5.9278,5.7234,5.4541,5.3715,5.0997,4.651,0.0,0.0,4.3754,4.4525,4.5406,4.6361,4.7186,4.781,4.8287,4.8306,4.8306,4.8287,4.7205,4.6324,4.5645,4.3497,4.1625,4.0194,3.8726,3.7603,0.0,0.0,0.0,0.0,0.0,0.0,0.0,0.0,0.0,0.0,0.0,3.5518,3.5518,0.0,0.0,0.0,3.7074,3.7404,3.7698,3.8138,0.0,0.0,0.0,0.0,0.0,0.0,0.0,4.3204,4.4215,4.5462,4.7056,4.8412,4.9089,4.8719,4.9102,4.9285,4.9015,0.0,4.9768,4.9747,5.0185,5.0125,4.91,4.9303,4.9739,5.0087,5.0897,5.1566,5.1602,5.1784,5.1857,5.1857,5.1857,5.1879,5.1922,4.9794,4.8254,4.8566,4.93,4.9977,5.0326,5.0946,5.0939,8.1074,7.8273,7.1957,6.9654,7.0177,7.0891,7.1711,7.2364,7.0805,7.0988,7.2069,6.8125,6.6166,6.5705,6.258,0.0,6.2465,6.3155,6.4421,6.6019,6.5904,6.6211,6.6758,6.4206,6.3253,6.3794,6.1164,5.9555,5.8805,5.7262,5.5072,5.2272,4.9264,4.7206,4.6177,4.6819,4.7223,4.7296,4.8012,4.8416,4.8416,4.8416,4.8379,4.8306,4.6874,4.6434,4.6966,4.4195,4.2543,4.2323,4.023,3.8615,3.7823,0.0,0.0,0.0,0.0,0.0,0.0,0.0,0.0,0.0,0.0,0.0,0.0,0.0,0.0,0.0,3.8484,0.0,4.0152,4.0226,0.0,0.0,0.0,4.2868,4.3688,4.4412,4.4837,4.491,0.0,0.0,4.941,5.0328,5.0545,4.9711,4.9598,5.0167,5.172,5.1161,5.0774,5.0872,5.0965,5.0842,5.0461,5.11,5.1922,5.2441,5.2207,5.1828,5.1755,5.128,5.0733,5.0842,5.066,5.0775,5.0822,5.0822,5.0984,5.1499,5.0493,4.9711,5.0404,5.0258,5.0076,8.5044,8.3067,8.0161,7.7524,7.5264,7.548,7.6071,7.6763,7.5879,7.5293,7.487,7.1962,6.9231,6.6769,6.591,6.6013,6.6845,6.7051,6.7691,6.8666,6.8037,6.7499,6.7038,6.6331,6.5433,6.4329,6.3636,6.2386,6.0677,5.9635,5.7658,5.4985,5.4063,5.167,4.7884,4.7939,4.8343,4.9023,4.9206,4.9317,4.9317,4.928,4.8967,4.8343,4.7939,4.7516,4.7076,4.5773,4.4488,4.3294,4.2066,4.1075,4.0251,3.9574,0.0,0.0,0.0,0.0,0.0,0.0,0.0,0.0,0.0,3.7919,3.7272,0.0,3.979,0.0,4.0662,4.1903,4.2795,4.2869,0.0,0.0,4.4267,4.4435,4.4674,4.5395,4.6061,4.6688,4.7628,4.8882,5.0506,5.0875,5.1207,5.1536,5.145,5.1332,5.1169,5.1479,5.1662,5.1756,5.2134,5.2432,5.2272,5.2477,5.2761,5.29,5.2856,5.2846,5.281,5.2663,5.2517,5.2517,5.2517,5.2538,5.2538,5.2595,5.2611,5.2736,5.2004,5.1364,5.1584,5.1894,5.1909,8.7671,8.5363,8.4401,8.2429,7.9889,7.9169,7.9146,7.953,7.8769,7.813,7.7553,7.5014,7.2629,7.0514,7.0129,7.0206,7.0667,7.0654,7.0937,7.1321,7.009,6.9244,6.8744,6.7628,6.6615,6.5654,6.5269,6.4295,6.2776,6.185,6.0341,5.8242,5.7428,5.5388,5.2215,5.1269,5.0786,5.0718,5.0331,5.0164,5.0105,4.9794,4.939,4.8857,4.8197,4.7628,4.7224,4.6084,4.5089,4.4223,4.3413,4.2603,4.183,4.143,4.0987,0.0,0.0,0.0,0.0,0.0,0.0,0.0,0.0,0.0,0.0,0.0,4.1866,4.214,4.3021,4.3771,4.4264,4.4317,4.4814,4.6032,4.6441,4.6905,4.7697,4.8142,4.855,4.8993,4.9437,5.0175,5.1469,5.1653,5.1949,5.2705,5.2716,5.2488,5.2059,5.2316,5.2573,5.261,5.2873,5.3082,5.3082,5.3082,5.3082,5.3103,5.3146,5.3203,5.3203,5.3203,5.3203,5.3203,5.3203,5.3203,5.3203,5.323,5.3251,5.3178,5.2946,5.2688,5.2548,5.2601,5.236,8.9325,8.644,8.6209,8.5132,8.3478,8.19,8.1246,8.1208,8.0439,8.0015,7.9669,7.7476,7.6015,7.5168,7.4437,7.4091,7.3976,7.3846,7.3745,7.3553,7.1975,7.1129,7.0821,6.8629,6.7398,6.7051,6.6397,6.559,6.4743,6.3796,6.2744,6.1506,6.003,5.8622,5.7359,5.587,5.4241,5.2518,5.1797,5.1386,5.1263,5.0512,5.0017,4.976,4.8365,4.7519,4.7279,4.6005,4.5244,4.5134,4.4375,4.3673,4.3081,4.3013,4.2696,0.0,4.2088,0.0,0.0,0.0,0.0,0.0,0.0,0.0,0.0,4.2453,4.3615,4.5167,4.5443,4.5517,4.5645,4.5756,4.6456,4.7895,4.8603,4.9584,5.1028,5.1194,5.1174,5.1285,5.1285,5.1581,5.2358,5.2486,5.2782,5.3356,5.3467,5.337,5.3343,5.3265,5.3265,5.3339,5.3293,5.323,5.323,5.323,5.323,5.323,5.323,5.323,5.323,5.323,5.3267,5.3267,5.323,5.3267,5.323,5.3314,5.3318,5.3339,5.3363,5.3383,5.3182,5.2737,5.2422,9.0017,8.8094,8.6671,8.5132,8.3516,8.2516,8.2093,8.2054,8.19,8.1054,7.9785,7.9285,7.8592,7.7784,7.763,7.7207,7.6553,7.5861,7.5168,7.4437,7.3476,7.2245,7.0898,7.0398,6.909,6.7167,6.6936,6.6436,6.5628,6.4718,6.3796,6.2938,6.2475,6.1693,6.0539,0.0,0.0,0.0,5.4372,5.4141,5.387,5.3121,5.2149,5.0876,4.9916,0.0,4.748,4.7091,4.6648,4.5983,4.5208,0.0,0.0,0.0,0.0,0.0,0.0,0.0,0.0,0.0,0.0,0.0,4.5049,4.4757,4.3504,4.4079,4.5258,4.6954,4.7695,4.836,4.9061,4.9783,5.0303,5.0655,5.0786,5.1009,5.1306,5.138,5.1584,5.2215,5.2326,5.2586,5.3309,5.3514,5.3551,5.368,5.3737,5.3716,5.3617,5.3538,5.3461,5.344,5.3457,5.3457,5.342,5.3457,5.3437,5.3457,5.3457,5.342,5.3457,5.342,5.342,5.342,5.342,5.3383,5.3383,5.344,5.3387,5.3461,5.3444,5.3481,5.3477,5.331,5.3051,9.121,0.0,8.7902,8.6401,0.0,8.4362,8.3939,8.3478,8.2247,8.1208,8.0439,7.9977,7.9554,7.9092,7.8669,7.8284,7.7861,7.7015,7.6399,7.5899,7.4668,7.3399,7.2168,7.1283,7.0014,6.8398,6.7936,6.7513,6.709,6.6218,6.5538,6.5116,6.4244,6.3444,6.2771,6.2345,6.0497,5.7247,5.6404,5.5902,5.5657,5.4758,5.3661,5.2531,5.1601,0.0,0.0,0.0,0.0,0.0,0.0,0.0,0.0,4.7784,0.0,4.7545,4.7596,4.7431,4.6937,4.7253,4.7492,4.7545,4.8321,4.8098,4.647,4.6692,4.7636,4.9303,4.9859,5.0248,5.0711,5.1156,5.1565,5.1936,5.1974,5.2122,5.2531,5.2605,5.2754,5.3088,5.32,5.3385,5.3757,5.3794,5.3794,5.3794,5.3794,5.3812,5.3754,5.3657,5.3578,5.3501,5.3578,5.3578,5.3538,5.3481,5.3481,5.3481,5.3481,5.3481,5.3481,5.3148,5.289,5.289,5.2594,5.2336,5.2299,5.2338,5.2358,5.2377,5.2416,5.2454,5.2528,5.3006,5.3259,9.221,8.9863,8.9171,8.7902,8.6324,8.617,8.5555,8.4516,0.0,0.0,0.0,8.0362,8.0015,7.9977,7.9285,7.8861,7.8669,7.8054,7.7592,7.7246,7.5822,7.4668,7.3668,7.2129,7.086,6.9898,6.9052,6.8552,6.8398,6.7667,6.7295,6.7126,6.5845,6.5035,6.468,6.2988,6.1477,6.0227,5.8387,5.7363,5.7168,5.6108,5.5137,5.4391,5.3365,5.2028,5.036,5.0452,5.0413,5.0116,5.0116,5.019,5.0339,5.0376,5.0153,4.9633,4.9707,4.9672,4.9489,4.9489,4.9712,5.0231,5.0934,5.0822,4.9447,4.9336,4.993,5.1305,5.1528,5.1602,5.1602,5.1751,5.2085,5.2754,5.2828,5.3088,5.3683,5.3794,5.3757,5.3794,5.3757,5.3794,5.3794,5.3794,5.3794,5.3794,5.3794,5.3794,5.3775,5.3754,5.3676,5.3617,5.3657,5.3676,5.3561,5.3561,5.3541,5.3561,5.3561,5.3541,5.3467,5.3023,5.2616,5.2747,5.2025,5.1803,5.1655,5.186,5.1639,5.1639,5.1751,5.1825,5.1918,5.2733,5.3228,9.221,8.9902,8.9787,8.8748,8.7171,8.6401,8.5209,8.3708,8.2593,8.1747,8.1093,8.0977,8.0939,8.09,8.0785,8.0323,7.9631,7.9515,7.8669,7.7323,7.7015,7.6092,7.4514,7.3591,7.2283,7.0744,6.9898,6.9129,6.8475,6.8269,6.8192,6.8179,6.7908,6.7341,6.6476,6.4781,6.3791,6.3565,6.0827,5.9197,5.8765,5.7922,5.708,5.6239,5.5305,5.3665,5.1376,5.1936,5.1602,5.0265,5.0153,5.045,5.1156,5.1286,5.1491,5.2048,5.2717,5.2828,5.2141,5.2067,5.1807,5.1287,5.1342,5.1268,5.1082,5.1045,5.1156,5.1416,5.2048,5.2419,5.2457,5.3014,5.3423,5.3571,5.3608,5.3683,5.3794,5.3794,5.3794,5.3794,5.3794,5.3794,5.3794,5.3794,5.3794,5.3794,5.3794,5.3794,5.3794,5.3812,5.3812,5.3793,5.3793,5.3793,5.3737,5.3756,5.3737,5.3756,5.3737,5.3717,5.3717,5.3532,5.3383,5.3514,5.3198,5.318,5.318,5.3422,5.3162,5.305,5.3032,5.3162,5.3088,5.3385,5.3217,9.2787,9.1248,9.0325,8.921,8.8055,8.7171,8.6094,8.4901,8.4055,8.2978,8.1747,8.1285,8.0823,8.0362,7.99,7.9246,7.8438,7.8438,7.7784,7.6669,7.7053,7.6399,7.4784,7.4322,7.3245,7.1668,7.1245,7.0591,6.9783,6.9321,6.909,6.9077,6.8562,6.8098,6.7634,6.6821,6.5959,6.492,6.2635,6.1353,6.1107,6.0068,5.9098,5.8238,5.7174,5.5902,5.4335,5.4578,5.441,5.3702,5.3628,5.3814,5.4187,5.4224,5.4354,5.4651,5.4986,5.5041,5.4648,5.4611,5.4463,5.4091,5.4054,5.4054,5.4054,5.2828,5.2234,5.2679,5.3051,5.3237,5.3237,5.3571,5.3794,5.3794,5.3794,5.3794,5.3794,5.3794,5.3794,5.3794,5.3794,5.3794,5.3794,5.3794,5.3794,5.3794,5.3794,5.3794,5.3794,5.3794,5.3794,5.3794,5.3794,5.3794,5.3794,5.3794,5.3794,5.3794,5.3794,5.3794,5.3757,5.3534,5.32,5.3088,5.2865,5.2531,5.2531,5.2494,5.2494,5.2494,5.2494,5.2494,5.2494,5.2494,5.2345,9.3095,9.2056,9.0748,8.971,8.8902,8.8055,8.7209,8.6324,8.5324,8.4132,8.2862,8.2016,8.1208,8.0323,7.9631,7.8938,7.8169,7.7746,7.7092,7.6399,7.6592,7.5899,7.4514,7.4245,7.3437,7.2322,7.2206,7.1745,7.0937,7.0475,7.0167,6.9898,6.9036,6.8625,6.8625,6.8363,6.7525,6.6126,6.4762,6.3626,6.2742,6.1733,6.0887,6.0179,5.9271,5.8278,5.7342,5.7192,5.7005,5.6631,5.6613,5.6594,5.6594,5.6594,5.6556,5.6442,5.6442,5.6384,5.6323,5.6283,5.6263,5.6243,5.6223,5.6203,5.6054,5.4496,5.3625,5.4221,5.4388,5.4388,5.4388,5.4426,5.4388,5.4351,5.4351,5.4463,5.4388,5.4351,5.4388,5.4351,5.4203,5.4091,5.4054,5.3905,5.3794,5.3794,5.3794,5.3794,5.3794,5.3794,5.3794,5.3794,5.3794,5.3794,5.3794,5.3794,5.3794,5.3794,5.3794,5.3794,5.372,5.3274,5.294,5.294,5.2494,5.2271,5.2048,5.2048,5.2159,5.2271,5.2345,5.2159,5.2234,5.2234,5.1974,9.2787,9.1402,9.1133,9.0594,8.971,8.894,8.8094,8.7132,8.5632,8.4824,8.4516,8.3747,8.2862,8.2131,8.1862,8.1285,8.04,7.9054,7.7953,7.7015,7.563,7.4476,7.3783,7.2899,7.236,7.2245,7.2283,7.1898,7.1129,7.1629,7.1591,7.0783,6.9962,6.9654,6.9538,6.8779,6.8252,6.8046,6.7788,6.6002,6.2833,6.2373,6.2163,6.2001,6.1712,6.0848,5.9305,5.9065,5.8259,5.6855,5.6743,5.6668,5.6687,5.6631,5.6631,5.6668,5.6668,5.6537,5.6421,5.6286,5.6317,5.6142,5.6208,5.6166,5.6166,5.5849,5.5727,5.6057,5.6134,5.5929,5.606,5.5986,5.5892,5.5817,5.5912,5.606,5.5949,5.606,5.6097,5.606,5.5317,5.4889,5.4815,5.4388,5.3943,5.4054,5.4128,5.4128,5.4091,5.4091,5.4054,5.3943,5.3868,5.3868,5.3831,5.3794,5.3794,5.3794,5.3794,5.3794,5.3757,5.3757,5.3683,5.346,5.3534,5.3348,5.3385,5.3571,5.346,5.3237,5.3311,5.3497,5.3571,5.346,5.3088,9.3287,9.2595,9.1595,9.1018,9.0594,8.9787,8.894,8.8055,8.6901,8.6094,8.5593,8.5209,8.3785,8.1593,8.1054,8.0131,7.8861,7.8592,7.8054,7.7323,7.7015,7.6515,7.5707,7.4861,7.4207,7.3707,7.3668,7.3245,7.2629,7.2822,7.2783,7.2437,7.2091,7.1937,7.1885,7.1063,7.0343,6.9802,6.927,6.7927,6.5987,6.4708,6.3785,6.3158,6.2566,6.1949,6.1178,6.0977,6.0603,5.9963,5.9871,5.9853,5.9853,5.9853,5.9834,5.9797,5.9683,5.9606,5.951,5.941,5.9329,5.9326,5.9248,5.9206,5.9206,5.9206,5.9248,5.9102,5.7394,5.6043,5.6138,5.6142,5.6183,5.6183,5.6243,5.632,5.632,5.632,5.632,5.6283,5.6023,5.5763,5.5726,5.5503,5.528,5.528,5.528,5.5206,5.5243,5.528,5.528,5.528,5.528,5.4797,5.4128,5.3794,5.3831,5.3831,5.3794,5.3794,5.3868,5.3794,5.3794,5.3831,5.3943,5.3943,5.372,5.3794,5.3794,5.3868,5.3831,5.3794,5.3794,5.3794,5.3423,9.3557,9.3172,9.1787,9.121,9.1133,9.0269,8.944,8.8632,8.7786,8.6901,8.6132,8.6094,8.467,8.2285,8.1477,8.0246,7.8823,7.8784,7.8438,7.7669,7.7784,7.7361,7.6553,7.5976,7.5207,7.4514,7.4553,7.4399,7.386,7.3577,7.35,7.35,7.35,7.35,7.3437,7.2629,7.1885,7.1175,7.034,6.9462,6.8401,6.7118,6.5932,6.4938,6.4229,6.3689,6.3372,6.3285,6.3005,6.2571,6.2516,6.2422,6.2196,6.2196,6.2178,6.2088,6.194,6.1825,6.1806,6.1669,6.1569,6.1548,6.1487,6.1446,6.1446,6.1425,6.1405,6.1102,5.8916,5.7392,5.7064,5.7064,5.7047,5.6825,5.6829,5.6887,5.6924,5.6887,5.6924,5.6871,5.6681,5.6405,5.624,5.6129,5.6112,5.6112,5.6226,5.632,5.632,5.6246,5.6246,5.632,5.6283,5.58,5.4723,5.4611,5.45,5.45,5.4611,5.4648,5.45,5.45,5.45,5.4983,5.4611,5.4537,5.4797,5.4686,5.4463,5.45,5.45,5.45,5.4723,5.4537,5.4537,9.3249,9.2479,9.1595,9.121,9.1133,9.0325,8.9479,8.8632,8.7786,8.6901,8.617,8.6055,8.5555,8.4632,8.4439,8.367,8.1939,8.0439,7.94,7.8515,7.7053,7.5745,7.4822,7.4745,7.4437,7.4091,7.4553,7.4745,7.463,7.3937,7.35,7.3553,7.3654,7.3591,7.3514,7.2822,7.2206,7.2154,7.1329,7.0364,6.9568,6.9304,6.8656,6.767,6.7457,6.6836,6.6248,6.6104,6.5386,6.3828,6.3706,6.3331,6.2576,6.2538,6.2614,6.2559,6.2359,6.2271,6.2257,6.2222,6.2031,6.1821,6.1905,6.1517,6.1936,6.1815,6.1773,6.131,6.1316,6.0699,6.0071,5.9589,5.9165,5.8513,5.8354,5.8369,5.8385,5.8412,5.8341,5.8237,5.7814,5.726,5.633,5.606,5.6475,5.6533,5.6446,5.6617,5.6823,5.6637,5.6712,5.6637,5.66,5.632,5.6209,5.58,5.5912,5.5837,5.5652,5.5986,5.6134,5.6209,5.6134,5.606,5.5874,5.5837,5.6097,5.6097,5.5949,5.5874,5.58,5.5837,5.5577,5.5986,5.5912,9.2903,9.1672,9.1325,9.121,9.1171,9.0864,8.994,8.8632,8.7786,8.6901,8.6094,8.5593,8.544,8.567,8.567,8.4747,8.3093,8.1939,8.1208,8.0746,7.9208,7.8284,7.79,7.6899,7.6245,7.5976,7.5668,7.5515,7.5515,7.5207,7.513,7.5091,7.5091,7.5091,7.4938,7.4245,7.3822,7.3745,7.2947,7.2112,7.1223,7.1156,7.0646,6.9682,6.8517,6.7744,6.7439,6.7337,6.7022,6.645,6.6396,6.6195,6.5884,6.5796,6.58,6.58,6.5694,6.5586,6.555,6.5443,6.5388,6.5313,6.5257,6.5067,6.5199,6.5161,6.5141,6.5046,6.4966,6.4587,6.3551,6.201,6.0657,6.0396,6.0343,6.0306,6.0364,6.0401,6.038,6.0221,5.9897,5.9573,5.9202,5.9319,5.9377,5.9399,5.9409,5.9396,5.9492,5.9533,5.9275,5.894,5.875,5.8541,5.7982,5.6881,5.6283,5.6283,5.6246,5.6283,5.6357,5.6526,5.6452,5.6583,5.662,5.6843,5.7012,5.7029,5.6955,5.6843,5.6786,5.7066,5.6283,5.7029,5.6843,9.2479,9.1287,9.121,9.121,9.121,9.121,9.0248,8.8671,8.7786,8.6901,8.6055,8.5247,8.5363,8.6017,8.6094,8.5555,8.4324,8.3247,8.2554,8.217,8.0862,8.0054,7.9631,7.8631,7.7784,7.7207,7.6399,7.5976,7.5976,7.5976,7.5976,7.5976,7.5976,7.5976,7.5861,7.513,7.4707,7.4553,7.3923,7.314,7.2597,7.2558,7.2261,7.1564,7.0392,6.9466,6.8923,6.8824,6.8656,6.8411,6.8373,6.8227,6.7973,6.7888,6.7855,6.7839,6.7697,6.7664,6.7647,6.7618,6.7511,6.7514,6.744,6.746,6.7425,6.7426,6.737,6.739,6.7259,6.6862,6.6144,6.4461,6.2885,6.2068,6.1637,6.1487,6.1409,6.1388,6.1309,6.1167,6.1044,6.1076,6.115,6.1134,6.1119,6.1252,6.13,6.1384,6.1384,6.1388,6.1338,6.0815,6.0492,6.0021,5.9421,5.8392,5.7661,5.7529,5.7212,5.7026,5.7029,5.7066,5.7124,5.7181,5.7387,5.7647,5.7833,5.7871,5.7871,5.7796,5.8432,5.9011,5.8544,5.8263,5.83,9.2018,9.1248,9.121,9.121,9.121,9.121,9.0248,8.8825,8.7786,8.694,8.6209,8.5286,8.5363,8.5978,8.6094,8.6017,8.5517,8.4132,8.3093,8.2362,8.1439,8.0592,7.9939,7.9669,7.8746,7.7438,7.6476,7.6053,7.613,7.6053,7.5976,7.5976,7.5976,7.5976,7.5976,7.5245,7.4784,7.4668,7.413,7.3615,7.35,7.3462,7.3423,7.3308,7.314,7.2313,7.0799,7.0723,7.0377,6.9711,6.9557,6.9097,6.8737,6.8531,6.8354,6.8478,6.8242,6.8097,6.812,6.8135,6.8171,6.8106,6.7833,6.7897,6.7943,6.778,6.7744,6.7782,6.7708,6.7558,6.7576,6.7162,6.5955,6.3516,6.2646,6.2228,6.1861,6.1554,6.1416,6.1576,6.1741,6.1305,6.1289,6.1731,6.1943,6.1927,6.184,6.1885,6.196,6.2018,6.1715,6.1545,6.147,6.1188,6.0584,6.0017,5.9471,5.9,5.857,5.8252,5.8446,5.8524,5.8713,5.8828,5.9258,5.9519,5.978,5.9855,6.0136,6.0248,6.0774,6.0699,6.0285,5.9987,6.0455,9.1979,9.1248,9.121,9.121,9.121,9.121,9.0556,8.9402,8.8055,8.7248,8.6786,8.5517,8.5363,8.5978,8.6094,8.5824,8.5209,8.4093,8.3439,8.2978,8.1747,8.0977,8.0631,8.0092,7.9208,7.813,7.7284,7.6899,7.6784,7.6322,7.5976,7.5976,7.6015,7.5976,7.5976,7.5707,7.5592,7.5553,7.5361,7.4976,7.4399,7.4322,7.4091,7.3538,7.35,7.3178,7.2674,7.2635,7.252,7.216,7.2213,7.2069,7.1641,7.1121,7.0823,7.0746,7.0194,6.9834,6.9873,6.9858,6.9827,6.9797,6.9743,6.9727,6.9696,6.961,6.9594,6.9633,6.96,6.9513,6.942,6.8862,6.7742,6.6144,6.5748,6.5275,6.5046,6.5078,6.5165,6.5086,6.5024,6.4945,6.4795,6.4516,6.3954,6.39,6.3661,6.3383,6.3421,6.3288,6.3215,6.2839,6.2591,6.2191,6.1551,6.108,6.0757,6.0133,5.9624,5.9454,5.9665,5.9818,6.0045,6.0479,6.091,6.1266,6.1566,6.1735,6.1905,6.1735,6.1528,6.1491,6.1487,6.1678,6.2,9.171,9.121,9.121,9.121,9.121,9.121,9.0517,8.9363,8.7979,8.7209,8.6671,8.5517,8.5363,8.5978,8.6094,8.5824,8.5247,8.417,8.3593,8.3324,8.1862,8.1131,8.0977,8.0208,7.9554,7.8938,7.813,7.7746,7.7707,7.7207,7.6784,7.6553,7.6476,7.6322,7.6053,7.5976,7.5976,7.5976,7.5976,7.5707,7.5284,7.5207,7.4938,7.4514,7.4437,7.4437,7.4437,7.4437,7.413,7.363,7.35,7.3447,7.3327,7.2822,7.2562,7.2447,7.2101,7.1718,7.1718,7.1718,7.1549,7.1304,7.1227,7.1006,7.0799,7.0723,7.0723,7.0708,7.057,7.0555,7.0463,7.0056,6.9284,6.8642,6.7797,6.7519,6.7334,6.7146,6.6954,6.6763,6.6779,6.6852,6.6681,6.6154,6.5665,6.5514,6.4952,6.4463,6.4463,6.4406,6.4124,6.386,6.367,6.3122,6.2425,6.2141,6.1969,6.1307,6.0588,6.055,6.0665,6.076,6.095,6.1649,6.2138,6.2535,6.2798,6.295,6.3065,6.2685,6.2476,6.2855,6.3102,6.297,6.316,9.1248,9.121,9.121,9.121,9.121,9.121,9.0441,8.8979,8.8055,8.7325,8.6517,8.5709,8.5593,8.6094,8.617,8.6017,8.5709,8.4324,8.3593,8.317,8.2054,8.1285,8.117,8.0592,8.0131,7.9785,7.8977,7.8592,7.8554,7.8323,7.8145,7.74,7.7323,7.6976,7.6515,7.6207,7.6322,7.6399,7.6207,7.613,7.6053,7.5938,7.5899,7.5861,7.5822,7.5784,7.5745,7.5707,7.513,7.3899,7.386,7.3899,7.3692,7.3615,7.3524,7.3524,7.35,7.3308,7.3385,7.3178,7.2933,7.2261,7.2145,7.1847,7.1266,7.1266,7.1213,7.1174,7.1006,7.0891,7.0891,7.0631,7.0494,7.034,6.9044,6.8112,6.7721,6.7636,6.7695,6.7581,6.7354,6.7334,6.7524,6.6749,6.6333,6.6069,6.5578,6.5256,6.5143,6.5275,6.4917,6.486,6.4974,6.4785,6.4313,6.4238,6.4105,6.384,6.2877,6.2443,6.2046,6.1914,6.2141,6.282,6.3179,6.3613,6.3878,6.3897,6.3992,6.386,6.403,6.4502,6.4577,6.4388,6.4445,9.1787,9.121,9.121,9.121,9.121,9.121,9.0979,9.0441,8.9556,8.894,8.8556,8.7363,8.6824,8.6978,8.6401,8.5824,8.5209,8.417,8.3593,8.3401,8.2516,8.2016,8.1977,8.1785,8.1323,8.0746,7.9977,7.9477,7.94,7.8938,7.8453,7.8184,7.8169,7.8092,7.7861,7.7746,7.7823,7.7746,7.7207,7.6938,7.6823,7.6284,7.6015,7.5976,7.5976,7.5976,7.5976,7.5976,7.5861,7.5438,7.5361,7.5361,7.5207,7.4707,7.4399,7.4322,7.386,7.3538,7.3538,7.3591,7.3423,7.3178,7.3125,7.3048,7.2842,7.2765,7.2765,7.265,7.2265,7.1804,7.1675,7.1209,7.0882,7.0639,6.9999,6.9527,6.9438,6.9465,6.9393,6.9431,6.9281,6.9225,6.9017,6.8485,6.7916,6.7764,6.7233,6.6663,6.6476,6.644,6.6291,6.6612,6.6708,6.6595,6.6445,6.6389,6.6351,6.6389,6.5691,6.4804,6.4105,6.3369,6.3671,6.4181,6.3955,6.42,6.4332,6.437,6.4596,6.4634,6.4634,6.469,6.5388,6.5483,6.5785,9.1672,9.121,9.121,9.121,9.121,9.121,9.0825,9.021,9.0017,8.944,8.8825,8.8286,8.794,8.7863,8.7055,8.644,8.5863,8.4709,8.417,8.4093,8.367,8.3247,8.2939,8.2824,8.2593,8.2131,8.1246,8.09,8.0746,8.0015,7.9438,7.9092,7.9054,7.8861,7.84,7.8492,7.853,7.8338,7.7746,7.7284,7.7246,7.6438,7.6053,7.5976,7.5976,7.5976,7.5976,7.5976,7.5976,7.5976,7.5976,7.5976,7.5976,7.5553,7.5245,7.5207,7.4784,7.4553,7.4553,7.4553,7.4361,7.4091,7.4,7.3808,7.3538,7.35,7.35,7.3346,7.2976,7.2783,7.2654,7.2174,7.1886,7.1827,7.1328,7.0856,7.0517,7.023,7.0255,7.0238,7.0203,7.0185,7.0185,6.9424,6.9043,6.8701,6.7981,6.7694,6.7525,6.7639,6.7697,6.7794,6.7777,6.7496,6.7364,6.7326,6.7402,6.7554,6.7329,6.6612,6.5765,6.4766,6.4539,6.4671,6.4652,6.4671,6.4747,6.4765,6.4745,6.4763,6.4726,6.5123,6.5783,6.65,6.6823,9.1287,9.121,9.1095,9.1133,9.1171,9.1095,9.0364,8.9363,8.9863,8.9363,8.8479,8.8632,8.8786,8.8748,8.7709,8.7325,8.7209,8.5478,8.4939,8.4824,8.4786,8.4555,8.4016,8.3785,8.3593,8.3285,8.2747,8.2324,8.1939,8.14,8.0746,8.0131,7.9939,7.9554,7.9208,7.8938,7.8784,7.8823,7.8246,7.79,7.7669,7.6899,7.6322,7.6284,7.6053,7.6015,7.5976,7.5976,7.5976,7.5976,7.5976,7.5976,7.5976,7.5976,7.5938,7.5899,7.5784,7.5784,7.5899,7.5745,7.5592,7.5014,7.4861,7.4553,7.413,7.4053,7.4053,7.4091,7.3692,7.3553,7.3346,7.3289,7.3159,7.2937,7.2479,7.1766,7.106,7.0572,7.0341,7.0417,7.0387,7.022,7.003,6.9611,6.9078,6.9451,6.89,6.8765,6.8612,6.8634,6.8579,6.8464,6.8371,6.8181,6.8126,6.8126,6.824,6.8316,6.813,6.7604,6.6931,6.6065,6.5312,6.5104,6.5555,6.5497,6.5158,6.5138,6.5229,6.5475,6.5836,6.6043,6.6362,6.7023,6.7478,9.1825,9.1133,9.0479,9.0594,9.1056,9.0479,9.0364,9.0594,9.0787,9.0556,9.0287,8.9863,8.9671,8.9556,8.8248,8.7401,8.7363,8.594,8.4939,8.4978,8.5632,8.5747,8.544,8.5055,8.4324,8.3824,8.3478,8.2978,8.2439,8.2208,8.167,8.0977,8.0823,8.0746,8.0592,8.0362,8.0516,8.0362,7.9669,7.9131,7.8823,7.7746,7.6976,7.6899,7.6322,7.6015,7.5976,7.5976,7.5976,7.5976,7.5976,7.5976,7.5976,7.5976,7.5976,7.5976,7.5976,7.5976,7.5976,7.5976,7.5938,7.5707,7.5592,7.5668,7.5515,7.5361,7.5399,7.5322,7.4861,7.4245,7.3808,7.3538,7.3587,7.3572,7.3298,7.2984,7.2556,7.1436,7.1035,7.1194,7.0839,7.0353,7.0391,7.026,6.9993,7.0047,6.9933,6.978,6.9704,6.9573,6.9442,6.9234,6.9234,6.9158,6.9158,6.9103,6.9103,6.9103,6.8934,6.8765,6.8112,6.7549,6.6853,6.6643,6.675,6.645,6.5983,6.6415,6.6733,6.6847,6.6906,6.7207,6.749,6.7922,6.8265,9.2018,9.1171,9.071,9.0787,9.1095,9.071,9.0556,9.0671,9.1056,9.0979,9.0671,9.0441,9.0517,9.0402,8.921,8.8594,8.8325,8.7325,8.6709,8.6824,8.7171,8.7325,8.7286,8.6786,8.6055,8.4901,8.4362,8.3901,8.3555,8.3054,8.2708,8.2247,8.19,8.1939,8.1977,8.1554,8.1285,8.1285,8.0439,7.9823,7.9554,7.8592,7.7607,7.7207,7.6476,7.5976,7.5976,7.5976,7.5976,7.5976,7.5976,7.5976,7.5976,7.5976,7.5976,7.5976,7.5976,7.5976,7.5976,7.5976,7.5976,7.5976,7.5976,7.5976,7.5976,7.5976,7.5976,7.5899,7.5553,7.513,7.4745,7.4707,7.4668,7.4577,7.4202,7.4149,7.4158,7.2924,7.195,7.2164,7.1641,7.1248,7.1003,7.0888,7.0495,7.0326,7.0271,7.0157,7.0119,7.0042,7.0119,7.008,7.0195,7.0195,7.0195,7.0157,7.008,6.9988,6.978,6.9704,6.9425,6.8972,6.8519,6.8121,6.7538,6.7351,6.7072,6.7635,6.7804,6.7525,6.7601,6.8202,6.8524,6.8566,6.8984,9.1979,9.1171,9.1056,9.1095,9.1171,9.1018,9.0671,9.0325,9.0864,9.0864,9.0325,9.0902,9.1056,9.0941,9.021,8.9863,8.944,8.8979,8.8248,8.8286,8.8325,8.8248,8.8132,8.7863,8.7286,8.617,8.567,8.5247,8.467,8.417,8.3632,8.3439,8.2901,8.2785,8.3016,8.2362,8.19,8.2247,8.117,8.0439,8.0169,7.9285,7.8323,7.7284,7.6746,7.6169,7.6053,7.5976,7.5976,7.5976,7.5976,7.5976,7.5976,7.5976,7.5976,7.5976,7.5976,7.5976,7.5976,7.5976,7.5976,7.5976,7.5976,7.5976,7.5976,7.5976,7.5976,7.5976,7.5861,7.5861,7.5976,7.5784,7.5822,7.5784,7.5245,7.5322,7.55,7.4551,7.3799,7.3254,7.2617,7.2071,7.1848,7.1641,7.1095,7.0681,7.0626,7.0588,7.055,7.0457,7.0495,7.0402,7.0402,7.0402,7.0402,7.0419,7.0419,7.0381,7.0326,7.0288,7.025,6.9911,6.9289,6.8591,6.8138,6.8066,6.8143,6.8481,6.8481,6.805,6.835,6.901,6.9184,6.9133,6.959,9.1979,9.1133,9.0441,9.0556,9.1056,9.0441,9.0479,9.0979,9.1056,9.1133,9.1018,9.1133,9.1133,9.0941,9.0287,8.9556,8.9056,8.8671,8.8632,8.8671,8.8671,8.8479,8.8094,8.794,8.7248,8.6594,8.644,8.617,8.5209,8.4747,8.4401,8.3785,8.3478,8.3555,8.3632,8.3247,8.3054,8.3208,8.2324,8.1785,8.1477,8.0323,7.8823,7.763,7.7092,7.663,7.6092,7.5976,7.5976,7.5976,7.5976,7.5976,7.5976,7.5976,7.5976,7.5976,7.5976,7.5976,7.5976,7.5976,7.5976,7.5976,7.5976,7.5976,7.5976,7.5976,7.5976,7.5976,7.5976,7.5976,7.5976,7.5976,7.5976,7.5938,7.5861,7.5784,7.5861,7.5562,7.5018,7.442,7.363,7.2954,7.2786,7.254,7.2071,7.1711,7.1619,7.1335,7.1143,7.0904,7.0719,7.0588,7.0402,7.0402,7.0402,7.0419,7.0419,7.0435,7.0381,7.0364,7.0364,7.0364,6.9911,6.9268,6.9137,6.9289,6.9404,6.9404,6.9425,6.9294,6.9594,6.9857,6.984,6.9768,6.99,9.2633,9.1787,9.0941,9.0825,9.0979,9.0287,9.0402,9.1056,9.0748,9.0787,9.0941,9.0748,9.0517,9.0325,8.9671,8.9056,8.8709,8.8171,8.8286,8.8556,8.8671,8.8825,8.8479,8.8248,8.7902,8.7517,8.7401,8.6824,8.5632,8.5555,8.5286,8.4939,8.4516,8.4478,8.4555,8.4016,8.3978,8.3939,8.3478,8.2939,8.2785,8.1285,7.9631,7.8323,7.7476,7.6861,7.6169,7.5976,7.5976,7.5976,7.5976,7.5976,7.5976,7.5976,7.5976,7.5976,7.5976,7.5976,7.5976,7.5976,7.5976,7.5976,7.5976,7.5976,7.5976,7.5976,7.5976,7.5976,7.5976,7.5976,7.5976,7.5976,7.5976,7.5976,7.5976,7.5976,7.5976,7.5976,7.5678,7.5225,7.4512,7.3968,7.3799,7.3461,7.3062,7.2763,7.2594,7.2233,7.1835,7.1634,7.1434,7.1434,7.1357,7.1204,7.1111,7.0942,7.0942,7.0828,7.0773,7.0757,7.0664,7.0795,7.0512,6.9928,7.0042,7.0304,7.0119,6.9949,7.0217,7.0353,7.0217,7.0157,7.0288,7.0402,7.0402,9.3249,9.2441,9.1556,9.121,9.1095,9.0479,9.0441,9.0748,9.0248,9.0171,9.0556,9.0017,8.9671,8.9517,8.9094,8.8671,8.8632,8.7979,8.8171,8.8556,8.8671,8.9056,8.9248,8.9133,8.8556,8.8325,8.8055,8.7209,8.6517,8.6363,8.6363,8.6132,8.5632,8.5517,8.567,8.4863,8.4747,8.4632,8.4324,8.3824,8.3054,8.1862,8.0246,7.8746,7.8015,7.7323,7.6169,7.6284,7.6169,7.6092,7.5976,7.5976,7.5976,7.5976,7.5976,7.5976,7.5976,7.5976,7.5976,7.5976,7.5976,7.5976,7.5976,7.5976,7.5976,7.5976,7.5976,7.5976,7.5976,7.5976,7.5976,7.5976,7.5976,7.5976,7.5976,7.5976,7.5976,7.5976,7.5976,7.5601,7.5133,7.4926,7.4758,7.4642,7.4228,7.3714,7.3492,7.3116,7.2755,7.2724,7.2617,7.2632,7.2556,7.2249,7.2042,7.1765,7.1727,7.1727,7.1657,7.1641,7.1434,7.1303,7.1057,7.1035,7.0805,7.0974,7.0735,7.0457,7.0402,7.0386,7.0402,7.0402,7.0419,7.0402,7.0402,9.3249,9.2441,9.1595,9.121,9.1133,9.0979,9.0594,9.0056,8.9863,8.9517,8.921,8.894,8.8825,8.8748,8.8671,8.8594,8.8556,8.8209,8.8094,8.8286,8.8402,8.8517,8.8786,8.8786,8.8632,8.8632,8.8556,8.8055,8.7517,8.7325,8.7171,8.7094,8.694,8.6786,8.6017,8.5632,8.5863,8.5786,8.5132,8.4093,8.2785,8.1747,8.0362,7.9285,7.89,7.8361,7.6669,7.6707,7.6746,7.6169,7.6015,7.5976,7.5976,7.5976,7.5976,7.5976,7.5976,7.5976,7.5976,7.5976,7.5976,7.5976,7.5976,7.5976,7.5976,7.5976,7.5976,7.5976,7.5976,7.5976,7.5976,7.5976,7.5976,7.5976,7.5976,7.5976,7.5976,7.5976,7.5976,7.5976,7.5562,7.5639,7.5639,7.5562,7.5447,7.4918,7.4403,7.4013,7.3806,7.3814,7.3799,7.3814,7.3545,7.3238,7.2954,7.264,7.2472,7.2494,7.2463,7.2448,7.2279,7.2148,7.254,7.2425,7.208,7.1574,7.1242,7.0926,7.0588,7.0435,7.0483,7.0451,7.0419,7.0419,7.049,9.3941,9.3095,9.2287,9.1364,9.0479,8.9979,8.9594,8.9171,8.8671,8.8594,8.8556,8.8132,8.794,8.794,8.7517,8.7478,8.7671,8.7094,8.6863,8.7248,8.7325,8.7555,8.7863,8.8017,8.8132,8.8709,8.8748,8.8902,8.8556,8.8286,8.794,8.7478,8.7363,8.6901,8.6247,8.6094,8.6094,8.5978,8.567,8.4978,8.3862,8.2862,8.167,8.0015,7.99,7.8861,7.7861,7.7169,7.7169,7.6669,7.6361,7.5976,7.5976,7.5976,7.5976,7.5976,7.5976,7.5976,7.5976,7.5976,7.5976,7.5976,7.5976,7.5976,7.5976,7.5976,7.5976,7.5976,7.5976,7.5976,7.5976,7.5976,7.5976,7.5976,7.5976,7.5976,7.5976,7.5976,7.5976,7.5976,7.5976,7.5976,7.5976,7.5899,7.5769,7.5538,7.5255,7.5086,7.5033,7.5148,7.5095,7.5018,7.4595,7.4096,7.3797,7.3499,7.3123,7.307,7.3024,7.3008,7.3047,7.3123,7.3499,7.3384,7.2839,7.2333,7.1864,7.1366,7.093,7.0754,7.0601,7.0776,7.0914,7.0677,7.0693,9.4403,9.3941,9.2941,9.171,9.0479,8.944,8.8902,8.8594,8.7825,8.7671,8.7786,8.7363,8.7171,8.7171,8.6709,8.6709,8.7325,8.5863,8.567,8.594,8.6209,8.6709,8.7363,8.7632,8.8248,8.8979,8.9479,8.971,8.9787,8.9402,8.8671,8.7979,8.7594,8.7132,8.6594,8.6209,8.6094,8.6094,8.5786,8.517,8.4362,8.3555,8.2208,8.1093,8.0285,7.9592,7.8592,7.8323,7.8015,7.7476,7.6823,7.6476,7.6399,7.6169,7.6015,7.5976,7.5976,7.5976,7.5976,7.5976,7.5976,7.5976,7.5976,7.5976,7.5976,7.5976,7.5976,7.5976,7.5976,7.5976,7.5976,7.5976,7.5976,7.5976,7.5976,7.5976,7.5976,7.5976,7.5976,7.5976,7.5976,7.5976,7.5976,7.5976,7.5976,7.5976,7.5976,7.5976,7.5976,7.5938,7.5808,7.5562,7.537,7.4947,7.4779,7.4456,7.4043,7.3797,7.3752,7.3891,7.4098,7.4175,7.4382,7.4098,7.3707,7.3492,7.3223,7.2234,7.1321,7.1597,7.1774,7.1574,7.1459,7.126,7.1298,9.421,9.4749,9.3172,9.2402,9.2056,9.0517,8.9363,8.8517,8.7748,8.7055,8.6709,8.6401,8.6978,8.7209,8.7017,8.6901,8.7401,8.644,8.617,8.6094,8.617,8.6555,8.7209,8.794,8.8748,8.9517,8.9863,9.0402,9.071,8.9556,8.9517,8.9556,8.8171,8.7555,8.6978,8.6363,8.6132,8.5978,8.5632,8.4824,8.3978,8.3016,8.1823,8.0708,8.0516,8.0246,7.8723,7.9054,7.9092,7.8438,7.763,7.7207,7.7092,7.6553,7.6284,7.6207,7.6053,7.6015,7.5976,7.5976,7.5976,7.5976,7.5976,7.5976,7.5976,7.5976,7.5976,7.5976,7.5976,7.5976,7.5976,7.5976,7.5976,7.5976,7.5976,7.5976,7.5976,7.5976,7.5976,7.5976,7.5976,7.5976,7.5976,7.5976,7.5976,7.5976,7.5976,7.5976,7.5976,7.5976,7.5976,7.5885,7.5899,7.5784,7.5822,7.5485,7.5048,7.4971,7.498,7.5225,7.5471,7.5509,7.5148,7.5148,7.4826,7.4702,7.4509,7.372,7.3161,7.3077,7.2947,7.2532,7.2456,7.2432,7.2532,9.3903,9.4134,9.348,9.2633,9.1633,9.0402,8.9133,8.7979,8.7517,8.7248,8.6901,8.7478,8.8132,8.8594,8.8671,8.8286,8.8132,8.7286,8.6671,8.6209,8.617,8.6324,8.6901,8.744,8.8055,8.8594,8.9248,8.9671,8.9479,8.9133,8.894,8.8632,8.8479,8.7517,8.6824,8.644,8.6209,8.6094,8.5786,8.5209,8.4401,8.3555,8.2516,8.1554,8.09,8.0862,8.0169,7.9862,7.9631,7.9208,7.8477,7.8169,7.7938,7.7207,7.6861,7.6707,7.6438,7.6169,7.6053,7.6015,7.5976,7.5976,7.5976,7.5976,7.5976,7.5976,7.5976,7.5976,7.5976,7.5976,7.5976,7.5976,7.5976,7.5976,7.5976,7.5976,7.5976,7.5976,7.5976,7.5976,7.5976,7.5976,7.5976,7.5976,7.5976,7.5976,7.5976,7.5976,7.5976,7.5976,7.5976,7.5976,7.5976,7.5976,7.5976,7.5976,7.5976,7.5976,7.5976,7.5976,7.5976,7.5938,7.5692,7.5822,7.5784,7.5462,7.5255,7.511,7.4696,7.4051,7.3629,7.3274,7.3313,7.3528,7.3629,9.3249,9.3595,9.3172,9.2595,9.1825,9.0748,8.9633,8.8594,8.8017,8.7786,8.7825,8.8479,8.9133,8.9671,8.9517,8.9402,8.8709,8.7902,8.7132,8.6632,8.6286,8.6132,8.6401,8.6901,8.7555,8.7632,8.8517,8.921,8.9286,8.8479,8.8748,8.9094,8.8979,8.8171,8.7325,8.6594,8.6478,8.6478,8.6132,8.5517,8.4555,8.3862,8.2862,8.1977,8.1285,8.1093,8.0823,8.0554,8.0323,7.9939,7.9477,7.8977,7.8592,7.8207,7.7746,7.7438,7.713,7.6669,7.6438,7.613,7.6015,7.5976,7.5976,7.5976,7.5976,7.5976,7.5976,7.5976,7.5976,7.5976,7.5976,7.5976,7.5976,7.5976,7.5976,7.5976,7.5976,7.5976,7.5976,7.5976,7.5976,7.5976,7.5976,7.5976,7.5976,7.5976,7.5976,7.5976,7.5976,7.5976,7.5976,7.5976,7.5976,7.5976,7.5976,7.5976,7.5976,7.5976,7.5976,7.5976,7.5976,7.5976,7.5976,7.5938,7.5938,7.5976,7.5846,7.5562,7.5101,7.4577,7.4385,7.4332,7.4524,7.4702,7.4548,9.221,9.3403,9.2018,9.221,9.3133,9.1825,9.1018,9.0364,8.9171,8.8594,8.8632,8.8825,8.9248,8.9748,8.9556,8.9479,8.9325,8.8209,8.7363,8.7132,8.6401,8.617,8.6401,8.6863,8.7401,8.7825,8.8671,8.944,8.9671,8.9286,8.9479,8.9633,8.9479,8.9286,8.8556,8.7748,8.7363,8.7209,8.6478,8.5286,8.4093,8.3632,8.2785,8.1631,8.1208,8.1093,8.1016,8.0977,8.0785,8.0669,8.0169,7.9823,7.9708,7.8938,7.8515,7.8438,7.8361,7.7938,7.7323,7.6515,7.6245,7.6053,7.5976,7.5976,7.5976,7.5976,7.5976,7.5976,7.5976,7.5976,7.5976,7.5976,7.5976,7.5976,7.5976,7.5976,7.5976,7.5976,7.5976,7.5976,7.5976,7.5976,7.5976,7.5976,7.5976,7.5976,7.5976,7.5976,7.5976,7.5976,7.5976,7.5976,7.5976,7.5976,7.5976,7.5976,7.5976,7.5976,7.5976,7.5976,7.5976,7.5976,7.5976,7.5976,7.5976,7.5976,7.5976,7.5938,7.5553,7.5207,7.5515,7.5592,7.5784,7.5707,7.5399,9.1518,9.2056,9.2056,9.2364,9.271,9.171,9.0902,9.021,8.9286,8.9017,8.944,8.9517,8.9979,9.0402,9.0441,9.0171,8.9671,8.894,8.8132,8.7325,8.6517,8.6209,8.6363,8.6901,8.7401,8.7709,8.8556,8.921,8.9017,8.9363,8.921,8.9171,8.9825,8.9748,8.9171,8.8286,8.7401,8.7209,8.6478,8.5324,8.3824,8.3478,8.2785,8.117,8.1093,8.1093,8.1093,8.1093,8.1093,8.1093,8.0592,8.0592,8.0439,7.9785,7.94,7.9208,7.8977,7.8415,7.8092,7.7669,7.7092,7.6515,7.613,7.6169,7.6015,7.6015,7.5976,7.6015,7.6015,7.6015,7.5976,7.5976,7.5976,7.5976,7.5976,7.5976,7.5976,7.5976,7.5976,7.5976,7.5976,7.5976,7.5976,7.5976,7.5976,7.5976,7.5976,7.5976,7.5976,7.5976,7.5976,7.5976,7.5976,7.5976,7.5976,7.5976,7.5976,7.5976,7.5976,7.5976,7.5976,7.5976,7.5976,7.5976,7.5976,7.5976,7.5976,7.5976,7.5976,7.5938,7.5976,7.5976,7.5938,7.5899,7.5822,9.121,9.1248,9.1479,9.1595,9.1595,9.1633,9.1133,9.0364,8.9787,8.9902,9.0287,9.0364,9.0633,9.1056,9.1133,9.1018,9.0248,8.9171,8.8556,8.7671,8.6594,8.6209,8.6363,8.694,8.7325,8.7709,8.8517,8.9171,8.9325,8.9479,8.971,8.994,9.0094,9.0364,8.994,8.9133,8.8209,8.7786,8.6824,8.5286,8.4016,8.317,8.2439,8.1477,8.1093,8.1093,8.1093,8.1093,8.1131,8.1131,8.1131,8.1131,8.0939,8.0669,8.0285,8.0015,7.9477,7.9054,7.8938,7.8477,7.7823,7.7169,7.6861,7.6861,7.6746,7.6746,7.6592,7.6476,7.6245,7.6092,7.6092,7.6092,7.613,7.613,7.613,7.613,7.613,7.6169,7.6169,7.613,7.6169,7.613,7.613,7.5976,7.5976,7.5976,7.5976,7.6015,7.6015,7.5976,7.5976,7.5976,7.5976,7.5976,7.5976,7.5976,7.5976,7.5976,7.5976,7.5976,7.5976,7.5976,7.5976,7.5976,7.5976,7.5976,7.5976,7.5976,7.5976,7.5976,7.5976,7.5976,7.5976,7.5976,7.5976,9.121,9.1095,9.0269,8.9979,9.021,9.1441,9.1633,9.1056,9.1056,9.1018,9.1056,9.1018,9.1133,9.1171,9.121,9.1133,9.0825,8.9479,8.8979,8.8248,8.7132,8.6632,8.6671,8.7209,8.7748,8.8248,8.9017,9.0094,9.0094,9.0902,9.1248,9.1133,9.1133,9.1133,9.0748,9.021,8.9363,8.8517,8.7171,8.5709,8.4439,8.3247,8.2593,8.19,8.1631,8.1593,8.1593,8.1593,8.1516,8.1439,8.1362,8.1323,8.1246,8.1208,8.117,8.0977,8.0439,8.0285,8.0169,7.9669,7.9361,7.9169,7.8823,7.8684,7.8145,7.7592,7.74,7.7169,7.6938,7.6553,7.6284,7.6361,7.6438,7.6438,7.6399,7.6399,7.6399,7.6399,7.6399,7.6438,7.6476,7.6515,7.663,7.6515,7.6592,7.6399,7.6361,7.613,7.613,7.5976,7.5976,7.5976,7.5976,7.5976,7.5976,7.5976,7.5976,7.5976,7.5976,7.5976,7.5976,7.5976,7.5976,7.5976,7.5976,7.5976,7.5976,7.5976,7.5976,7.5976,7.5976,7.5976,7.5976,7.5976,7.5976,9.121,9.1095,9.0287,8.9902,8.9902,8.9825,8.9633,8.9517,9.0017,9.0287,9.0287,9.0941,9.1133,9.121,9.121,9.121,9.0787,9.021,8.9748,8.8902,8.7825,8.7671,8.7825,8.8171,8.8632,8.9363,9.021,9.1133,9.1787,9.2556,9.2479,9.221,9.2133,9.1825,9.1364,9.0979,9.0364,8.9402,8.794,8.6517,8.5363,8.4401,8.3593,8.2978,8.267,8.2631,8.2631,8.267,8.267,8.2747,8.2824,8.2862,8.2862,8.2862,8.2901,8.2862,8.2631,8.2516,8.2477,8.2247,8.19,8.1554,8.1362,7.9977,7.9131,7.8492,7.8261,7.7977,7.7746,7.74,7.7284,7.7323,7.7323,7.7323,7.7323,7.7323,7.7323,7.7323,7.7323,7.7323,7.7323,7.7323,7.7361,7.7515,7.7515,7.713,7.6784,7.6515,7.6245,7.613,7.5976,7.5976,7.5976,7.5976,7.5976,7.5976,7.5976,7.5976,7.5976,7.5976,7.5976,7.5976,7.5976,7.5976,7.5976,7.5976,7.5976,7.5976,7.5976,7.5976,7.5976,7.5976,7.5976,7.5976,7.5976,9.0671,9.0633,9.0115,8.9556,8.8825,8.8017,8.7671,8.7863,8.8902,8.9556,8.994,9.0441,9.0864,9.1171,9.121,9.1171,9.1095,9.0287,8.9825,8.9479,8.8556,8.8363,8.8594,8.9094,8.9633,9.0441,9.1287,9.2133,9.2941,9.3326,9.3326,9.3018,9.2979,9.2479,9.2056,9.2018,9.1787,9.0556,8.9133,8.7671,8.6671,8.567,8.467,8.4362,8.4055,8.3824,8.3785,8.3785,8.3747,8.3632,8.3593,8.3593,8.3555,8.3555,8.3901,8.3824,8.3555,8.367,8.3747,8.3555,8.3593,8.3516,8.3208,8.217,8.0823,7.9939,7.94,7.8938,7.8631,7.8415,7.8453,7.8492,7.8453,7.8453,7.8453,7.8453,7.8453,7.8415,7.8415,7.84,7.8376,7.8361,7.84,7.853,7.8361,7.7861,7.74,7.6976,7.6592,7.6245,7.6092,7.5976,7.5976,7.5976,7.5976,7.5976,7.5976,7.5976,7.5976,7.5976,7.5976,7.5976,7.5976,7.5976,7.5976,7.5976,7.5976,7.5976,7.5976,7.5976,7.5976,7.5976,7.5976,7.5976,7.5976,8.9671,8.9556,8.9594,8.8479,8.7094,8.644,8.617,8.6209,8.7709,8.8979,8.9633,8.9979,9.0594,9.1133,9.121,9.121,9.1056,9.0517,9.0248,8.9979,8.921,8.8979,8.9325,8.9594,9.0287,9.1248,9.2056,9.2749,9.3595,9.4095,9.4249,9.3826,9.3787,9.3364,9.2787,9.3056,9.2864,9.2133,9.0671,8.9286,8.8094,8.6632,8.5401,8.5555,8.5132,8.4632,8.4478,8.4324,8.417,8.4209,8.4286,8.4516,8.4632,8.4747,8.5093,8.544,8.5593,8.5593,8.5709,8.5478,8.4824,8.4516,8.3939,8.3824,8.3016,8.1593,8.0862,8.0285,8.0015,7.9631,7.9554,7.9477,7.94,7.94,7.94,7.94,7.94,7.94,7.94,7.94,7.94,7.9361,7.9361,7.9438,7.9285,7.8669,7.8246,7.7823,7.7169,7.6707,7.6361,7.613,7.6015,7.6015,7.5976,7.5976,7.5976,7.5976,7.5976,7.5976,7.5976,7.5976,7.5976,7.5976,7.5976,7.5976,7.5976,7.5976,7.5976,7.5976,7.5976,7.5976,7.5976,7.5976,7.5976,8.7594,8.7017,8.7017,8.6055,8.4786,8.567,8.5747,8.5286,8.6247,8.7671,8.9017,9.021,9.0941,9.1133,9.121,9.121,9.1095,9.0902,9.0902,9.0594,8.9979,8.9902,9.0248,9.0171,9.0864,9.1825,9.2633,9.3364,9.4364,9.5018,9.5249,9.4749,9.4672,9.4249,9.348,9.3826,9.371,9.3364,9.2826,9.1825,9.1056,9.0402,8.9671,8.9517,8.9094,8.844,8.844,8.8748,8.8671,8.8594,8.844,8.844,8.844,8.8325,8.8786,8.9402,8.8979,8.8632,8.8325,8.794,8.7478,8.7055,8.6709,8.6132,8.517,8.3593,8.2477,8.19,8.1362,8.0939,8.0669,8.0554,8.0477,8.0477,8.0477,8.0477,8.0477,8.0439,8.0439,8.04,8.04,8.0323,8.0323,8.0208,8.0054,7.9823,7.9554,7.9054,7.813,7.7476,7.6861,7.6553,7.6092,7.6015,7.6015,7.5976,7.5976,7.5976,7.5976,7.5976,7.5976,7.5976,7.5976,7.5976,7.5976,7.5976,7.5976,7.5976,7.5976,7.5976,7.5976,7.5976,7.5976,7.5976,7.5976,8.6017,8.5593,8.5555,8.5055,8.4439,8.517,8.5324,8.517,8.617,8.744,8.8632,8.9671,9.0479,9.1056,9.121,9.121,9.121,9.1171,9.1095,9.0941,9.0825,9.0825,9.0787,9.071,9.1402,9.2287,9.3326,9.4249,9.5018,9.5711,9.5865,9.5595,9.548,9.5134,9.4441,9.4518,9.4595,9.4326,9.4557,9.4441,9.3787,9.2826,9.1902,9.1748,9.1402,9.1018,9.0864,9.0979,9.0787,9.0556,9.0287,9.0248,9.021,9.0171,9.0748,9.1171,9.121,9.1171,9.0902,9.0479,8.994,8.9248,8.8517,8.7517,8.7286,8.5747,8.4209,8.3555,8.2785,8.2324,8.2285,8.2208,8.2208,8.2208,8.2208,8.2208,8.1977,8.1747,8.1631,8.1439,8.1246,8.0785,8.0746,8.0746,8.0516,7.99,7.9785,7.9515,7.8746,7.8323,7.7669,7.7092,7.6707,7.6169,7.6015,7.5976,7.5976,7.5976,7.5976,7.5976,7.5976,7.5976,7.5976,7.5976,7.5976,7.5976,7.5976,7.5976,7.5976,7.5976,7.5976,7.5976,7.5976,7.5976,7.5976,8.4555,8.4593,8.4709,8.4632,8.467,8.4978,8.5016,8.517,8.6517,8.7632,8.8363,8.8517,8.9594,9.071,9.121,9.121,9.121,9.121,9.121,9.121,9.1133,9.1095,9.1133,9.121,9.1748,9.2633,9.371,9.4403,9.5018,9.5634,9.598,9.6211,9.6134,9.5903,9.5634,9.5672,9.5788,9.5441,9.5595,9.6057,9.5288,9.4249,9.3518,9.2826,9.2326,9.1825,9.1748,9.1864,9.1864,9.1825,9.1941,9.2018,9.2018,9.2095,9.2556,9.2941,9.2941,9.2787,9.2479,9.1825,9.1056,9.0248,8.9479,8.9017,8.8786,8.7632,8.6094,8.5093,8.4324,8.3555,8.3516,8.3516,8.3516,8.3439,8.3439,8.3516,8.3208,8.2785,8.2477,8.2247,8.1747,8.1208,8.1093,8.1093,8.0669,8.0054,7.9708,7.9361,7.9092,7.8977,7.8631,7.8054,7.7592,7.7015,7.6361,7.6053,7.6092,7.5976,7.5976,7.5976,7.5976,7.5976,7.5976,7.5976,7.5976,7.5976,7.5976,7.5976,7.5976,7.5976,7.5976,7.5976,7.5976,7.5976,7.5976,8.2785,8.2862,8.3516,8.3439,8.317,8.4901,8.5517,8.5132,8.5863,8.6824,8.7478,8.7825,8.8902,9.1171,9.121,9.1133,9.1018,9.1171,9.1248,9.121,9.1364,9.1287,9.121,9.1287,9.1748,9.2556,9.3441,9.421,9.4711,9.5134,9.5672,9.6249,9.6288,9.6211,9.6172,9.6249,9.6172,9.6019,9.6019,9.6288,9.6288,9.5711,9.5749,9.548,9.5441,9.4864,9.4672,9.5018,9.4788,9.4518,9.4172,9.4057,9.398,9.398,9.4403,9.4634,9.4634,9.4518,9.4095,9.3633,9.2903,9.1825,9.1171,9.0556,8.994,8.8748,8.744,8.6517,8.5555,8.4016,8.3747,8.3824,8.3824,8.3555,8.3401,8.3708,8.3708,8.3054,8.2516,8.2131,8.1708,8.1323,8.1054,8.09,8.0592,8.0169,8.0092,7.9823,7.9939,7.9785,7.9554,7.9054,7.8515,7.7823,7.7169,7.6361,7.6207,7.6092,7.5976,7.5976,7.5976,7.5976,7.5976,7.5976,7.5976,7.5976,7.5976,7.5976,7.5976,7.5976,7.5976,7.5976,7.5976,7.5976,7.5976]}]]